Time,TemperatureF,DewpointF,PressureIn,WindDirection,WindDirectionDegrees,WindSpeedMPH,WindSpeedGustMPH,Humidity,HourlyPrecipIn,Conditions,Clouds,dailyrainin,SoftwareType,DateUTC
2013-02-21 00:00:00,56.1,44.1,30.06,ESE,112,0.0,0.0,64,0.00,,---,0.00,VWS V14.01,2013-02-21 05:00:00,
2013-02-21 00:01:00,56.3,44.3,30.06,ESE,112,0.0,0.0,64,0.00,,---,0.00,VWS V14.01,2013-02-21 05:01:00,
2013-02-21 00:02:00,56.3,43.9,30.06,ESE,112,0.0,0.0,63,0.00,,---,0.00,VWS V14.01,2013-02-21 05:02:00,
2013-02-21 00:03:00,56.3,44.3,30.06,ESE,112,0.0,0.0,64,0.00,,---,0.00,VWS V14.01,2013-02-21 05:03:00,
2013-02-21 00:04:00,56.1,44.1,30.06,ESE,112,0.0,0.0,64,0.00,,---,0.00,VWS V14.01,2013-02-21 05:04:00,
2013-02-21 00:05:00,56.1,44.1,30.06,ESE,112,0.0,0.0,64,0.00,,---,0.00,VWS V14.01,2013-02-21 05:05:00,
2013-02-21 00:06:00,56.1,44.1,30.06,ESE,112,0.0,0.0,64,0.00,,---,0.00,VWS V14.01,2013-02-21 05:06:00,
2013-02-21 00:07:00,56.1,44.1,30.06,ESE,112,0.0,0.0,64,0.00,,---,0.00,VWS V14.01,2013-02-21 05:07:00,
2013-02-21 00:08:00,56.1,44.1,30.06,ESE,112,0.0,0.0,64,0.00,,---,0.00,VWS V14.01,2013-02-21 05:08:00,
2013-02-21 00:09:00,56.1,44.1,30.06,ESE,112,0.0,0.0,64,0.00,,---,0.00,VWS V14.01,2013-02-21 05:09:00,
2013-02-21 00:10:00,56.1,44.5,30.06,NNE,22,0.0,0.0,65,0.00,,---,0.00,VWS V14.01,2013-02-21 05:10:00,
2013-02-21 00:11:00,56.1,44.5,30.06,ESE,112,0.0,0.0,65,0.00,,---,0.00,VWS V14.01,2013-02-21 05:11:00,
2013-02-21 00:12:00,56.1,44.5,30.06,ESE,112,0.0,0.0,65,0.00,,---,0.00,VWS V14.01,2013-02-21 05:12:00,
2013-02-21 00:13:00,56.1,44.1,30.06,ESE,112,0.0,0.0,64,0.00,,---,0.00,VWS V14.01,2013-02-21 05:13:00,
2013-02-21 00:14:00,56.1,44.1,30.06,ESE,112,0.0,0.0,64,0.00,,---,0.00,VWS V14.01,2013-02-21 05:14:00,
2013-02-21 00:15:00,55.9,44.4,30.06,NNE,22,0.0,0.0,65,0.00,,---,0.00,VWS V14.01,2013-02-21 05:15:00,
2013-02-21 00:16:00,56.1,44.5,30.06,NNE,22,0.0,0.0,65,0.00,,---,0.00,VWS V14.01,2013-02-21 05:16:00,
2013-02-21 00:17:00,56.1,44.5,30.06,NNE,22,0.0,0.0,65,0.00,,---,0.00,VWS V14.01,2013-02-21 05:17:00,
2013-02-21 00:18:00,56.1,44.5,30.06,NNE,22,0.0,0.0,65,0.00,,---,0.00,VWS V14.01,2013-02-21 05:18:00,
2013-02-21 00:19:00,56.1,44.5,30.06,NNE,22,0.0,0.0,65,0.00,,---,0.00,VWS V14.01,2013-02-21 05:19:00,
2013-02-21 00:20:00,55.9,44.4,30.06,NNE,22,0.0,0.0,65,0.00,,---,0.00,VWS V14.01,2013-02-21 05:20:00,
2013-02-21 00:21:00,56.1,44.5,30.06,NNE,22,0.0,0.0,65,0.00,,---,0.00,VWS V14.01,2013-02-21 05:21:00,
2013-02-21 00:22:00,56.1,44.5,30.06,NNE,22,0.0,0.0,65,0.00,,---,0.00,VWS V14.01,2013-02-21 05:22:00,
2013-02-21 00:23:00,56.1,44.5,30.06,NNE,22,0.0,0.0,65,0.00,,---,0.00,VWS V14.01,2013-02-21 05:23:00,
2013-02-21 00:24:00,55.9,44.4,30.06,NNE,22,0.0,0.0,65,0.00,,---,0.00,VWS V14.01,2013-02-21 05:24:00,
2013-02-21 00:25:00,55.9,44.8,30.06,NNE,22,0.0,0.0,66,0.00,,---,0.00,VWS V14.01,2013-02-21 05:25:00,
2013-02-21 00:26:00,55.9,44.4,30.06,NNE,22,0.0,0.0,65,0.00,,---,0.00,VWS V14.01,2013-02-21 05:26:00,
2013-02-21 00:27:00,55.9,44.4,30.06,NNE,22,0.0,0.0,65,0.00,,---,0.00,VWS V14.01,2013-02-21 05:27:00,
2013-02-21 00:28:00,55.9,44.4,30.06,NNE,22,0.0,0.0,65,0.00,,---,0.00,VWS V14.01,2013-02-21 05:28:00,
2013-02-21 00:29:00,55.9,44.4,30.06,NNE,22,0.0,0.0,65,0.00,,---,0.00,VWS V14.01,2013-02-21 05:29:00,
2013-02-21 00:30:00,55.8,44.6,30.06,NNE,22,0.0,0.0,66,0.00,,---,0.00,VWS V14.01,2013-02-21 05:30:00,
2013-02-21 00:31:00,55.9,44.4,30.06,NNE,22,0.0,0.0,65,0.00,,---,0.00,VWS V14.01,2013-02-21 05:31:00,
2013-02-21 00:32:00,55.9,44.4,30.06,NNE,22,0.0,0.0,65,0.00,,---,0.00,VWS V14.01,2013-02-21 05:32:00,
2013-02-21 00:33:00,55.9,44.4,30.06,NNE,22,0.0,0.0,65,0.00,,---,0.00,VWS V14.01,2013-02-21 05:33:00,
2013-02-21 00:34:00,55.9,44.8,30.06,NNE,22,0.0,0.0,66,0.00,,---,0.00,VWS V14.01,2013-02-21 05:34:00,
2013-02-21 00:35:00,55.9,44.8,30.06,NNE,22,0.0,0.0,66,0.00,,---,0.00,VWS V14.01,2013-02-21 05:35:00,
2013-02-21 00:36:00,55.9,44.8,30.06,NNE,22,0.0,0.0,66,0.00,,---,0.00,VWS V14.01,2013-02-21 05:36:00,
2013-02-21 00:37:00,55.9,44.8,30.06,NNE,22,0.0,0.0,66,0.00,,---,0.00,VWS V14.01,2013-02-21 05:37:00,
2013-02-21 00:38:00,55.8,44.6,30.06,NNE,22,0.0,0.0,66,0.00,,---,0.00,VWS V14.01,2013-02-21 05:38:00,
2013-02-21 00:39:00,55.8,44.6,30.06,NNE,22,0.0,0.0,66,0.00,,---,0.00,VWS V14.01,2013-02-21 05:39:00,
2013-02-21 00:40:00,55.9,44.8,30.06,NNE,22,0.0,0.0,66,0.00,,---,0.00,VWS V14.01,2013-02-21 05:40:00,
2013-02-21 00:41:00,55.8,44.6,30.06,NNE,22,0.0,0.0,66,0.00,,---,0.00,VWS V14.01,2013-02-21 05:41:00,
2013-02-21 00:42:00,55.8,44.6,30.06,NNE,22,0.0,0.0,66,0.00,,---,0.00,VWS V14.01,2013-02-21 05:42:00,
2013-02-21 00:43:00,55.9,44.8,30.06,NNE,22,0.0,0.0,66,0.00,,---,0.00,VWS V14.01,2013-02-21 05:43:00,
2013-02-21 00:44:00,55.9,44.8,30.06,NNE,22,0.0,0.0,66,0.00,,---,0.00,VWS V14.01,2013-02-21 05:44:00,
2013-02-21 00:45:00,55.9,44.8,30.06,NNE,22,0.0,0.0,66,0.00,,---,0.00,VWS V14.01,2013-02-21 05:45:00,
2013-02-21 00:46:00,55.9,44.8,30.06,NNE,22,0.0,0.0,66,0.00,,---,0.00,VWS V14.01,2013-02-21 05:46:00,
2013-02-21 00:47:00,55.9,44.8,30.06,NNE,22,0.0,0.0,66,0.00,,---,0.00,VWS V14.01,2013-02-21 05:47:00,
2013-02-21 00:48:00,55.9,44.8,30.06,NNE,22,0.0,0.0,66,0.00,,---,0.00,VWS V14.01,2013-02-21 05:48:00,
2013-02-21 00:49:00,55.9,44.8,30.06,NNE,22,0.0,0.0,66,0.00,,---,0.00,VWS V14.01,2013-02-21 05:49:00,
2013-02-21 00:50:00,55.9,44.8,30.06,NE,45,0.0,0.0,66,0.00,,---,0.00,VWS V14.01,2013-02-21 05:50:00,
2013-02-21 00:51:00,55.9,44.8,30.06,NNE,22,0.0,0.0,66,0.00,,---,0.00,VWS V14.01,2013-02-21 05:51:00,
2013-02-21 00:52:00,55.9,44.8,30.06,NNE,22,0.0,0.0,66,0.00,,---,0.00,VWS V14.01,2013-02-21 05:52:00,
2013-02-21 00:53:00,55.9,44.8,30.06,NNE,22,0.0,0.0,66,0.00,,---,0.00,VWS V14.01,2013-02-21 05:53:00,
2013-02-21 00:54:00,55.9,44.8,30.06,NNE,22,0.0,0.0,66,0.00,,---,0.00,VWS V14.01,2013-02-21 05:54:00,
2013-02-21 00:55:00,56.1,44.9,30.06,NE,45,0.0,0.0,66,0.00,,---,0.00,VWS V14.01,2013-02-21 05:55:00,
2013-02-21 00:56:00,55.9,44.8,30.06,NNE,22,0.0,0.0,66,0.00,,---,0.00,VWS V14.01,2013-02-21 05:56:00,
2013-02-21 00:57:00,55.9,45.2,30.06,NNE,22,0.0,0.0,67,0.00,,---,0.00,VWS V14.01,2013-02-21 05:57:00,
2013-02-21 00:58:00,55.9,44.8,30.06,NE,45,0.0,0.0,66,0.00,,---,0.00,VWS V14.01,2013-02-21 05:58:00,
2013-02-21 00:59:00,55.9,44.8,30.06,NE,45,0.0,0.0,66,0.00,,---,0.00,VWS V14.01,2013-02-21 05:59:00,
2013-02-21 01:00:00,56.3,45.1,30.06,NE,45,0.0,0.0,66,0.00,,---,0.00,VWS V14.01,2013-02-21 06:00:00,
2013-02-21 01:01:00,56.1,45.3,30.06,NE,45,0.0,0.0,67,0.00,,---,0.00,VWS V14.01,2013-02-21 06:01:00,
2013-02-21 01:02:00,56.1,44.9,30.06,NE,45,0.0,0.0,66,0.00,,---,0.00,VWS V14.01,2013-02-21 06:02:00,
2013-02-21 01:03:00,56.1,44.9,30.06,NE,45,0.0,0.0,66,0.00,,---,0.00,VWS V14.01,2013-02-21 06:03:00,
2013-02-21 01:04:00,56.1,44.9,30.06,NE,45,0.0,0.0,66,0.00,,---,0.00,VWS V14.01,2013-02-21 06:04:00,
2013-02-21 01:05:00,56.3,45.5,30.06,NE,45,0.0,0.0,67,0.00,,---,0.00,VWS V14.01,2013-02-21 06:05:00,
2013-02-21 01:06:00,56.3,45.1,30.06,NE,45,0.0,0.0,66,0.00,,---,0.00,VWS V14.01,2013-02-21 06:06:00,
2013-02-21 01:07:00,56.3,45.1,30.06,NE,45,0.0,0.0,66,0.00,,---,0.00,VWS V14.01,2013-02-21 06:07:00,
2013-02-21 01:08:00,56.3,45.1,30.06,NE,45,0.0,0.0,66,0.00,,---,0.00,VWS V14.01,2013-02-21 06:08:00,
2013-02-21 01:09:00,56.3,45.1,30.06,NE,45,0.0,0.0,66,0.00,,---,0.00,VWS V14.01,2013-02-21 06:09:00,
2013-02-21 01:10:00,56.3,45.5,30.06,NNE,22,0.0,0.0,67,0.00,,---,0.00,VWS V14.01,2013-02-21 06:10:00,
2013-02-21 01:11:00,56.3,45.5,30.06,NE,45,0.0,0.0,67,0.00,,---,0.00,VWS V14.01,2013-02-21 06:11:00,
2013-02-21 01:12:00,56.3,45.5,30.06,NE,45,0.0,0.0,67,0.00,,---,0.00,VWS V14.01,2013-02-21 06:12:00,
2013-02-21 01:13:00,56.3,45.5,30.06,NE,45,0.0,0.0,67,0.00,,---,0.00,VWS V14.01,2013-02-21 06:13:00,
2013-02-21 01:14:00,56.3,45.5,30.06,NE,45,0.0,0.0,67,0.00,,---,0.00,VWS V14.01,2013-02-21 06:14:00,
2013-02-21 01:15:00,56.5,45.7,30.06,NE,45,0.0,0.0,67,0.00,,---,0.00,VWS V14.01,2013-02-21 06:15:00,
2013-02-21 01:16:00,56.3,45.5,30.06,NE,45,0.0,0.0,67,0.00,,---,0.00,VWS V14.01,2013-02-21 06:16:00,
2013-02-21 01:17:00,56.3,45.5,30.06,NE,45,0.0,0.0,67,0.00,,---,0.00,VWS V14.01,2013-02-21 06:17:00,
2013-02-21 01:18:00,56.3,45.5,30.06,NNE,22,0.0,0.0,67,0.00,,---,0.00,VWS V14.01,2013-02-21 06:18:00,
2013-02-21 01:19:00,56.3,45.5,30.06,NNE,22,0.0,0.0,67,0.00,,---,0.00,VWS V14.01,2013-02-21 06:19:00,
2013-02-21 01:20:00,56.5,45.7,30.06,NE,45,0.0,0.0,67,0.00,,---,0.00,VWS V14.01,2013-02-21 06:20:00,
2013-02-21 01:21:00,56.5,45.7,30.06,NNE,22,0.0,0.0,67,0.00,,---,0.00,VWS V14.01,2013-02-21 06:21:00,
2013-02-21 01:22:00,56.5,45.7,30.06,NE,45,0.0,0.0,67,0.00,,---,0.00,VWS V14.01,2013-02-21 06:22:00,
2013-02-21 01:23:00,56.5,45.7,30.06,NE,45,0.0,0.0,67,0.00,,---,0.00,VWS V14.01,2013-02-21 06:23:00,
2013-02-21 01:24:00,56.5,45.7,30.06,NE,45,0.0,0.0,67,0.00,,---,0.00,VWS V14.01,2013-02-21 06:24:00,
2013-02-21 01:25:00,56.3,45.5,30.06,NE,45,0.0,0.0,67,0.00,,---,0.00,VWS V14.01,2013-02-21 06:25:00,
2013-02-21 01:26:00,56.5,45.7,30.06,NE,45,0.0,0.0,67,0.00,,---,0.00,VWS V14.01,2013-02-21 06:26:00,
2013-02-21 01:27:00,56.5,45.7,30.06,NE,45,0.0,0.0,67,0.00,,---,0.00,VWS V14.01,2013-02-21 06:27:00,
2013-02-21 01:28:00,56.5,45.7,30.06,NE,45,0.0,0.0,67,0.00,,---,0.00,VWS V14.01,2013-02-21 06:28:00,
2013-02-21 01:29:00,56.5,45.7,30.06,NE,45,0.0,0.0,67,0.00,,---,0.00,VWS V14.01,2013-02-21 06:29:00,
2013-02-21 01:30:00,56.3,45.5,30.06,NE,45,0.0,0.0,67,0.00,,---,0.00,VWS V14.01,2013-02-21 06:30:00,
2013-02-21 01:31:00,56.3,45.5,30.06,NE,45,0.0,0.0,67,0.00,,---,0.00,VWS V14.01,2013-02-21 06:31:00,
2013-02-21 01:32:00,56.3,45.5,30.06,NE,45,0.0,0.0,67,0.00,,---,0.00,VWS V14.01,2013-02-21 06:32:00,
2013-02-21 01:33:00,56.3,45.5,30.06,NE,45,0.0,0.0,67,0.00,,---,0.00,VWS V14.01,2013-02-21 06:33:00,
2013-02-21 01:34:00,56.3,45.5,30.06,NE,45,0.0,0.0,67,0.00,,---,0.00,VWS V14.01,2013-02-21 06:34:00,
2013-02-21 01:35:00,56.5,46.1,30.06,NE,45,0.0,0.0,68,0.00,,---,0.00,VWS V14.01,2013-02-21 06:35:00,
2013-02-21 01:36:00,56.3,45.5,30.06,NE,45,0.0,0.0,67,0.00,,---,0.00,VWS V14.01,2013-02-21 06:36:00,
2013-02-21 01:37:00,56.3,45.5,30.06,NE,45,0.0,0.0,67,0.00,,---,0.00,VWS V14.01,2013-02-21 06:37:00,
2013-02-21 01:38:00,56.3,45.5,30.06,NE,45,0.0,0.0,67,0.00,,---,0.00,VWS V14.01,2013-02-21 06:38:00,
2013-02-21 01:39:00,56.3,45.5,30.06,NE,45,0.0,0.0,67,0.00,,---,0.00,VWS V14.01,2013-02-21 06:39:00,
2013-02-21 01:40:00,56.5,46.1,30.06,NE,45,0.0,0.0,68,0.00,,---,0.00,VWS V14.01,2013-02-21 06:40:00,
2013-02-21 01:41:00,56.3,45.5,30.06,NE,45,0.0,0.0,67,0.00,,---,0.00,VWS V14.01,2013-02-21 06:41:00,
2013-02-21 01:42:00,56.3,45.5,30.06,NE,45,0.0,0.0,67,0.00,,---,0.00,VWS V14.01,2013-02-21 06:42:00,
2013-02-21 01:43:00,56.5,46.1,30.06,NE,45,0.0,0.0,68,0.00,,---,0.00,VWS V14.01,2013-02-21 06:43:00,
2013-02-21 01:44:00,56.5,46.1,30.06,NE,45,0.0,0.0,68,0.00,,---,0.00,VWS V14.01,2013-02-21 06:44:00,
2013-02-21 01:45:00,56.5,46.1,30.06,NE,45,0.0,0.0,68,0.00,,---,0.00,VWS V14.01,2013-02-21 06:45:00,
2013-02-21 01:46:00,56.5,46.1,30.06,NE,45,0.0,0.0,68,0.00,,---,0.00,VWS V14.01,2013-02-21 06:46:00,
2013-02-21 01:47:00,56.5,46.1,30.06,NE,45,0.0,0.0,68,0.00,,---,0.00,VWS V14.01,2013-02-21 06:47:00,
2013-02-21 01:48:00,56.5,46.1,30.06,NE,45,0.0,0.0,68,0.00,,---,0.00,VWS V14.01,2013-02-21 06:48:00,
2013-02-21 01:49:00,56.5,46.1,30.06,NE,45,0.0,0.0,68,0.00,,---,0.00,VWS V14.01,2013-02-21 06:49:00,
2013-02-21 01:50:00,56.3,45.9,30.06,NE,45,0.0,0.0,68,0.00,,---,0.00,VWS V14.01,2013-02-21 06:50:00,
2013-02-21 01:51:00,56.5,45.7,30.06,NE,45,0.0,0.0,67,0.00,,---,0.00,VWS V14.01,2013-02-21 06:51:00,
2013-02-21 01:52:00,56.5,46.1,30.06,NE,45,0.0,0.0,68,0.00,,---,0.00,VWS V14.01,2013-02-21 06:52:00,
2013-02-21 01:53:00,56.5,46.1,30.06,NE,45,0.0,0.0,68,0.00,,---,0.00,VWS V14.01,2013-02-21 06:53:00,
2013-02-21 01:54:00,56.5,46.1,30.06,NE,45,0.0,0.0,68,0.00,,---,0.00,VWS V14.01,2013-02-21 06:54:00,
2013-02-21 01:55:00,56.3,45.9,30.06,NE,45,0.0,0.0,68,0.00,,---,0.00,VWS V14.01,2013-02-21 06:55:00,
2013-02-21 01:56:00,56.5,46.1,30.06,NE,45,0.0,0.0,68,0.00,,---,0.00,VWS V14.01,2013-02-21 06:56:00,
2013-02-21 01:57:00,56.5,46.1,30.06,NE,45,0.0,0.0,68,0.00,,---,0.00,VWS V14.01,2013-02-21 06:57:00,
2013-02-21 01:58:00,56.3,45.9,30.06,NE,45,0.0,0.0,68,0.00,,---,0.00,VWS V14.01,2013-02-21 06:58:00,
2013-02-21 01:59:00,56.3,45.9,30.06,NE,45,0.0,0.0,68,0.00,,---,0.00,VWS V14.01,2013-02-21 06:59:00,
2013-02-21 02:00:00,56.3,45.9,30.06,NE,45,0.0,0.0,68,0.00,,---,0.00,VWS V14.01,2013-02-21 07:00:00,
2013-02-21 02:01:00,56.5,46.1,30.06,NE,45,0.0,0.0,68,0.00,,---,0.00,VWS V14.01,2013-02-21 07:01:00,
2013-02-21 02:02:00,56.5,46.1,30.06,NE,45,0.0,0.0,68,0.00,,---,0.00,VWS V14.01,2013-02-21 07:02:00,
2013-02-21 02:03:00,56.3,45.9,30.06,NE,45,0.0,0.0,68,0.00,,---,0.00,VWS V14.01,2013-02-21 07:03:00,
2013-02-21 02:04:00,56.3,45.9,30.06,NE,45,0.0,0.0,68,0.00,,---,0.00,VWS V14.01,2013-02-21 07:04:00,
2013-02-21 02:05:00,56.3,45.9,30.03,NE,45,0.0,0.0,68,0.00,,---,0.00,VWS V14.01,2013-02-21 07:05:00,
2013-02-21 02:06:00,56.3,45.9,30.06,NE,45,0.0,0.0,68,0.00,,---,0.00,VWS V14.01,2013-02-21 07:06:00,
2013-02-21 02:07:00,56.3,45.9,30.06,NE,45,0.0,0.0,68,0.00,,---,0.00,VWS V14.01,2013-02-21 07:07:00,
2013-02-21 02:08:00,56.3,45.9,30.06,NE,45,0.0,0.0,68,0.00,,---,0.00,VWS V14.01,2013-02-21 07:08:00,
2013-02-21 02:09:00,56.3,45.9,30.06,NE,45,0.0,0.0,68,0.00,,---,0.00,VWS V14.01,2013-02-21 07:09:00,
2013-02-21 02:10:00,56.3,46.3,30.03,NE,45,0.0,0.0,69,0.00,,---,0.00,VWS V14.01,2013-02-21 07:10:00,
2013-02-21 02:11:00,56.3,45.9,30.06,NE,45,0.0,0.0,68,0.00,,---,0.00,VWS V14.01,2013-02-21 07:11:00,
2013-02-21 02:12:00,56.3,45.9,30.06,NE,45,0.0,0.0,68,0.00,,---,0.00,VWS V14.01,2013-02-21 07:12:00,
2013-02-21 02:13:00,56.3,45.9,30.03,NE,45,0.0,0.0,68,0.00,,---,0.00,VWS V14.01,2013-02-21 07:13:00,
2013-02-21 02:14:00,56.3,45.9,30.03,NE,45,0.0,0.0,68,0.00,,---,0.00,VWS V14.01,2013-02-21 07:14:00,
2013-02-21 02:15:00,56.1,46.1,30.03,NE,45,0.0,0.0,69,0.00,,---,0.00,VWS V14.01,2013-02-21 07:15:00,
2013-02-21 02:16:00,56.3,45.9,30.03,NE,45,0.0,0.0,68,0.00,,---,0.00,VWS V14.01,2013-02-21 07:16:00,
2013-02-21 02:17:00,56.3,46.3,30.03,NE,45,0.0,0.0,69,0.00,,---,0.00,VWS V14.01,2013-02-21 07:17:00,
2013-02-21 02:18:00,56.3,46.3,30.03,NE,45,0.0,0.0,69,0.00,,---,0.00,VWS V14.01,2013-02-21 07:18:00,
2013-02-21 02:19:00,56.3,46.3,30.03,NE,45,0.0,0.0,69,0.00,,---,0.00,VWS V14.01,2013-02-21 07:19:00,
2013-02-21 02:20:00,55.9,45.9,30.03,NE,45,0.0,0.0,69,0.00,,---,0.00,VWS V14.01,2013-02-21 07:20:00,
2013-02-21 02:21:00,56.3,46.3,30.03,NE,45,0.0,0.0,69,0.00,,---,0.00,VWS V14.01,2013-02-21 07:21:00,
2013-02-21 02:22:00,56.1,46.1,30.03,NE,45,0.0,0.0,69,0.00,,---,0.00,VWS V14.01,2013-02-21 07:22:00,
2013-02-21 02:23:00,56.1,46.1,30.03,NE,45,0.0,0.0,69,0.00,,---,0.00,VWS V14.01,2013-02-21 07:23:00,
2013-02-21 02:24:00,56.1,46.1,30.03,NE,45,0.0,0.0,69,0.00,,---,0.00,VWS V14.01,2013-02-21 07:24:00,
2013-02-21 02:25:00,55.9,46.3,30.03,NE,45,0.0,0.0,70,0.00,,---,0.00,VWS V14.01,2013-02-21 07:25:00,
2013-02-21 02:26:00,55.9,45.9,30.03,NE,45,0.0,0.0,69,0.00,,---,0.00,VWS V14.01,2013-02-21 07:26:00,
2013-02-21 02:27:00,55.9,45.9,30.03,NE,45,0.0,0.0,69,0.00,,---,0.00,VWS V14.01,2013-02-21 07:27:00,
2013-02-21 02:28:00,55.9,45.9,30.03,NE,45,0.0,0.0,69,0.00,,---,0.00,VWS V14.01,2013-02-21 07:28:00,
2013-02-21 02:29:00,55.9,45.9,30.03,NE,45,0.0,0.0,69,0.00,,---,0.00,VWS V14.01,2013-02-21 07:29:00,
2013-02-21 02:30:00,55.9,46.3,30.03,NE,45,0.0,0.0,70,0.00,,---,0.00,VWS V14.01,2013-02-21 07:30:00,
2013-02-21 02:31:00,55.9,46.3,30.03,NE,45,0.0,0.0,70,0.00,,---,0.00,VWS V14.01,2013-02-21 07:31:00,
2013-02-21 02:32:00,55.9,46.3,30.03,NE,45,0.0,0.0,70,0.00,,---,0.00,VWS V14.01,2013-02-21 07:32:00,
2013-02-21 02:33:00,55.9,46.3,30.03,NE,45,0.0,0.0,70,0.00,,---,0.00,VWS V14.01,2013-02-21 07:33:00,
2013-02-21 02:34:00,55.9,46.3,30.03,NE,45,0.0,0.0,70,0.00,,---,0.00,VWS V14.01,2013-02-21 07:34:00,
2013-02-21 02:35:00,55.9,46.7,30.03,NE,45,0.0,0.0,71,0.00,,---,0.00,VWS V14.01,2013-02-21 07:35:00,
2013-02-21 02:36:00,55.9,46.7,30.03,NE,45,0.0,0.0,71,0.00,,---,0.00,VWS V14.01,2013-02-21 07:36:00,
2013-02-21 02:37:00,55.9,46.3,30.03,NE,45,0.0,0.0,70,0.00,,---,0.00,VWS V14.01,2013-02-21 07:37:00,
2013-02-21 02:38:00,55.9,46.3,30.03,NE,45,0.0,0.0,70,0.00,,---,0.00,VWS V14.01,2013-02-21 07:38:00,
2013-02-21 02:39:00,55.9,46.3,30.03,NE,45,0.0,0.0,70,0.00,,---,0.00,VWS V14.01,2013-02-21 07:39:00,
2013-02-21 02:40:00,55.8,46.5,30.03,NE,45,0.0,0.0,71,0.00,,---,0.00,VWS V14.01,2013-02-21 07:40:00,
2013-02-21 02:41:00,55.9,46.7,30.03,NE,45,0.0,0.0,71,0.00,,---,0.00,VWS V14.01,2013-02-21 07:41:00,
2013-02-21 02:42:00,55.9,46.7,30.03,NE,45,0.0,0.0,71,0.00,,---,0.00,VWS V14.01,2013-02-21 07:42:00,
2013-02-21 02:43:00,55.9,46.7,30.03,NE,45,0.0,0.0,71,0.00,,---,0.00,VWS V14.01,2013-02-21 07:43:00,
2013-02-21 02:44:00,55.9,46.7,30.03,NE,45,0.0,0.0,71,0.00,,---,0.00,VWS V14.01,2013-02-21 07:44:00,
2013-02-21 02:45:00,55.8,46.5,30.03,NE,45,0.0,0.0,71,0.00,,---,0.00,VWS V14.01,2013-02-21 07:45:00,
2013-02-21 02:46:00,55.8,46.5,30.03,NE,45,0.0,0.0,71,0.00,,---,0.00,VWS V14.01,2013-02-21 07:46:00,
2013-02-21 02:47:00,55.8,46.5,30.03,NE,45,0.0,0.0,71,0.00,,---,0.00,VWS V14.01,2013-02-21 07:47:00,
2013-02-21 02:48:00,55.8,46.5,30.03,NE,45,0.0,0.0,71,0.00,,---,0.00,VWS V14.01,2013-02-21 07:48:00,
2013-02-21 02:49:00,55.8,46.5,30.03,NE,45,0.0,0.0,71,0.00,,---,0.00,VWS V14.01,2013-02-21 07:49:00,
2013-02-21 02:50:00,55.6,46.7,30.03,NE,45,0.0,0.0,72,0.00,,---,0.00,VWS V14.01,2013-02-21 07:50:00,
2013-02-21 02:51:00,55.8,46.5,30.03,NE,45,0.0,0.0,71,0.00,,---,0.00,VWS V14.01,2013-02-21 07:51:00,
2013-02-21 02:52:00,55.8,46.5,30.03,NE,45,0.0,0.0,71,0.00,,---,0.00,VWS V14.01,2013-02-21 07:52:00,
2013-02-21 02:53:00,55.8,46.5,30.03,NE,45,0.0,0.0,71,0.00,,---,0.00,VWS V14.01,2013-02-21 07:53:00,
2013-02-21 02:54:00,55.8,46.5,30.03,NE,45,0.0,0.0,71,0.00,,---,0.00,VWS V14.01,2013-02-21 07:54:00,
2013-02-21 02:55:00,55.6,46.7,30.03,NE,45,0.0,0.0,72,0.00,,---,0.00,VWS V14.01,2013-02-21 07:55:00,
2013-02-21 02:56:00,55.8,46.9,30.03,NE,45,0.0,0.0,72,0.00,,---,0.00,VWS V14.01,2013-02-21 07:56:00,
2013-02-21 02:57:00,55.8,46.9,30.03,NE,45,0.0,0.0,72,0.00,,---,0.00,VWS V14.01,2013-02-21 07:57:00,
2013-02-21 02:58:00,55.6,46.7,30.03,NE,45,0.0,0.0,72,0.00,,---,0.00,VWS V14.01,2013-02-21 07:58:00,
2013-02-21 02:59:00,55.6,46.7,30.03,NE,45,0.0,0.0,72,0.00,,---,0.00,VWS V14.01,2013-02-21 07:59:00,
2013-02-21 03:00:00,55.6,46.7,30.03,NE,45,0.0,0.0,72,0.00,,---,0.00,VWS V14.01,2013-02-21 08:00:00,
2013-02-21 03:01:00,55.6,46.7,30.03,NE,45,0.0,0.0,72,0.00,,---,0.00,VWS V14.01,2013-02-21 08:01:00,
2013-02-21 03:02:00,55.6,46.7,30.03,NE,45,0.0,0.0,72,0.00,,---,0.00,VWS V14.01,2013-02-21 08:02:00,
2013-02-21 03:03:00,55.6,46.7,30.03,NE,45,0.0,0.0,72,0.00,,---,0.00,VWS V14.01,2013-02-21 08:03:00,
2013-02-21 03:04:00,55.6,46.7,30.03,NE,45,0.0,0.0,72,0.00,,---,0.00,VWS V14.01,2013-02-21 08:04:00,
2013-02-21 03:05:00,55.6,46.7,30.03,NE,45,0.0,0.0,72,0.00,,---,0.00,VWS V14.01,2013-02-21 08:05:00,
2013-02-21 03:06:00,55.6,46.7,30.03,NE,45,0.0,0.0,72,0.00,,---,0.00,VWS V14.01,2013-02-21 08:06:00,
2013-02-21 03:07:00,55.6,46.7,30.03,NE,45,0.0,0.0,72,0.00,,---,0.00,VWS V14.01,2013-02-21 08:07:00,
2013-02-21 03:08:00,55.6,46.7,30.03,NE,45,0.0,0.0,72,0.00,,---,0.00,VWS V14.01,2013-02-21 08:08:00,
2013-02-21 03:09:00,55.6,46.7,30.03,NE,45,0.0,0.0,72,0.00,,---,0.00,VWS V14.01,2013-02-21 08:09:00,
2013-02-21 03:10:00,55.6,47.1,30.03,NE,45,0.0,0.0,73,0.00,,---,0.00,VWS V14.01,2013-02-21 08:10:00,
2013-02-21 03:11:00,55.6,46.7,30.03,NE,45,0.0,0.0,72,0.00,,---,0.00,VWS V14.01,2013-02-21 08:11:00,
2013-02-21 03:12:00,55.6,46.7,30.03,NE,45,0.0,0.0,72,0.00,,---,0.00,VWS V14.01,2013-02-21 08:12:00,
2013-02-21 03:13:00,55.6,46.7,30.03,NE,45,0.0,0.0,72,0.00,,---,0.00,VWS V14.01,2013-02-21 08:13:00,
2013-02-21 03:14:00,55.6,46.7,30.03,NE,45,0.0,0.0,72,0.00,,---,0.00,VWS V14.01,2013-02-21 08:14:00,
2013-02-21 03:15:00,55.6,47.1,30.03,NE,45,0.0,0.0,73,0.00,,---,0.00,VWS V14.01,2013-02-21 08:15:00,
2013-02-21 03:16:00,55.6,47.1,30.03,NE,45,0.0,0.0,73,0.00,,---,0.00,VWS V14.01,2013-02-21 08:16:00,
2013-02-21 03:17:00,55.6,47.1,30.03,NE,45,0.0,0.0,73,0.00,,---,0.00,VWS V14.01,2013-02-21 08:17:00,
2013-02-21 03:18:00,55.4,46.9,30.03,NE,45,0.0,0.0,73,0.00,,---,0.00,VWS V14.01,2013-02-21 08:18:00,
2013-02-21 03:19:00,55.6,47.1,30.03,NE,45,0.0,0.0,73,0.00,,---,0.00,VWS V14.01,2013-02-21 08:19:00,
2013-02-21 03:20:00,55.4,46.9,30.03,NE,45,0.0,0.0,73,0.00,,---,0.00,VWS V14.01,2013-02-21 08:20:00,
2013-02-21 03:21:00,55.4,46.9,30.03,NE,45,0.0,0.0,73,0.00,,---,0.00,VWS V14.01,2013-02-21 08:21:00,
2013-02-21 03:22:00,55.6,47.1,30.03,NE,45,0.0,0.0,73,0.00,,---,0.00,VWS V14.01,2013-02-21 08:22:00,
2013-02-21 03:23:00,55.6,47.1,30.03,NE,45,0.0,0.0,73,0.00,,---,0.00,VWS V14.01,2013-02-21 08:23:00,
2013-02-21 03:24:00,55.6,47.1,30.03,NE,45,0.0,0.0,73,0.00,,---,0.00,VWS V14.01,2013-02-21 08:24:00,
2013-02-21 03:25:00,55.4,46.9,30.03,NE,45,0.0,0.0,73,0.00,,---,0.00,VWS V14.01,2013-02-21 08:25:00,
2013-02-21 03:26:00,55.6,47.1,30.03,NE,45,0.0,0.0,73,0.00,,---,0.00,VWS V14.01,2013-02-21 08:26:00,
2013-02-21 03:27:00,55.4,46.9,30.03,NE,45,0.0,0.0,73,0.00,,---,0.00,VWS V14.01,2013-02-21 08:27:00,
2013-02-21 03:28:00,55.4,46.9,30.03,NE,45,0.0,0.0,73,0.00,,---,0.00,VWS V14.01,2013-02-21 08:28:00,
2013-02-21 03:29:00,55.4,46.9,30.03,NE,45,0.0,0.0,73,0.00,,---,0.00,VWS V14.01,2013-02-21 08:29:00,
2013-02-21 03:30:00,55.4,47.3,30.03,NE,45,0.0,0.0,74,0.00,,---,0.00,VWS V14.01,2013-02-21 08:30:00,
2013-02-21 03:31:00,55.4,46.9,30.03,NE,45,0.0,0.0,73,0.00,,---,0.00,VWS V14.01,2013-02-21 08:31:00,
2013-02-21 03:32:00,55.4,46.9,30.03,NE,45,0.0,0.0,73,0.00,,---,0.00,VWS V14.01,2013-02-21 08:32:00,
2013-02-21 03:33:00,55.4,46.9,30.03,NE,45,0.0,0.0,73,0.00,,---,0.00,VWS V14.01,2013-02-21 08:33:00,
2013-02-21 03:34:00,55.4,46.9,30.03,NE,45,0.0,0.0,73,0.00,,---,0.00,VWS V14.01,2013-02-21 08:34:00,
2013-02-21 03:35:00,55.4,47.3,30.03,NE,45,0.0,0.0,74,0.00,,---,0.00,VWS V14.01,2013-02-21 08:35:00,
2013-02-21 03:36:00,55.4,46.9,30.03,NE,45,0.0,0.0,73,0.00,,---,0.00,VWS V14.01,2013-02-21 08:36:00,
2013-02-21 03:37:00,55.4,47.3,30.03,NE,45,0.0,0.0,74,0.00,,---,0.00,VWS V14.01,2013-02-21 08:37:00,
2013-02-21 03:38:00,55.4,47.3,30.03,NE,45,0.0,0.0,74,0.00,,---,0.00,VWS V14.01,2013-02-21 08:38:00,
2013-02-21 03:39:00,55.4,47.3,30.03,NE,45,0.0,0.0,74,0.00,,---,0.00,VWS V14.01,2013-02-21 08:39:00,
2013-02-21 03:40:00,55.2,47.1,30.03,NE,45,0.0,0.0,74,0.00,,---,0.00,VWS V14.01,2013-02-21 08:40:00,
2013-02-21 03:41:00,55.4,47.3,30.03,NE,45,0.0,0.0,74,0.00,,---,0.00,VWS V14.01,2013-02-21 08:41:00,
2013-02-21 03:42:00,55.4,47.3,30.03,NE,45,0.0,0.0,74,0.00,,---,0.00,VWS V14.01,2013-02-21 08:42:00,
2013-02-21 03:43:00,55.4,47.3,30.03,NE,45,0.0,0.0,74,0.00,,---,0.00,VWS V14.01,2013-02-21 08:43:00,
2013-02-21 03:44:00,55.4,47.3,30.03,NE,45,0.0,0.0,74,0.00,,---,0.00,VWS V14.01,2013-02-21 08:44:00,
2013-02-21 03:45:00,55.0,46.9,30.03,NE,45,0.0,0.0,74,0.00,,---,0.00,VWS V14.01,2013-02-21 08:45:00,
2013-02-21 03:46:00,55.2,47.1,30.03,NE,45,0.0,0.0,74,0.00,,---,0.00,VWS V14.01,2013-02-21 08:46:00,
2013-02-21 03:47:00,55.2,47.1,30.03,NE,45,0.0,0.0,74,0.00,,---,0.00,VWS V14.01,2013-02-21 08:47:00,
2013-02-21 03:48:00,55.2,47.1,30.03,NE,45,0.0,0.0,74,0.00,,---,0.00,VWS V14.01,2013-02-21 08:48:00,
2013-02-21 03:49:00,55.2,47.1,30.03,NE,45,0.0,0.0,74,0.00,,---,0.00,VWS V14.01,2013-02-21 08:49:00,
2013-02-21 03:50:00,55.2,47.5,30.03,NE,45,0.0,0.0,75,0.00,,---,0.00,VWS V14.01,2013-02-21 08:50:00,
2013-02-21 03:51:00,55.0,46.9,30.03,NE,45,0.0,0.0,74,0.00,,---,0.00,VWS V14.01,2013-02-21 08:51:00,
2013-02-21 03:52:00,55.0,47.3,30.03,NE,45,0.0,0.0,75,0.00,,---,0.00,VWS V14.01,2013-02-21 08:52:00,
2013-02-21 03:53:00,55.0,46.9,30.03,NE,45,0.0,0.0,74,0.00,,---,0.00,VWS V14.01,2013-02-21 08:53:00,
2013-02-21 03:54:00,55.0,46.9,30.03,NE,45,0.0,0.0,74,0.00,,---,0.00,VWS V14.01,2013-02-21 08:54:00,
2013-02-21 03:55:00,55.2,47.8,30.03,NE,45,0.0,0.0,76,0.00,,---,0.00,VWS V14.01,2013-02-21 08:55:00,
2013-02-21 03:56:00,55.0,47.3,30.03,NE,45,0.0,0.0,75,0.00,,---,0.00,VWS V14.01,2013-02-21 08:56:00,
2013-02-21 03:57:00,55.2,47.5,30.03,NE,45,0.0,0.0,75,0.00,,---,0.00,VWS V14.01,2013-02-21 08:57:00,
2013-02-21 03:58:00,55.2,47.5,30.03,NE,45,0.0,0.0,75,0.00,,---,0.00,VWS V14.01,2013-02-21 08:58:00,
2013-02-21 03:59:00,55.2,47.5,30.03,NE,45,0.0,0.0,75,0.00,,---,0.00,VWS V14.01,2013-02-21 08:59:00,
2013-02-21 04:00:00,55.4,48.0,30.03,NE,45,0.0,0.0,76,0.00,,---,0.00,VWS V14.01,2013-02-21 09:00:00,
2013-02-21 04:01:00,55.2,47.5,30.03,NE,45,0.0,0.0,75,0.00,,---,0.00,VWS V14.01,2013-02-21 09:01:00,
2013-02-21 04:02:00,55.2,47.5,30.03,NE,45,0.0,0.0,75,0.00,,---,0.00,VWS V14.01,2013-02-21 09:02:00,
2013-02-21 04:03:00,55.2,47.5,30.03,NE,45,0.0,0.0,75,0.00,,---,0.00,VWS V14.01,2013-02-21 09:03:00,
2013-02-21 04:04:00,55.2,47.8,30.03,NE,45,0.0,0.0,76,0.00,,---,0.00,VWS V14.01,2013-02-21 09:04:00,
2013-02-21 04:05:00,55.6,48.2,30.00,NE,45,0.0,0.0,76,0.00,,---,0.00,VWS V14.01,2013-02-21 09:05:00,
2013-02-21 04:06:00,55.2,47.8,30.03,NE,45,0.0,0.0,76,0.00,,---,0.00,VWS V14.01,2013-02-21 09:06:00,
2013-02-21 04:07:00,55.2,47.8,30.03,NE,45,0.0,0.0,76,0.00,,---,0.00,VWS V14.01,2013-02-21 09:07:00,
2013-02-21 04:08:00,55.4,47.6,30.03,NE,45,0.0,0.0,75,0.00,,---,0.00,VWS V14.01,2013-02-21 09:08:00,
2013-02-21 04:09:00,55.4,48.0,30.03,NE,45,0.0,0.0,76,0.00,,---,0.00,VWS V14.01,2013-02-21 09:09:00,
2013-02-21 04:10:00,55.6,48.2,30.00,NE,45,0.0,0.0,76,0.00,,---,0.00,VWS V14.01,2013-02-21 09:10:00,
2013-02-21 04:11:00,55.4,48.0,30.03,NE,45,0.0,0.0,76,0.00,,---,0.00,VWS V14.01,2013-02-21 09:11:00,
2013-02-21 04:12:00,55.4,48.0,30.03,NE,45,0.0,0.0,76,0.00,,---,0.00,VWS V14.01,2013-02-21 09:12:00,
2013-02-21 04:13:00,55.6,48.2,30.00,NE,45,0.0,0.0,76,0.00,,---,0.00,VWS V14.01,2013-02-21 09:13:00,
2013-02-21 04:14:00,55.6,48.2,30.00,NE,45,0.0,0.0,76,0.00,,---,0.00,VWS V14.01,2013-02-21 09:14:00,
2013-02-21 04:15:00,55.6,48.5,30.00,NE,45,0.0,0.0,77,0.00,,---,0.00,VWS V14.01,2013-02-21 09:15:00,
2013-02-21 04:16:00,55.6,48.2,30.00,NE,45,0.0,0.0,76,0.00,,---,0.00,VWS V14.01,2013-02-21 09:16:00,
2013-02-21 04:17:00,55.6,48.2,30.00,NE,45,0.0,0.0,76,0.00,,---,0.00,VWS V14.01,2013-02-21 09:17:00,
2013-02-21 04:18:00,55.6,48.2,30.00,NE,45,0.0,0.0,76,0.00,,---,0.00,VWS V14.01,2013-02-21 09:18:00,
2013-02-21 04:19:00,55.6,48.2,30.00,NE,45,0.0,0.0,76,0.00,,---,0.00,VWS V14.01,2013-02-21 09:19:00,
2013-02-21 04:20:00,55.8,48.7,30.03,NE,45,0.0,0.0,77,0.00,,---,0.00,VWS V14.01,2013-02-21 09:20:00,
2013-02-21 04:21:00,55.6,48.5,30.00,NE,45,0.0,0.0,77,0.00,,---,0.00,VWS V14.01,2013-02-21 09:21:00,
2013-02-21 04:22:00,55.6,48.5,30.00,NE,45,0.0,0.0,77,0.00,,---,0.00,VWS V14.01,2013-02-21 09:22:00,
2013-02-21 04:23:00,55.6,48.5,30.00,NE,45,0.0,0.0,77,0.00,,---,0.00,VWS V14.01,2013-02-21 09:23:00,
2013-02-21 04:24:00,55.6,48.5,30.00,NE,45,0.0,0.0,77,0.00,,---,0.00,VWS V14.01,2013-02-21 09:24:00,
2013-02-21 04:25:00,55.8,48.7,30.03,NE,45,0.0,0.0,77,0.00,,---,0.00,VWS V14.01,2013-02-21 09:25:00,
2013-02-21 04:26:00,55.6,48.5,30.00,NE,45,0.0,0.0,77,0.00,,---,0.00,VWS V14.01,2013-02-21 09:26:00,
2013-02-21 04:27:00,55.6,48.5,30.00,NE,45,0.0,0.0,77,0.00,,---,0.00,VWS V14.01,2013-02-21 09:27:00,
2013-02-21 04:28:00,55.8,48.7,30.03,NE,45,0.0,0.0,77,0.00,,---,0.00,VWS V14.01,2013-02-21 09:28:00,
2013-02-21 04:29:00,55.8,48.7,30.03,NE,45,0.0,0.0,77,0.00,,---,0.00,VWS V14.01,2013-02-21 09:29:00,
2013-02-21 04:30:00,55.8,48.7,30.03,NE,45,0.0,0.0,77,0.00,,---,0.00,VWS V14.01,2013-02-21 09:30:00,
2013-02-21 04:31:00,55.8,48.7,30.03,NE,45,0.0,0.0,77,0.00,,---,0.00,VWS V14.01,2013-02-21 09:31:00,
2013-02-21 04:32:00,55.8,48.7,30.03,NE,45,0.0,0.0,77,0.00,,---,0.00,VWS V14.01,2013-02-21 09:32:00,
2013-02-21 04:33:00,55.8,48.7,30.03,NE,45,0.0,0.0,77,0.00,,---,0.00,VWS V14.01,2013-02-21 09:33:00,
2013-02-21 04:34:00,55.8,48.7,30.03,NE,45,0.0,0.0,77,0.00,,---,0.00,VWS V14.01,2013-02-21 09:34:00,
2013-02-21 04:35:00,55.9,48.8,30.03,ENE,68,0.0,0.0,77,0.00,,---,0.00,VWS V14.01,2013-02-21 09:35:00,
2013-02-21 04:36:00,55.9,48.8,30.03,NE,45,0.0,0.0,77,0.00,,---,0.00,VWS V14.01,2013-02-21 09:36:00,
2013-02-21 04:37:00,55.8,48.7,30.03,NE,45,0.0,0.0,77,0.00,,---,0.00,VWS V14.01,2013-02-21 09:37:00,
2013-02-21 04:38:00,55.8,48.7,30.03,NE,45,0.0,0.0,77,0.00,,---,0.00,VWS V14.01,2013-02-21 09:38:00,
2013-02-21 04:39:00,55.8,48.7,30.03,NE,45,0.0,0.0,77,0.00,,---,0.00,VWS V14.01,2013-02-21 09:39:00,
2013-02-21 04:40:00,55.9,48.8,30.03,ENE,68,0.0,0.0,77,0.00,,---,0.00,VWS V14.01,2013-02-21 09:40:00,
2013-02-21 04:41:00,55.9,48.8,30.03,ENE,68,0.0,0.0,77,0.00,,---,0.00,VWS V14.01,2013-02-21 09:41:00,
2013-02-21 04:42:00,55.9,48.8,30.03,ENE,68,0.0,0.0,77,0.00,,---,0.00,VWS V14.01,2013-02-21 09:42:00,
2013-02-21 04:43:00,55.9,48.8,30.03,ENE,68,0.0,0.0,77,0.00,,---,0.00,VWS V14.01,2013-02-21 09:43:00,
2013-02-21 04:44:00,55.9,48.8,30.03,ENE,68,0.0,0.0,77,0.00,,---,0.00,VWS V14.01,2013-02-21 09:44:00,
2013-02-21 04:45:00,55.9,48.8,30.03,ENE,68,0.0,0.0,77,0.00,,---,0.00,VWS V14.01,2013-02-21 09:45:00,
2013-02-21 04:46:00,55.9,48.8,30.03,ENE,68,0.0,0.0,77,0.00,,---,0.00,VWS V14.01,2013-02-21 09:46:00,
2013-02-21 04:47:00,55.9,48.8,30.03,ENE,68,0.0,0.0,77,0.00,,---,0.00,VWS V14.01,2013-02-21 09:47:00,
2013-02-21 04:48:00,55.9,48.8,30.03,ENE,68,0.0,0.0,77,0.00,,---,0.00,VWS V14.01,2013-02-21 09:48:00,
2013-02-21 04:49:00,55.9,48.8,30.03,ENE,68,0.0,0.0,77,0.00,,---,0.00,VWS V14.01,2013-02-21 09:49:00,
2013-02-21 04:50:00,55.8,48.7,30.03,ENE,68,0.0,0.0,77,0.00,,---,0.00,VWS V14.01,2013-02-21 09:50:00,
2013-02-21 04:51:00,55.9,48.8,30.03,ENE,68,0.0,0.0,77,0.00,,---,0.00,VWS V14.01,2013-02-21 09:51:00,
2013-02-21 04:52:00,55.9,48.8,30.03,ENE,68,0.0,0.0,77,0.00,,---,0.00,VWS V14.01,2013-02-21 09:52:00,
2013-02-21 04:53:00,55.9,48.8,30.03,ENE,68,0.0,0.0,77,0.00,,---,0.00,VWS V14.01,2013-02-21 09:53:00,
2013-02-21 04:54:00,55.9,48.8,30.03,ENE,68,0.0,0.0,77,0.00,,---,0.00,VWS V14.01,2013-02-21 09:54:00,
2013-02-21 04:55:00,55.8,48.7,30.03,ENE,68,0.0,0.0,77,0.00,,---,0.00,VWS V14.01,2013-02-21 09:55:00,
2013-02-21 04:56:00,55.9,48.8,30.03,ENE,68,0.0,0.0,77,0.00,,---,0.00,VWS V14.01,2013-02-21 09:56:00,
2013-02-21 04:57:00,55.9,48.8,30.03,ENE,68,0.0,0.0,77,0.00,,---,0.00,VWS V14.01,2013-02-21 09:57:00,
2013-02-21 04:58:00,55.9,48.8,30.03,ENE,68,0.0,0.0,77,0.00,,---,0.00,VWS V14.01,2013-02-21 09:58:00,
2013-02-21 04:59:00,55.8,48.7,30.03,ENE,68,0.0,0.0,77,0.00,,---,0.00,VWS V14.01,2013-02-21 09:59:00,
2013-02-21 05:00:00,55.6,48.5,30.03,ENE,68,0.0,0.0,77,0.00,,---,0.00,VWS V14.01,2013-02-21 10:00:00,
2013-02-21 05:01:00,55.8,48.7,30.03,ENE,68,0.0,0.0,77,0.00,,---,0.00,VWS V14.01,2013-02-21 10:01:00,
2013-02-21 05:02:00,55.8,48.7,30.03,ENE,68,0.0,0.0,77,0.00,,---,0.00,VWS V14.01,2013-02-21 10:02:00,
2013-02-21 05:03:00,55.8,48.7,30.03,ENE,68,0.0,0.0,77,0.00,,---,0.00,VWS V14.01,2013-02-21 10:03:00,
2013-02-21 05:04:00,55.8,48.7,30.03,ENE,68,0.0,0.0,77,0.00,,---,0.00,VWS V14.01,2013-02-21 10:04:00,
2013-02-21 05:05:00,55.6,48.8,30.03,ENE,68,0.0,0.0,78,0.00,,---,0.00,VWS V14.01,2013-02-21 10:05:00,
2013-02-21 05:06:00,55.6,48.8,30.03,ENE,68,0.0,0.0,78,0.00,,---,0.00,VWS V14.01,2013-02-21 10:06:00,
2013-02-21 05:07:00,55.6,48.8,30.03,ENE,68,0.0,0.0,78,0.00,,---,0.00,VWS V14.01,2013-02-21 10:07:00,
2013-02-21 05:08:00,55.6,48.8,30.03,ENE,68,0.0,0.0,78,0.00,,---,0.00,VWS V14.01,2013-02-21 10:08:00,
2013-02-21 05:09:00,55.6,48.5,30.03,ENE,68,0.0,0.0,77,0.00,,---,0.00,VWS V14.01,2013-02-21 10:09:00,
2013-02-21 05:10:00,55.8,49.0,30.03,ENE,68,0.0,0.0,78,0.00,,---,0.00,VWS V14.01,2013-02-21 10:10:00,
2013-02-21 05:11:00,55.6,48.8,30.03,ENE,68,0.0,0.0,78,0.00,,---,0.00,VWS V14.01,2013-02-21 10:11:00,
2013-02-21 05:12:00,55.6,48.8,30.03,ENE,68,0.0,0.0,78,0.00,,---,0.00,VWS V14.01,2013-02-21 10:12:00,
2013-02-21 05:13:00,55.6,48.8,30.03,ENE,68,0.0,0.0,78,0.00,,---,0.00,VWS V14.01,2013-02-21 10:13:00,
2013-02-21 05:14:00,55.6,48.8,30.03,ENE,68,0.0,0.0,78,0.00,,---,0.00,VWS V14.01,2013-02-21 10:14:00,
2013-02-21 05:15:00,55.8,49.4,30.03,ENE,68,0.0,0.0,79,0.00,,---,0.00,VWS V14.01,2013-02-21 10:15:00,
2013-02-21 05:16:00,55.6,48.8,30.03,ENE,68,0.0,0.0,78,0.00,,---,0.00,VWS V14.01,2013-02-21 10:16:00,
2013-02-21 05:17:00,55.6,48.8,30.03,ENE,68,0.0,0.0,78,0.00,,---,0.00,VWS V14.01,2013-02-21 10:17:00,
2013-02-21 05:18:00,55.8,49.0,30.03,ENE,68,0.0,0.0,78,0.00,,---,0.00,VWS V14.01,2013-02-21 10:18:00,
2013-02-21 05:19:00,55.8,49.0,30.03,ENE,68,0.0,0.0,78,0.00,,---,0.00,VWS V14.01,2013-02-21 10:19:00,
2013-02-21 05:20:00,55.9,49.5,30.03,NNE,22,0.0,0.0,79,0.00,,---,0.00,VWS V14.01,2013-02-21 10:20:00,
2013-02-21 05:21:00,55.8,49.4,30.03,ENE,68,0.0,0.0,79,0.00,,---,0.00,VWS V14.01,2013-02-21 10:21:00,
2013-02-21 05:22:00,55.8,49.4,30.03,ENE,68,0.0,0.0,79,0.00,,---,0.00,VWS V14.01,2013-02-21 10:22:00,
2013-02-21 05:23:00,55.8,49.4,30.03,ENE,68,0.0,0.0,79,0.00,,---,0.00,VWS V14.01,2013-02-21 10:23:00,
2013-02-21 05:24:00,55.8,49.4,30.03,ENE,68,0.0,0.0,79,0.00,,---,0.00,VWS V14.01,2013-02-21 10:24:00,
2013-02-21 05:25:00,55.9,49.5,30.03,NNE,22,0.0,0.0,79,0.00,,---,0.00,VWS V14.01,2013-02-21 10:25:00,
2013-02-21 05:26:00,55.8,49.4,30.03,ENE,68,0.0,0.0,79,0.00,,---,0.00,VWS V14.01,2013-02-21 10:26:00,
2013-02-21 05:27:00,55.9,49.5,30.03,NNE,22,0.0,0.0,79,0.00,,---,0.00,VWS V14.01,2013-02-21 10:27:00,
2013-02-21 05:28:00,55.9,49.5,30.03,NNE,22,0.0,0.0,79,0.00,,---,0.00,VWS V14.01,2013-02-21 10:28:00,
2013-02-21 05:29:00,56.1,49.7,30.03,ENE,68,0.0,0.0,79,0.00,,---,0.00,VWS V14.01,2013-02-21 10:29:00,
2013-02-21 05:30:00,55.9,49.5,30.03,NNE,22,0.0,0.0,79,0.00,,---,0.00,VWS V14.01,2013-02-21 10:30:00,
2013-02-21 05:31:00,55.9,49.5,30.03,NNE,22,0.0,0.0,79,0.00,,---,0.00,VWS V14.01,2013-02-21 10:31:00,
2013-02-21 05:32:00,55.9,49.5,30.03,NNE,22,0.0,0.0,79,0.00,,---,0.00,VWS V14.01,2013-02-21 10:32:00,
2013-02-21 05:33:00,55.9,49.5,30.03,NNE,22,0.0,0.0,79,0.00,,---,0.00,VWS V14.01,2013-02-21 10:33:00,
2013-02-21 05:34:00,56.3,50.2,30.03,NNE,22,0.0,0.0,80,0.00,,---,0.00,VWS V14.01,2013-02-21 10:34:00,
2013-02-21 05:35:00,55.9,49.5,30.03,ENE,68,0.0,0.0,79,0.00,,---,0.00,VWS V14.01,2013-02-21 10:35:00,
2013-02-21 05:36:00,55.9,49.5,30.03,ENE,68,0.0,0.0,79,0.00,,---,0.00,VWS V14.01,2013-02-21 10:36:00,
2013-02-21 05:37:00,55.9,49.5,30.03,ENE,68,0.0,0.0,79,0.00,,---,0.00,VWS V14.01,2013-02-21 10:37:00,
2013-02-21 05:38:00,56.1,49.7,30.03,ENE,68,0.0,0.0,79,0.00,,---,0.00,VWS V14.01,2013-02-21 10:38:00,
2013-02-21 05:39:00,56.7,50.6,30.03,NNE,22,0.0,0.0,80,0.00,,---,0.00,VWS V14.01,2013-02-21 10:39:00,
2013-02-21 05:40:00,56.1,50.0,30.03,ENE,68,0.0,0.0,80,0.00,,---,0.00,VWS V14.01,2013-02-21 10:40:00,
2013-02-21 05:41:00,56.1,50.0,30.03,ENE,68,0.0,0.0,80,0.00,,---,0.00,VWS V14.01,2013-02-21 10:41:00,
2013-02-21 05:42:00,56.1,50.0,30.03,NNE,22,0.0,0.0,80,0.00,,---,0.00,VWS V14.01,2013-02-21 10:42:00,
2013-02-21 05:43:00,56.3,50.2,30.03,NNE,22,0.0,0.0,80,0.00,,---,0.00,VWS V14.01,2013-02-21 10:43:00,
2013-02-21 05:44:00,56.3,50.2,30.03,NNE,22,0.0,0.0,80,0.00,,---,0.00,VWS V14.01,2013-02-21 10:44:00,
2013-02-21 05:45:00,56.7,50.9,30.03,NNE,22,0.0,0.0,81,0.00,,---,0.00,VWS V14.01,2013-02-21 10:45:00,
2013-02-21 05:46:00,56.3,50.2,30.03,NNE,22,0.0,0.0,80,0.00,,---,0.00,VWS V14.01,2013-02-21 10:46:00,
2013-02-21 05:47:00,56.5,50.4,30.03,NNE,22,0.0,0.0,80,0.00,,---,0.00,VWS V14.01,2013-02-21 10:47:00,
2013-02-21 05:48:00,56.7,50.6,30.03,NNE,22,0.0,0.0,80,0.00,,---,0.00,VWS V14.01,2013-02-21 10:48:00,
2013-02-21 05:49:00,56.7,50.6,30.03,NNE,22,0.0,0.0,80,0.00,,---,0.00,VWS V14.01,2013-02-21 10:49:00,
2013-02-21 05:50:00,56.8,51.1,30.06,ENE,68,0.0,0.0,81,0.00,,---,0.00,VWS V14.01,2013-02-21 10:50:00,
2013-02-21 05:51:00,56.7,50.9,30.03,NNE,22,0.0,0.0,81,0.00,,---,0.00,VWS V14.01,2013-02-21 10:51:00,
2013-02-21 05:52:00,56.7,50.9,30.03,NNE,22,0.0,0.0,81,0.00,,---,0.00,VWS V14.01,2013-02-21 10:52:00,
2013-02-21 05:53:00,56.7,50.9,30.03,NNE,22,0.0,0.0,81,0.00,,---,0.00,VWS V14.01,2013-02-21 10:53:00,
2013-02-21 05:54:00,56.7,50.9,30.03,NNE,22,0.0,0.0,81,0.00,,---,0.00,VWS V14.01,2013-02-21 10:54:00,
2013-02-21 05:55:00,56.8,51.1,30.06,ENE,68,0.0,0.0,81,0.00,,---,0.00,VWS V14.01,2013-02-21 10:55:00,
2013-02-21 05:56:00,56.7,50.9,30.03,NNE,22,0.0,0.0,81,0.00,,---,0.00,VWS V14.01,2013-02-21 10:56:00,
2013-02-21 05:57:00,56.8,51.1,30.03,ENE,68,0.0,0.0,81,0.00,,---,0.00,VWS V14.01,2013-02-21 10:57:00,
2013-02-21 05:58:00,56.8,51.1,30.06,ENE,68,0.0,0.0,81,0.00,,---,0.00,VWS V14.01,2013-02-21 10:58:00,
2013-02-21 05:59:00,56.8,51.1,30.06,ENE,68,0.0,0.0,81,0.00,,---,0.00,VWS V14.01,2013-02-21 10:59:00,
2013-02-21 06:00:00,57.0,50.9,30.06,ENE,68,0.0,0.0,80,0.00,,---,0.00,VWS V14.01,2013-02-21 11:00:00,
2013-02-21 06:01:00,56.8,51.1,30.06,ENE,68,0.0,0.0,81,0.00,,---,0.00,VWS V14.01,2013-02-21 11:01:00,
2013-02-21 06:02:00,56.8,51.1,30.06,ENE,68,0.0,0.0,81,0.00,,---,0.00,VWS V14.01,2013-02-21 11:02:00,
2013-02-21 06:03:00,56.8,51.1,30.06,ENE,68,0.0,0.0,81,0.00,,---,0.00,VWS V14.01,2013-02-21 11:03:00,
2013-02-21 06:04:00,56.8,51.1,30.06,ENE,68,0.0,0.0,81,0.00,,---,0.00,VWS V14.01,2013-02-21 11:04:00,
2013-02-21 06:05:00,57.2,51.1,30.03,ENE,68,0.0,2.2,80,0.00,,---,0.00,VWS V14.01,2013-02-21 11:05:00,
2013-02-21 06:06:00,57.0,51.3,30.06,ENE,68,0.0,0.0,81,0.00,,---,0.00,VWS V14.01,2013-02-21 11:06:00,
2013-02-21 06:07:00,57.0,51.3,30.06,ENE,68,0.0,0.0,81,0.00,,---,0.00,VWS V14.01,2013-02-21 11:07:00,
2013-02-21 06:08:00,57.0,50.9,30.06,ENE,68,0.0,0.0,80,0.00,,---,0.00,VWS V14.01,2013-02-21 11:08:00,
2013-02-21 06:09:00,57.0,50.9,30.06,ENE,68,0.0,0.0,80,0.00,,---,0.00,VWS V14.01,2013-02-21 11:09:00,
2013-02-21 06:10:00,57.2,51.1,30.03,ENE,68,0.0,0.0,80,0.00,,---,0.00,VWS V14.01,2013-02-21 11:10:00,
2013-02-21 06:11:00,57.2,51.1,30.06,ENE,68,0.0,0.0,80,0.00,,---,0.00,VWS V14.01,2013-02-21 11:11:00,
2013-02-21 06:12:00,57.2,51.1,30.06,ENE,68,0.0,0.0,80,0.00,,---,0.00,VWS V14.01,2013-02-21 11:12:00,
2013-02-21 06:13:00,57.2,51.1,30.03,ENE,68,0.0,0.0,80,0.00,,---,0.00,VWS V14.01,2013-02-21 11:13:00,
2013-02-21 06:14:00,57.2,51.1,30.03,ENE,68,0.0,2.2,80,0.00,,---,0.00,VWS V14.01,2013-02-21 11:14:00,
2013-02-21 06:15:00,57.2,51.1,30.03,ENE,68,0.0,0.0,80,0.00,,---,0.00,VWS V14.01,2013-02-21 11:15:00,
2013-02-21 06:16:00,57.2,51.1,30.03,ENE,68,0.0,0.0,80,0.00,,---,0.00,VWS V14.01,2013-02-21 11:16:00,
2013-02-21 06:17:00,57.2,51.1,30.03,ENE,68,0.0,0.0,80,0.00,,---,0.00,VWS V14.01,2013-02-21 11:17:00,
2013-02-21 06:18:00,57.2,51.1,30.03,ENE,68,0.0,0.0,80,0.00,,---,0.00,VWS V14.01,2013-02-21 11:18:00,
2013-02-21 06:19:00,57.2,51.1,30.03,ENE,68,0.0,0.0,80,0.00,,---,0.00,VWS V14.01,2013-02-21 11:19:00,
2013-02-21 06:20:00,57.4,51.3,30.06,ENE,68,0.0,0.0,80,0.00,,---,0.00,VWS V14.01,2013-02-21 11:20:00,
2013-02-21 06:21:00,57.2,51.1,30.03,East,90,0.0,0.0,80,0.00,,---,0.00,VWS V14.01,2013-02-21 11:21:00,
2013-02-21 06:22:00,57.2,51.1,30.03,ENE,68,0.0,0.0,80,0.00,,---,0.00,VWS V14.01,2013-02-21 11:22:00,
2013-02-21 06:23:00,57.2,51.1,30.03,ENE,68,0.0,0.0,80,0.00,,---,0.00,VWS V14.01,2013-02-21 11:23:00,
2013-02-21 06:24:00,57.4,51.3,30.06,ENE,68,0.0,0.0,80,0.00,,---,0.00,VWS V14.01,2013-02-21 11:24:00,
2013-02-21 06:25:00,57.2,51.1,30.03,ENE,68,0.0,0.0,80,0.00,,---,0.00,VWS V14.01,2013-02-21 11:25:00,
2013-02-21 06:26:00,57.2,51.1,30.03,ENE,68,0.0,0.0,80,0.00,,---,0.00,VWS V14.01,2013-02-21 11:26:00,
2013-02-21 06:27:00,57.2,51.1,30.03,ENE,68,0.0,0.0,80,0.00,,---,0.00,VWS V14.01,2013-02-21 11:27:00,
2013-02-21 06:28:00,57.4,51.3,30.06,ENE,68,0.0,0.0,80,0.00,,---,0.00,VWS V14.01,2013-02-21 11:28:00,
2013-02-21 06:29:00,57.2,50.8,30.06,ENE,68,0.0,0.0,79,0.00,,---,0.00,VWS V14.01,2013-02-21 11:29:00,
2013-02-21 06:30:00,57.2,51.1,30.06,ENE,68,0.0,0.0,80,0.00,,---,0.00,VWS V14.01,2013-02-21 11:30:00,
2013-02-21 06:31:00,57.2,51.1,30.06,ENE,68,0.0,0.0,80,0.00,,---,0.00,VWS V14.01,2013-02-21 11:31:00,
2013-02-21 06:32:00,57.4,51.3,30.06,ENE,68,0.0,0.0,80,0.00,,---,0.00,VWS V14.01,2013-02-21 11:32:00,
2013-02-21 06:33:00,57.4,51.3,30.06,ENE,68,0.0,0.0,80,0.00,,---,0.00,VWS V14.01,2013-02-21 11:33:00,
2013-02-21 06:34:00,57.4,50.9,30.06,ENE,68,0.0,0.0,79,0.00,,---,0.00,VWS V14.01,2013-02-21 11:34:00,
2013-02-21 06:35:00,57.4,51.3,30.06,ENE,68,0.0,0.0,80,0.00,,---,0.00,VWS V14.01,2013-02-21 11:35:00,
2013-02-21 06:36:00,57.2,50.8,30.06,ENE,68,0.0,0.0,79,0.00,,---,0.00,VWS V14.01,2013-02-21 11:36:00,
2013-02-21 06:37:00,57.4,50.9,30.06,ENE,68,0.0,0.0,79,0.00,,---,0.00,VWS V14.01,2013-02-21 11:37:00,
2013-02-21 06:38:00,57.2,50.8,30.06,ENE,68,0.0,0.0,79,0.00,,---,0.00,VWS V14.01,2013-02-21 11:38:00,
2013-02-21 06:39:00,57.2,50.8,30.06,East,90,0.0,0.0,79,0.00,,---,0.00,VWS V14.01,2013-02-21 11:39:00,
2013-02-21 06:40:00,57.4,50.9,30.06,ENE,68,0.0,0.0,79,0.00,,---,0.00,VWS V14.01,2013-02-21 11:40:00,
2013-02-21 06:41:00,57.4,50.9,30.06,ENE,68,0.0,0.0,79,0.00,,---,0.00,VWS V14.01,2013-02-21 11:41:00,
2013-02-21 06:42:00,57.4,50.9,30.06,ENE,68,0.0,0.0,79,0.00,,---,0.00,VWS V14.01,2013-02-21 11:42:00,
2013-02-21 06:43:00,57.4,50.9,30.06,ENE,68,0.0,0.0,79,0.00,,---,0.00,VWS V14.01,2013-02-21 11:43:00,
2013-02-21 06:44:00,57.2,50.8,30.06,ESE,112,0.0,0.0,79,0.00,,---,0.00,VWS V14.01,2013-02-21 11:44:00,
2013-02-21 06:45:00,57.2,50.8,30.06,ENE,68,0.0,0.0,79,0.00,,---,0.00,VWS V14.01,2013-02-21 11:45:00,
2013-02-21 06:46:00,57.2,50.8,30.06,ENE,68,0.0,0.0,79,0.00,,---,0.00,VWS V14.01,2013-02-21 11:46:00,
2013-02-21 06:47:00,57.2,50.8,30.06,ENE,68,0.0,0.0,79,0.00,,---,0.00,VWS V14.01,2013-02-21 11:47:00,
2013-02-21 06:48:00,57.2,50.8,30.06,East,90,0.0,0.0,79,0.00,,---,0.00,VWS V14.01,2013-02-21 11:48:00,
2013-02-21 06:49:00,57.2,50.8,30.06,ESE,112,0.0,0.0,79,0.00,,---,0.00,VWS V14.01,2013-02-21 11:49:00,
2013-02-21 06:50:00,57.2,50.8,30.06,East,90,0.0,0.0,79,0.00,,---,0.00,VWS V14.01,2013-02-21 11:50:00,
2013-02-21 06:51:00,57.2,50.8,30.06,East,90,0.0,0.0,79,0.00,,---,0.00,VWS V14.01,2013-02-21 11:51:00,
2013-02-21 06:52:00,57.2,50.8,30.06,East,90,0.0,0.0,79,0.00,,---,0.00,VWS V14.01,2013-02-21 11:52:00,
2013-02-21 06:53:00,57.2,50.8,30.06,ESE,112,0.0,0.0,79,0.00,,---,0.00,VWS V14.01,2013-02-21 11:53:00,
2013-02-21 06:54:00,57.2,50.8,30.06,ESE,112,0.0,0.0,79,0.00,,---,0.00,VWS V14.01,2013-02-21 11:54:00,
2013-02-21 06:55:00,57.2,50.8,30.06,ESE,112,0.0,0.0,79,0.00,,---,0.00,VWS V14.01,2013-02-21 11:55:00,
2013-02-21 06:56:00,57.2,50.8,30.06,ESE,112,0.0,0.0,79,0.00,,---,0.00,VWS V14.01,2013-02-21 11:56:00,
2013-02-21 06:57:00,57.2,50.8,30.06,ESE,112,0.0,0.0,79,0.00,,---,0.00,VWS V14.01,2013-02-21 11:57:00,
2013-02-21 06:58:00,57.2,50.8,30.06,ESE,112,0.0,0.0,79,0.00,,---,0.00,VWS V14.01,2013-02-21 11:58:00,
2013-02-21 06:59:00,57.2,50.8,30.06,ESE,112,0.0,0.0,79,0.00,,---,0.00,VWS V14.01,2013-02-21 11:59:00,
2013-02-21 07:00:00,57.2,50.8,30.06,ESE,112,0.0,0.0,79,0.00,,---,0.00,VWS V14.01,2013-02-21 12:00:00,
2013-02-21 07:01:00,57.2,50.8,30.06,ESE,112,0.0,0.0,79,0.00,,---,0.00,VWS V14.01,2013-02-21 12:01:00,
2013-02-21 07:02:00,57.4,50.9,30.06,ESE,112,0.0,0.0,79,0.00,,---,0.00,VWS V14.01,2013-02-21 12:02:00,
2013-02-21 07:03:00,57.2,50.8,30.06,ESE,112,0.0,0.0,79,0.00,,---,0.00,VWS V14.01,2013-02-21 12:03:00,
2013-02-21 07:04:00,57.2,50.8,30.06,NNE,22,0.0,0.0,79,0.00,,---,0.00,VWS V14.01,2013-02-21 12:04:00,
2013-02-21 07:05:00,57.2,50.8,30.06,ESE,112,0.0,0.0,79,0.00,,---,0.00,VWS V14.01,2013-02-21 12:05:00,
2013-02-21 07:06:00,57.2,50.8,30.06,ESE,112,0.0,0.0,79,0.00,,---,0.00,VWS V14.01,2013-02-21 12:06:00,
2013-02-21 07:07:00,57.2,50.8,30.06,ESE,112,0.0,0.0,79,0.00,,---,0.00,VWS V14.01,2013-02-21 12:07:00,
2013-02-21 07:08:00,57.2,50.8,30.06,ESE,112,0.0,0.0,79,0.00,,---,0.00,VWS V14.01,2013-02-21 12:08:00,
2013-02-21 07:09:00,57.4,50.9,30.03,NE,45,0.0,0.0,79,0.00,,---,0.00,VWS V14.01,2013-02-21 12:09:00,
2013-02-21 07:10:00,57.2,50.8,30.06,ESE,112,0.0,0.0,79,0.00,,---,0.00,VWS V14.01,2013-02-21 12:10:00,
2013-02-21 07:11:00,57.2,50.8,30.06,ESE,112,0.0,0.0,79,0.00,,---,0.00,VWS V14.01,2013-02-21 12:11:00,
2013-02-21 07:12:00,57.2,50.8,30.06,ESE,112,0.0,0.0,79,0.00,,---,0.00,VWS V14.01,2013-02-21 12:12:00,
2013-02-21 07:13:00,57.2,50.8,30.06,NNE,22,0.0,0.0,79,0.00,,---,0.00,VWS V14.01,2013-02-21 12:13:00,
2013-02-21 07:14:00,57.4,51.3,30.03,ESE,112,0.0,0.0,80,0.00,,---,0.00,VWS V14.01,2013-02-21 12:14:00,
2013-02-21 07:15:00,57.2,50.8,30.03,NNE,22,0.0,0.0,79,0.00,,---,0.00,VWS V14.01,2013-02-21 12:15:00,
2013-02-21 07:16:00,57.2,50.8,30.03,NNE,22,0.0,0.0,79,0.00,,---,0.00,VWS V14.01,2013-02-21 12:16:00,
2013-02-21 07:17:00,57.2,50.8,30.03,NE,45,0.0,0.0,79,0.00,,---,0.00,VWS V14.01,2013-02-21 12:17:00,
2013-02-21 07:18:00,57.4,50.9,30.03,NE,45,0.0,0.0,79,0.00,,---,0.00,VWS V14.01,2013-02-21 12:18:00,
2013-02-21 07:19:00,57.6,51.5,30.06,ESE,112,0.0,0.0,80,0.00,,---,0.00,VWS V14.01,2013-02-21 12:19:00,
2013-02-21 07:20:00,57.4,51.3,30.03,NE,45,0.0,0.0,80,0.00,,---,0.00,VWS V14.01,2013-02-21 12:20:00,
2013-02-21 07:21:00,57.4,51.3,30.03,NE,45,0.0,0.0,80,0.00,,---,0.00,VWS V14.01,2013-02-21 12:21:00,
2013-02-21 07:22:00,57.4,51.3,30.03,East,90,0.0,0.0,80,0.00,,---,0.00,VWS V14.01,2013-02-21 12:22:00,
2013-02-21 07:23:00,57.4,51.3,30.03,ESE,112,0.0,0.0,80,0.00,,---,0.00,VWS V14.01,2013-02-21 12:23:00,
2013-02-21 07:24:00,57.7,51.6,30.06,NE,45,0.0,0.0,80,0.00,,---,0.00,VWS V14.01,2013-02-21 12:24:00,
2013-02-21 07:25:00,57.6,51.5,30.03,East,90,0.0,0.0,80,0.00,,---,0.00,VWS V14.01,2013-02-21 12:25:00,
2013-02-21 07:26:00,57.6,51.5,30.03,East,90,0.0,0.0,80,0.00,,---,0.00,VWS V14.01,2013-02-21 12:26:00,
2013-02-21 07:27:00,57.6,51.5,30.03,ENE,68,0.0,0.0,80,0.00,,---,0.00,VWS V14.01,2013-02-21 12:27:00,
2013-02-21 07:28:00,57.6,51.5,30.06,NNE,22,0.0,0.0,80,0.00,,---,0.00,VWS V14.01,2013-02-21 12:28:00,
2013-02-21 07:29:00,57.7,51.6,30.06,NNE,22,0.0,0.0,80,0.00,,---,0.00,VWS V14.01,2013-02-21 12:29:00,
2013-02-21 07:30:00,57.7,51.6,30.06,ENE,68,0.0,0.0,80,0.00,,---,0.00,VWS V14.01,2013-02-21 12:30:00,
2013-02-21 07:31:00,57.7,51.6,30.06,ENE,68,0.0,0.0,80,0.00,,---,0.00,VWS V14.01,2013-02-21 12:31:00,
2013-02-21 07:32:00,57.7,51.6,30.06,ENE,68,0.0,0.0,80,0.00,,---,0.00,VWS V14.01,2013-02-21 12:32:00,
2013-02-21 07:33:00,57.7,51.6,30.06,NNE,22,0.0,0.0,80,0.00,,---,0.00,VWS V14.01,2013-02-21 12:33:00,
2013-02-21 07:34:00,57.7,51.6,30.09,ESE,112,0.0,0.9,80,0.00,,---,0.00,VWS V14.01,2013-02-21 12:34:00,
2013-02-21 07:35:00,57.7,51.6,30.06,NE,45,0.0,0.0,80,0.00,,---,0.00,VWS V14.01,2013-02-21 12:35:00,
2013-02-21 07:36:00,57.7,51.6,30.06,NE,45,0.0,0.0,80,0.00,,---,0.00,VWS V14.01,2013-02-21 12:36:00,
2013-02-21 07:37:00,57.7,51.6,30.06,NE,45,0.0,0.0,80,0.00,,---,0.00,VWS V14.01,2013-02-21 12:37:00,
2013-02-21 07:38:00,57.7,51.6,30.06,NE,45,0.0,0.0,80,0.00,,---,0.00,VWS V14.01,2013-02-21 12:38:00,
2013-02-21 07:39:00,57.7,51.6,30.09,NNE,22,0.0,0.0,80,0.00,,---,0.00,VWS V14.01,2013-02-21 12:39:00,
2013-02-21 07:40:00,57.7,51.6,30.06,East,90,1.3,2.5,80,0.00,,---,0.00,VWS V14.01,2013-02-21 12:40:00,
2013-02-21 07:41:00,57.7,51.6,30.06,ESE,112,0.0,1.3,80,0.00,,---,0.00,VWS V14.01,2013-02-21 12:41:00,
2013-02-21 07:42:00,57.7,51.6,30.06,NE,45,0.0,0.0,80,0.00,,---,0.00,VWS V14.01,2013-02-21 12:42:00,
2013-02-21 07:43:00,57.7,51.6,30.09,East,90,0.9,0.9,80,0.00,,---,0.00,VWS V14.01,2013-02-21 12:43:00,
2013-02-21 07:44:00,57.7,51.6,30.09,ENE,68,0.0,0.0,80,0.00,,---,0.00,VWS V14.01,2013-02-21 12:44:00,
2013-02-21 07:45:00,57.7,51.6,30.09,East,90,0.0,0.0,80,0.00,,---,0.00,VWS V14.01,2013-02-21 12:45:00,
2013-02-21 07:46:00,57.7,51.6,30.09,ESE,112,0.0,0.0,80,0.00,,---,0.00,VWS V14.01,2013-02-21 12:46:00,
2013-02-21 07:47:00,57.7,51.6,30.09,NNE,22,0.0,0.0,80,0.00,,---,0.00,VWS V14.01,2013-02-21 12:47:00,
2013-02-21 07:48:00,57.7,51.6,30.09,ENE,68,0.0,0.0,80,0.00,,---,0.00,VWS V14.01,2013-02-21 12:48:00,
2013-02-21 07:49:00,58.8,53.0,30.09,East,90,0.0,0.0,81,0.00,,---,0.00,VWS V14.01,2013-02-21 12:49:00,
2013-02-21 07:50:00,57.7,51.6,30.09,ENE,68,0.9,0.9,80,0.00,,---,0.00,VWS V14.01,2013-02-21 12:50:00,
2013-02-21 07:51:00,57.7,51.6,30.09,NE,45,0.0,2.2,80,0.00,,---,0.00,VWS V14.01,2013-02-21 12:51:00,
2013-02-21 07:52:00,57.7,51.6,30.09,ENE,68,0.0,2.7,80,0.00,,---,0.00,VWS V14.01,2013-02-21 12:52:00,
2013-02-21 07:53:00,57.7,51.6,30.09,ENE,68,0.0,0.0,80,0.00,,---,0.00,VWS V14.01,2013-02-21 12:53:00,
2013-02-21 07:54:00,58.8,53.0,30.09,ESE,112,0.0,0.0,81,0.00,,---,0.00,VWS V14.01,2013-02-21 12:54:00,
2013-02-21 07:55:00,57.7,51.6,30.09,ENE,68,0.0,0.0,80,0.00,,---,0.00,VWS V14.01,2013-02-21 12:55:00,
2013-02-21 07:56:00,58.8,53.0,30.09,ENE,68,0.0,0.0,81,0.00,,---,0.00,VWS V14.01,2013-02-21 12:56:00,
2013-02-21 07:57:00,58.8,53.0,30.09,NNE,22,0.0,0.0,81,0.00,,---,0.00,VWS V14.01,2013-02-21 12:57:00,
2013-02-21 07:58:00,58.8,53.0,30.09,ESE,112,0.0,0.0,81,0.00,,---,0.00,VWS V14.01,2013-02-21 12:58:00,
2013-02-21 07:59:00,59.2,53.0,30.09,ENE,68,0.0,0.0,80,0.00,,---,0.00,VWS V14.01,2013-02-21 12:59:00,
2013-02-21 08:00:00,58.8,53.0,30.09,ENE,68,0.0,0.0,81,0.00,,---,0.00,VWS V14.01,2013-02-21 13:00:00,
2013-02-21 08:01:00,58.8,53.0,30.09,ESE,112,0.0,0.0,81,0.00,,---,0.00,VWS V14.01,2013-02-21 13:01:00,
2013-02-21 08:02:00,58.8,53.0,30.09,SE,135,0.0,0.0,81,0.00,,---,0.00,VWS V14.01,2013-02-21 13:02:00,
2013-02-21 08:03:00,58.8,53.0,30.09,East,90,0.0,0.0,81,0.00,,---,0.00,VWS V14.01,2013-02-21 13:03:00,
2013-02-21 08:04:00,59.4,53.2,30.09,NNE,22,0.0,0.9,80,0.00,,---,0.00,VWS V14.01,2013-02-21 13:04:00,
2013-02-21 08:05:00,58.8,53.0,30.09,NE,45,0.0,0.0,81,0.00,,---,0.00,VWS V14.01,2013-02-21 13:05:00,
2013-02-21 08:06:00,59.2,53.0,30.09,SSE,158,0.0,0.0,80,0.00,,---,0.00,VWS V14.01,2013-02-21 13:06:00,
2013-02-21 08:07:00,59.2,53.0,30.09,ESE,112,0.0,0.0,80,0.00,,---,0.00,VWS V14.01,2013-02-21 13:07:00,
2013-02-21 08:08:00,59.2,53.0,30.09,ESE,112,0.0,0.0,80,0.00,,---,0.00,VWS V14.01,2013-02-21 13:08:00,
2013-02-21 08:09:00,59.5,53.0,30.09,North,0,0.0,0.0,79,0.00,,---,0.00,VWS V14.01,2013-02-21 13:09:00,
2013-02-21 08:10:00,59.4,53.2,30.09,ENE,68,0.0,0.0,80,0.00,,---,0.00,VWS V14.01,2013-02-21 13:10:00,
2013-02-21 08:11:00,59.4,53.2,30.09,ENE,68,0.0,0.0,80,0.00,,---,0.00,VWS V14.01,2013-02-21 13:11:00,
2013-02-21 08:12:00,59.4,53.2,30.09,NNE,22,0.0,0.9,80,0.00,,---,0.00,VWS V14.01,2013-02-21 13:12:00,
2013-02-21 08:13:00,59.4,53.2,30.09,East,90,0.9,0.9,80,0.00,,---,0.00,VWS V14.01,2013-02-21 13:13:00,
2013-02-21 08:14:00,59.5,53.0,30.09,NNW,338,0.0,0.0,79,0.00,,---,0.00,VWS V14.01,2013-02-21 13:14:00,
2013-02-21 08:15:00,59.5,53.0,30.09,ENE,68,0.0,0.0,79,0.00,,---,0.00,VWS V14.01,2013-02-21 13:15:00,
2013-02-21 08:16:00,59.5,53.0,30.09,SE,135,0.0,0.0,79,0.00,,---,0.00,VWS V14.01,2013-02-21 13:16:00,
2013-02-21 08:17:00,59.5,53.0,30.09,SE,135,0.0,1.6,79,0.00,,---,0.00,VWS V14.01,2013-02-21 13:17:00,
2013-02-21 08:18:00,59.5,53.0,30.09,North,0,0.0,0.0,79,0.00,,---,0.00,VWS V14.01,2013-02-21 13:18:00,
2013-02-21 08:19:00,59.5,53.0,30.09,ENE,68,0.0,0.0,79,0.00,,---,0.00,VWS V14.01,2013-02-21 13:19:00,
2013-02-21 08:20:00,59.5,53.0,30.09,South,180,0.0,0.0,79,0.00,,---,0.00,VWS V14.01,2013-02-21 13:20:00,
2013-02-21 08:21:00,59.5,53.0,30.09,South,180,0.0,0.0,79,0.00,,---,0.00,VWS V14.01,2013-02-21 13:21:00,
2013-02-21 08:22:00,59.5,53.0,30.09,NNE,22,0.0,0.0,79,0.00,,---,0.00,VWS V14.01,2013-02-21 13:22:00,
2013-02-21 08:23:00,59.5,53.0,30.09,ENE,68,0.0,1.3,79,0.00,,---,0.00,VWS V14.01,2013-02-21 13:23:00,
2013-02-21 08:24:00,59.5,53.0,30.09,NE,45,0.0,0.0,79,0.00,,---,0.00,VWS V14.01,2013-02-21 13:24:00,
2013-02-21 08:25:00,59.5,53.0,30.09,NNE,22,0.0,0.0,79,0.00,,---,0.00,VWS V14.01,2013-02-21 13:25:00,
2013-02-21 08:26:00,59.5,53.0,30.09,ENE,68,0.0,0.0,79,0.00,,---,0.00,VWS V14.01,2013-02-21 13:26:00,
2013-02-21 08:27:00,59.5,53.0,30.09,SE,135,0.0,0.0,79,0.00,,---,0.00,VWS V14.01,2013-02-21 13:27:00,
2013-02-21 08:28:00,59.5,53.0,30.09,ENE,68,0.0,0.0,79,0.00,,---,0.00,VWS V14.01,2013-02-21 13:28:00,
2013-02-21 08:29:00,59.5,53.0,30.09,East,90,0.0,0.0,79,0.00,,---,0.00,VWS V14.01,2013-02-21 13:29:00,
2013-02-21 08:30:00,59.5,53.0,30.09,ENE,68,0.0,0.0,79,0.00,,---,0.00,VWS V14.01,2013-02-21 13:30:00,
2013-02-21 08:31:00,59.5,53.0,30.09,ENE,68,0.0,0.0,79,0.00,,---,0.00,VWS V14.01,2013-02-21 13:31:00,
2013-02-21 08:32:00,59.5,53.0,30.09,ENE,68,0.0,0.0,79,0.00,,---,0.00,VWS V14.01,2013-02-21 13:32:00,
2013-02-21 08:33:00,59.5,53.0,30.09,NE,45,0.0,0.0,79,0.00,,---,0.00,VWS V14.01,2013-02-21 13:33:00,
2013-02-21 08:34:00,59.5,53.0,30.09,NNW,338,0.0,0.0,79,0.00,,---,0.00,VWS V14.01,2013-02-21 13:34:00,
2013-02-21 08:35:00,59.5,53.0,30.09,ENE,68,0.0,0.0,79,0.00,,---,0.00,VWS V14.01,2013-02-21 13:35:00,
2013-02-21 08:36:00,59.5,53.0,30.09,ENE,68,0.0,0.0,79,0.00,,---,0.00,VWS V14.01,2013-02-21 13:36:00,
2013-02-21 08:37:00,59.5,53.0,30.09,East,90,0.0,0.0,79,0.00,,---,0.00,VWS V14.01,2013-02-21 13:37:00,
2013-02-21 08:38:00,59.5,53.0,30.09,East,90,0.0,0.0,79,0.00,,---,0.00,VWS V14.01,2013-02-21 13:38:00,
2013-02-21 08:39:00,59.5,53.0,30.09,ENE,68,0.0,0.0,79,0.00,,---,0.00,VWS V14.01,2013-02-21 13:39:00,
2013-02-21 08:40:00,59.5,53.0,30.09,NE,45,0.0,0.0,79,0.00,,---,0.00,VWS V14.01,2013-02-21 13:40:00,
2013-02-21 08:41:00,59.5,53.0,30.09,ENE,68,0.0,0.0,79,0.00,,---,0.00,VWS V14.01,2013-02-21 13:41:00,
2013-02-21 08:42:00,59.5,53.0,30.09,ESE,112,0.0,0.9,79,0.00,,---,0.00,VWS V14.01,2013-02-21 13:42:00,
2013-02-21 08:43:00,59.5,53.0,30.09,NNW,338,0.0,0.0,79,0.00,,---,0.00,VWS V14.01,2013-02-21 13:43:00,
2013-02-21 08:44:00,62.6,54.6,30.09,SSE,158,0.0,0.0,75,0.00,,---,0.00,VWS V14.01,2013-02-21 13:44:00,
2013-02-21 08:45:00,59.5,53.0,30.09,ENE,68,0.0,1.1,79,0.00,,---,0.00,VWS V14.01,2013-02-21 13:45:00,
2013-02-21 08:46:00,59.5,53.0,30.09,ENE,68,0.0,0.9,79,0.00,,---,0.00,VWS V14.01,2013-02-21 13:46:00,
2013-02-21 08:47:00,59.5,53.0,30.09,ENE,68,0.0,0.0,79,0.00,,---,0.00,VWS V14.01,2013-02-21 13:47:00,
2013-02-21 08:48:00,59.5,53.0,30.09,ESE,112,0.0,0.0,79,0.00,,---,0.00,VWS V14.01,2013-02-21 13:48:00,
2013-02-21 08:49:00,62.6,54.6,30.09,SSE,158,3.1,3.1,75,0.00,,---,0.00,VWS V14.01,2013-02-21 13:49:00,
2013-02-21 08:50:00,59.5,53.0,30.09,ENE,68,0.0,1.3,79,0.00,,---,0.00,VWS V14.01,2013-02-21 13:50:00,
2013-02-21 08:51:00,59.5,53.0,30.09,ENE,68,0.0,0.0,79,0.00,,---,0.00,VWS V14.01,2013-02-21 13:51:00,
2013-02-21 08:52:00,62.6,54.6,30.09,ENE,68,0.0,3.6,75,0.00,,---,0.00,VWS V14.01,2013-02-21 13:52:00,
2013-02-21 08:53:00,62.6,54.6,30.09,NNE,22,0.0,1.1,75,0.00,,---,0.00,VWS V14.01,2013-02-21 13:53:00,
2013-02-21 08:54:00,62.6,54.6,30.09,ESE,112,0.0,0.0,75,0.00,,---,0.00,VWS V14.01,2013-02-21 13:54:00,
2013-02-21 08:55:00,62.6,54.6,30.09,NE,45,0.0,1.3,75,0.00,,---,0.00,VWS V14.01,2013-02-21 13:55:00,
2013-02-21 08:56:00,62.6,54.6,30.09,SSW,202,0.0,0.0,75,0.00,,---,0.00,VWS V14.01,2013-02-21 13:56:00,
2013-02-21 08:57:00,62.6,54.6,30.09,ENE,68,2.5,2.5,75,0.00,,---,0.00,VWS V14.01,2013-02-21 13:57:00,
2013-02-21 08:58:00,62.6,54.6,30.09,NNE,22,0.0,3.1,75,0.00,,---,0.00,VWS V14.01,2013-02-21 13:58:00,
2013-02-21 08:59:00,62.6,54.6,30.09,ESE,112,1.1,1.1,75,0.00,,---,0.00,VWS V14.01,2013-02-21 13:59:00,
2013-02-21 09:00:00,62.6,54.6,30.09,ESE,112,0.0,0.0,75,0.00,,---,0.00,VWS V14.01,2013-02-21 14:00:00,
2013-02-21 09:01:00,62.6,54.6,30.09,ESE,112,2.7,2.7,75,0.00,,---,0.00,VWS V14.01,2013-02-21 14:01:00,
2013-02-21 09:02:00,62.6,54.6,30.09,SE,135,0.0,2.7,75,0.00,,---,0.00,VWS V14.01,2013-02-21 14:02:00,
2013-02-21 09:03:00,62.6,54.6,30.09,SSE,158,0.0,0.0,75,0.00,,---,0.00,VWS V14.01,2013-02-21 14:03:00,
2013-02-21 09:04:00,62.6,54.6,30.09,ESE,112,0.0,0.0,75,0.00,,---,0.00,VWS V14.01,2013-02-21 14:04:00,
2013-02-21 09:05:00,62.6,54.6,30.09,ENE,68,0.0,0.0,75,0.00,,---,0.00,VWS V14.01,2013-02-21 14:05:00,
2013-02-21 09:06:00,62.6,54.6,30.09,ESE,112,0.0,0.0,75,0.00,,---,0.00,VWS V14.01,2013-02-21 14:06:00,
2013-02-21 09:07:00,62.6,54.6,30.09,East,90,0.0,0.9,75,0.00,,---,0.00,VWS V14.01,2013-02-21 14:07:00,
2013-02-21 09:08:00,62.6,54.6,30.09,SE,135,0.0,0.0,75,0.00,,---,0.00,VWS V14.01,2013-02-21 14:08:00,
2013-02-21 09:09:00,66.6,55.7,30.09,SE,135,0.0,0.0,68,0.00,,---,0.00,VWS V14.01,2013-02-21 14:09:00,
2013-02-21 09:10:00,62.6,54.6,30.09,ESE,112,0.0,0.0,75,0.00,,---,0.00,VWS V14.01,2013-02-21 14:10:00,
2013-02-21 09:11:00,62.6,54.6,30.09,ESE,112,0.0,0.0,75,0.00,,---,0.00,VWS V14.01,2013-02-21 14:11:00,
2013-02-21 09:12:00,62.6,54.6,30.09,ESE,112,0.0,0.0,75,0.00,,---,0.00,VWS V14.01,2013-02-21 14:12:00,
2013-02-21 09:13:00,62.6,54.6,30.09,ESE,112,0.0,0.0,75,0.00,,---,0.00,VWS V14.01,2013-02-21 14:13:00,
2013-02-21 09:14:00,67.8,55.6,30.09,NE,45,0.0,0.0,65,0.00,,---,0.00,VWS V14.01,2013-02-21 14:14:00,
2013-02-21 09:15:00,66.2,56.1,30.09,NNW,338,0.0,0.0,70,0.00,,---,0.00,VWS V14.01,2013-02-21 14:15:00,
2013-02-21 09:16:00,66.2,56.1,30.09,SW,225,0.0,3.4,70,0.00,,---,0.00,VWS V14.01,2013-02-21 14:16:00,
2013-02-21 09:17:00,66.4,55.5,30.09,ESE,112,0.0,0.0,68,0.00,,---,0.00,VWS V14.01,2013-02-21 14:17:00,
2013-02-21 09:18:00,66.6,55.7,30.09,ESE,112,0.0,2.7,68,0.00,,---,0.00,VWS V14.01,2013-02-21 14:18:00,
2013-02-21 09:19:00,69.1,56.0,30.09,SSW,202,0.0,0.0,63,0.00,,---,0.00,VWS V14.01,2013-02-21 14:19:00,
2013-02-21 09:20:00,66.6,55.7,30.09,NNE,22,2.0,2.0,68,0.00,,---,0.00,VWS V14.01,2013-02-21 14:20:00,
2013-02-21 09:21:00,66.6,55.7,30.09,West,270,0.0,2.5,68,0.00,,---,0.00,VWS V14.01,2013-02-21 14:21:00,
2013-02-21 09:22:00,66.6,55.7,30.09,SE,135,0.0,1.3,68,0.00,,---,0.00,VWS V14.01,2013-02-21 14:22:00,
2013-02-21 09:23:00,67.8,55.6,30.09,NE,45,0.0,0.0,65,0.00,,---,0.00,VWS V14.01,2013-02-21 14:23:00,
2013-02-21 09:24:00,69.4,54.5,30.09,ESE,112,0.0,0.0,59,0.00,,---,0.00,VWS V14.01,2013-02-21 14:24:00,
2013-02-21 09:25:00,68.2,56.0,30.09,ENE,68,2.7,2.7,65,0.00,,---,0.00,VWS V14.01,2013-02-21 14:25:00,
2013-02-21 09:26:00,68.4,55.3,30.09,ESE,112,0.0,2.7,63,0.00,,---,0.00,VWS V14.01,2013-02-21 14:26:00,
2013-02-21 09:27:00,68.5,55.5,30.09,ENE,68,0.0,0.0,63,0.00,,---,0.00,VWS V14.01,2013-02-21 14:27:00,
2013-02-21 09:28:00,68.9,55.8,30.09,SSE,158,0.0,0.0,63,0.00,,---,0.00,VWS V14.01,2013-02-21 14:28:00,
2013-02-21 09:29:00,70.0,53.6,30.09,NNW,338,0.0,0.0,56,0.00,,---,0.00,VWS V14.01,2013-02-21 14:29:00,
2013-02-21 09:30:00,69.3,55.7,30.09,West,270,0.0,0.0,62,0.00,,---,0.00,VWS V14.01,2013-02-21 14:30:00,
2013-02-21 09:31:00,69.3,55.7,30.09,West,270,0.0,0.9,62,0.00,,---,0.00,VWS V14.01,2013-02-21 14:31:00,
2013-02-21 09:32:00,69.4,55.4,30.09,ESE,112,0.0,0.9,61,0.00,,---,0.00,VWS V14.01,2013-02-21 14:32:00,
2013-02-21 09:33:00,69.4,54.5,30.09,ENE,68,0.0,0.9,59,0.00,,---,0.00,VWS V14.01,2013-02-21 14:33:00,
2013-02-21 09:34:00,70.5,53.6,30.09,ESE,112,0.9,0.9,55,0.00,,---,0.00,VWS V14.01,2013-02-21 14:34:00,
2013-02-21 09:35:00,69.6,54.7,30.09,East,90,3.6,3.6,59,0.00,,---,0.00,VWS V14.01,2013-02-21 14:35:00,
2013-02-21 09:36:00,69.6,54.7,30.09,ESE,112,2.0,3.6,59,0.00,,---,0.00,VWS V14.01,2013-02-21 14:36:00,
2013-02-21 09:37:00,69.8,53.4,30.09,SSE,158,0.0,2.0,56,0.00,,---,0.00,VWS V14.01,2013-02-21 14:37:00,
2013-02-21 09:38:00,70.0,53.6,30.09,SSE,158,0.0,1.1,56,0.00,,---,0.00,VWS V14.01,2013-02-21 14:38:00,
2013-02-21 09:39:00,70.5,53.6,30.09,SSE,158,0.0,0.0,55,0.00,,---,0.00,VWS V14.01,2013-02-21 14:39:00,
2013-02-21 09:40:00,70.2,52.8,30.09,ENE,68,0.9,2.7,54,0.00,,---,0.00,VWS V14.01,2013-02-21 14:40:00,
2013-02-21 09:41:00,70.2,52.8,30.09,ESE,112,0.0,0.9,54,0.00,,---,0.00,VWS V14.01,2013-02-21 14:41:00,
2013-02-21 09:42:00,70.2,52.8,30.09,ESE,112,0.0,0.0,54,0.00,,---,0.00,VWS V14.01,2013-02-21 14:42:00,
2013-02-21 09:43:00,70.5,53.6,30.09,ENE,68,0.0,0.0,55,0.00,,---,0.00,VWS V14.01,2013-02-21 14:43:00,
2013-02-21 09:44:00,70.5,53.6,30.09,SSE,158,2.0,3.8,55,0.00,,---,0.00,VWS V14.01,2013-02-21 14:44:00,
2013-02-21 09:45:00,70.5,53.6,30.09,ESE,112,2.7,3.8,55,0.00,,---,0.00,VWS V14.01,2013-02-21 14:45:00,
2013-02-21 09:46:00,70.5,53.6,30.09,SSW,202,0.9,2.7,55,0.00,,---,0.00,VWS V14.01,2013-02-21 14:46:00,
2013-02-21 09:47:00,70.5,53.6,30.09,SSE,158,0.0,1.1,55,0.00,,---,0.00,VWS V14.01,2013-02-21 14:47:00,
2013-02-21 09:48:00,70.5,53.6,30.09,SSE,158,0.0,1.1,55,0.00,,---,0.00,VWS V14.01,2013-02-21 14:48:00,
2013-02-21 09:49:00,70.5,53.6,30.09,SSE,158,0.0,0.0,55,0.00,,---,0.00,VWS V14.01,2013-02-21 14:49:00,
2013-02-21 09:50:00,70.5,53.6,30.09,ENE,68,0.0,0.9,55,0.00,,---,0.00,VWS V14.01,2013-02-21 14:50:00,
2013-02-21 09:51:00,70.5,53.6,30.09,SSE,158,0.0,0.0,55,0.00,,---,0.00,VWS V14.01,2013-02-21 14:51:00,
2013-02-21 09:52:00,70.5,53.6,30.09,SSE,158,0.0,0.0,55,0.00,,---,0.00,VWS V14.01,2013-02-21 14:52:00,
2013-02-21 09:53:00,70.5,53.6,30.09,SSE,158,3.8,3.8,55,0.00,,---,0.00,VWS V14.01,2013-02-21 14:53:00,
2013-02-21 09:54:00,71.2,49.4,30.09,ESE,112,2.5,2.5,46,0.00,,---,0.00,VWS V14.01,2013-02-21 14:54:00,
2013-02-21 09:55:00,70.5,53.6,30.09,SSE,158,2.0,2.0,55,0.00,,---,0.00,VWS V14.01,2013-02-21 14:55:00,
2013-02-21 09:56:00,70.5,53.6,30.09,SSE,158,0.0,4.3,55,0.00,,---,0.00,VWS V14.01,2013-02-21 14:56:00,
2013-02-21 09:57:00,70.5,53.6,30.09,SE,135,0.9,1.6,55,0.00,,---,0.00,VWS V14.01,2013-02-21 14:57:00,
2013-02-21 09:58:00,70.5,53.6,30.09,SSE,158,0.0,0.9,55,0.00,,---,0.00,VWS V14.01,2013-02-21 14:58:00,
2013-02-21 09:59:00,71.1,49.3,30.09,SSE,158,3.8,3.8,46,0.00,,---,0.00,VWS V14.01,2013-02-21 14:59:00,
2013-02-21 10:00:00,70.5,53.6,30.09,SSE,158,1.6,2.5,55,0.00,,---,0.00,VWS V14.01,2013-02-21 15:00:00,
2013-02-21 10:01:00,71.4,50.2,30.09,SSW,202,1.6,1.6,47,0.00,,---,0.00,VWS V14.01,2013-02-21 15:01:00,
2013-02-21 10:02:00,71.4,50.2,30.09,SSE,158,1.3,2.2,47,0.00,,---,0.00,VWS V14.01,2013-02-21 15:02:00,
2013-02-21 10:03:00,71.2,49.4,30.09,SE,135,1.6,5.8,46,0.00,,---,0.00,VWS V14.01,2013-02-21 15:03:00,
2013-02-21 10:04:00,71.8,49.9,30.09,SSE,158,2.9,2.9,46,0.00,,---,0.00,VWS V14.01,2013-02-21 15:04:00,
2013-02-21 10:05:00,71.1,49.3,30.09,SSE,158,4.0,4.9,46,0.00,,---,0.00,VWS V14.01,2013-02-21 15:05:00,
2013-02-21 10:06:00,71.1,49.3,30.09,SSE,158,3.1,4.0,46,0.00,,---,0.00,VWS V14.01,2013-02-21 15:06:00,
2013-02-21 10:07:00,71.1,49.3,30.09,South,180,2.5,3.1,46,0.00,,---,0.00,VWS V14.01,2013-02-21 15:07:00,
2013-02-21 10:08:00,71.1,49.3,30.09,SSE,158,3.1,3.1,46,0.00,,---,0.00,VWS V14.01,2013-02-21 15:08:00,
2013-02-21 10:09:00,73.6,51.5,30.09,ESE,112,0.0,0.0,46,0.00,,---,0.00,VWS V14.01,2013-02-21 15:09:00,
2013-02-21 10:10:00,71.8,49.9,30.09,SSW,202,2.2,4.9,46,0.00,,---,0.00,VWS V14.01,2013-02-21 15:10:00,
2013-02-21 10:11:00,71.8,49.9,30.09,SE,135,4.0,6.5,46,0.00,,---,0.00,VWS V14.01,2013-02-21 15:11:00,
2013-02-21 10:12:00,71.6,49.2,30.09,SE,135,1.1,4.3,45,0.00,,---,0.00,VWS V14.01,2013-02-21 15:12:00,
2013-02-21 10:13:00,71.8,49.9,30.09,SSE,158,2.9,2.9,46,0.00,,---,0.00,VWS V14.01,2013-02-21 15:13:00,
2013-02-21 10:14:00,74.1,49.6,30.09,SSE,158,3.4,3.6,42,0.00,,---,0.00,VWS V14.01,2013-02-21 15:14:00,
2013-02-21 10:15:00,72.3,50.4,30.09,SSE,158,1.6,2.9,46,0.00,,---,0.00,VWS V14.01,2013-02-21 15:15:00,
2013-02-21 10:16:00,72.5,50.6,30.09,SSW,202,2.2,3.8,46,0.00,,---,0.00,VWS V14.01,2013-02-21 15:16:00,
2013-02-21 10:17:00,73.2,51.2,30.09,SSE,158,0.0,2.2,46,0.00,,---,0.00,VWS V14.01,2013-02-21 15:17:00,
2013-02-21 10:18:00,73.6,51.5,30.09,SE,135,0.0,1.6,46,0.00,,---,0.00,VWS V14.01,2013-02-21 15:18:00,
2013-02-21 10:19:00,74.1,48.9,30.06,SE,135,1.3,1.3,41,0.00,,---,0.00,VWS V14.01,2013-02-21 15:19:00,
2013-02-21 10:20:00,73.6,51.5,30.09,SE,135,0.9,3.4,46,0.00,,---,0.00,VWS V14.01,2013-02-21 15:20:00,
2013-02-21 10:21:00,73.6,51.5,30.09,SSE,158,1.3,4.0,46,0.00,,---,0.00,VWS V14.01,2013-02-21 15:21:00,
2013-02-21 10:22:00,73.6,51.5,30.09,South,180,1.6,1.6,46,0.00,,---,0.00,VWS V14.01,2013-02-21 15:22:00,
2013-02-21 10:23:00,74.5,51.2,30.09,SSE,158,3.6,3.6,44,0.00,,---,0.00,VWS V14.01,2013-02-21 15:23:00,
2013-02-21 10:24:00,74.3,48.4,30.06,West,270,2.5,2.5,40,0.00,,---,0.00,VWS V14.01,2013-02-21 15:24:00,
2013-02-21 10:25:00,74.3,49.8,30.09,SSE,158,2.0,4.0,42,0.00,,---,0.00,VWS V14.01,2013-02-21 15:25:00,
2013-02-21 10:26:00,74.3,49.8,30.09,South,180,0.0,2.0,42,0.00,,---,0.00,VWS V14.01,2013-02-21 15:26:00,
2013-02-21 10:27:00,74.3,49.8,30.09,SSE,158,4.0,4.9,42,0.00,,---,0.00,VWS V14.01,2013-02-21 15:27:00,
2013-02-21 10:28:00,74.1,48.9,30.06,SSE,158,1.1,4.0,41,0.00,,---,0.00,VWS V14.01,2013-02-21 15:28:00,
2013-02-21 10:29:00,75.0,49.8,30.06,SSE,158,2.0,3.4,41,0.00,,---,0.00,VWS V14.01,2013-02-21 15:29:00,
2013-02-21 10:30:00,74.5,49.9,30.06,South,180,1.1,2.0,42,0.00,,---,0.00,VWS V14.01,2013-02-21 15:30:00,
2013-02-21 10:31:00,74.8,50.9,30.06,SSE,158,4.9,4.9,43,0.00,,---,0.00,VWS V14.01,2013-02-21 15:31:00,
2013-02-21 10:32:00,74.5,48.6,30.06,ESE,112,6.5,6.5,40,0.00,,---,0.00,VWS V14.01,2013-02-21 15:32:00,
2013-02-21 10:33:00,74.3,48.4,30.06,West,270,2.5,6.5,40,0.00,,---,0.00,VWS V14.01,2013-02-21 15:33:00,
2013-02-21 10:34:00,76.3,50.2,30.09,SSE,158,2.0,2.0,40,0.00,,---,0.00,VWS V14.01,2013-02-21 15:34:00,
2013-02-21 10:35:00,75.0,50.4,30.06,SSE,158,2.5,2.5,42,0.00,,---,0.00,VWS V14.01,2013-02-21 15:35:00,
2013-02-21 10:36:00,75.2,49.9,30.06,South,180,7.2,7.2,41,0.00,,---,0.00,VWS V14.01,2013-02-21 15:36:00,
2013-02-21 10:37:00,75.2,49.9,30.06,SSE,158,3.6,7.2,41,0.00,,---,0.00,VWS V14.01,2013-02-21 15:37:00,
2013-02-21 10:38:00,75.0,49.8,30.06,SSE,158,3.4,3.6,41,0.00,,---,0.00,VWS V14.01,2013-02-21 15:38:00,
2013-02-21 10:39:00,77.2,49.6,30.09,South,180,2.5,2.5,38,0.00,,---,0.00,VWS V14.01,2013-02-21 15:39:00,
2013-02-21 10:40:00,75.9,50.5,30.06,SE,135,0.9,1.6,41,0.00,,---,0.00,VWS V14.01,2013-02-21 15:40:00,
2013-02-21 10:41:00,76.3,50.9,30.06,North,0,1.3,1.3,41,0.00,,---,0.00,VWS V14.01,2013-02-21 15:41:00,
2013-02-21 10:42:00,76.3,50.2,30.06,East,90,0.9,2.7,40,0.00,,---,0.00,VWS V14.01,2013-02-21 15:42:00,
2013-02-21 10:43:00,76.3,50.2,30.09,ESE,112,0.0,0.9,40,0.00,,---,0.00,VWS V14.01,2013-02-21 15:43:00,
2013-02-21 10:44:00,77.5,49.2,30.09,SSE,158,0.0,0.0,37,0.00,,---,0.00,VWS V14.01,2013-02-21 15:44:00,
2013-02-21 10:45:00,76.6,49.8,30.09,SE,135,2.7,2.7,39,0.00,,---,0.00,VWS V14.01,2013-02-21 15:45:00,
2013-02-21 10:46:00,76.6,49.2,30.09,SE,135,0.0,2.7,38,0.00,,---,0.00,VWS V14.01,2013-02-21 15:46:00,
2013-02-21 10:47:00,77.0,49.5,30.09,ENE,68,1.1,2.0,38,0.00,,---,0.00,VWS V14.01,2013-02-21 15:47:00,
2013-02-21 10:48:00,77.2,49.6,30.09,South,180,2.5,3.4,38,0.00,,---,0.00,VWS V14.01,2013-02-21 15:48:00,
2013-02-21 10:49:00,77.2,47.4,30.06,SW,225,0.9,0.9,35,0.00,,---,0.00,VWS V14.01,2013-02-21 15:49:00,
2013-02-21 10:50:00,77.2,49.6,30.09,SE,135,2.5,2.5,38,0.00,,---,0.00,VWS V14.01,2013-02-21 15:50:00,
2013-02-21 10:51:00,77.2,49.6,30.09,SSE,158,0.0,2.5,38,0.00,,---,0.00,VWS V14.01,2013-02-21 15:51:00,
2013-02-21 10:52:00,77.2,49.6,30.09,ESE,112,0.0,2.5,38,0.00,,---,0.00,VWS V14.01,2013-02-21 15:52:00,
2013-02-21 10:53:00,77.4,49.1,30.09,SE,135,0.0,2.0,37,0.00,,---,0.00,VWS V14.01,2013-02-21 15:53:00,
2013-02-21 10:54:00,77.4,47.6,30.06,SE,135,0.0,0.0,35,0.00,,---,0.00,VWS V14.01,2013-02-21 15:54:00,
2013-02-21 10:55:00,77.2,47.4,30.09,SE,135,5.8,7.2,35,0.00,,---,0.00,VWS V14.01,2013-02-21 15:55:00,
2013-02-21 10:56:00,76.5,46.0,30.09,SSE,158,2.7,5.8,34,0.00,,---,0.00,VWS V14.01,2013-02-21 15:56:00,
2013-02-21 10:57:00,76.8,47.1,30.09,ENE,68,0.0,2.7,35,0.00,,---,0.00,VWS V14.01,2013-02-21 15:57:00,
2013-02-21 10:58:00,77.2,47.4,30.06,SW,225,0.0,1.6,35,0.00,,---,0.00,VWS V14.01,2013-02-21 15:58:00,
2013-02-21 10:59:00,78.1,47.5,30.06,South,180,0.0,2.9,34,0.00,,---,0.00,VWS V14.01,2013-02-21 15:59:00,
2013-02-21 11:00:00,77.5,48.5,30.06,SSE,158,1.6,2.9,36,0.00,,---,0.00,VWS V14.01,2013-02-21 16:00:00,
2013-02-21 11:01:00,77.4,47.6,30.06,SSE,158,2.9,2.9,35,0.00,,---,0.00,VWS V14.01,2013-02-21 16:01:00,
2013-02-21 11:02:00,77.4,47.6,30.06,ESE,112,0.9,2.9,35,0.00,,---,0.00,VWS V14.01,2013-02-21 16:02:00,
2013-02-21 11:03:00,77.4,47.6,30.06,SE,135,0.0,0.9,35,0.00,,---,0.00,VWS V14.01,2013-02-21 16:03:00,
2013-02-21 11:04:00,77.2,45.9,30.06,ESE,112,2.7,3.8,33,0.00,,---,0.00,VWS V14.01,2013-02-21 16:04:00,
2013-02-21 11:05:00,77.5,47.8,30.06,SSE,158,0.0,2.5,35,0.00,,---,0.00,VWS V14.01,2013-02-21 16:05:00,
2013-02-21 11:06:00,77.7,47.9,30.06,SSE,158,2.5,3.8,35,0.00,,---,0.00,VWS V14.01,2013-02-21 16:06:00,
2013-02-21 11:07:00,77.5,47.0,30.06,SSE,158,0.0,2.5,34,0.00,,---,0.00,VWS V14.01,2013-02-21 16:07:00,
2013-02-21 11:08:00,78.1,47.5,30.06,SSE,158,2.9,2.9,34,0.00,,---,0.00,VWS V14.01,2013-02-21 16:08:00,
2013-02-21 11:09:00,76.3,45.1,30.06,SSE,158,2.9,8.7,33,0.00,,---,0.00,VWS V14.01,2013-02-21 16:09:00,
2013-02-21 11:10:00,77.5,46.2,30.06,SSW,202,3.6,6.3,33,0.00,,---,0.00,VWS V14.01,2013-02-21 16:10:00,
2013-02-21 11:11:00,77.5,46.2,30.06,SSE,158,2.9,3.6,33,0.00,,---,0.00,VWS V14.01,2013-02-21 16:11:00,
2013-02-21 11:12:00,77.4,46.0,30.06,SE,135,1.1,3.8,33,0.00,,---,0.00,VWS V14.01,2013-02-21 16:12:00,
2013-02-21 11:13:00,77.2,45.9,30.06,SSE,158,3.8,5.8,33,0.00,,---,0.00,VWS V14.01,2013-02-21 16:13:00,
2013-02-21 11:14:00,75.7,45.4,30.06,SSE,158,4.9,7.2,34,0.00,,---,0.00,VWS V14.01,2013-02-21 16:14:00,
2013-02-21 11:15:00,77.0,44.9,30.06,South,180,2.5,8.1,32,0.00,,---,0.00,VWS V14.01,2013-02-21 16:15:00,
2013-02-21 11:16:00,76.5,46.0,30.06,SSW,202,1.1,2.7,34,0.00,,---,0.00,VWS V14.01,2013-02-21 16:16:00,
2013-02-21 11:17:00,76.8,46.3,30.06,SSE,158,4.0,4.0,34,0.00,,---,0.00,VWS V14.01,2013-02-21 16:17:00,
2013-02-21 11:18:00,76.3,45.1,30.06,SSE,158,8.7,8.7,33,0.00,,---,0.00,VWS V14.01,2013-02-21 16:18:00,
2013-02-21 11:19:00,76.3,46.7,30.09,SW,225,2.5,2.5,35,0.00,,---,0.00,VWS V14.01,2013-02-21 16:19:00,
2013-02-21 11:20:00,75.6,44.5,30.06,SE,135,2.9,8.1,33,0.00,,---,0.00,VWS V14.01,2013-02-21 16:20:00,
2013-02-21 11:21:00,75.6,45.2,30.06,SSE,158,2.0,2.9,34,0.00,,---,0.00,VWS V14.01,2013-02-21 16:21:00,
2013-02-21 11:22:00,75.6,45.2,30.06,WSW,248,1.6,4.0,34,0.00,,---,0.00,VWS V14.01,2013-02-21 16:22:00,
2013-02-21 11:23:00,75.7,46.2,30.06,SSE,158,6.0,6.0,35,0.00,,---,0.00,VWS V14.01,2013-02-21 16:23:00,
2013-02-21 11:24:00,77.9,48.1,30.09,South,180,2.5,2.5,35,0.00,,---,0.00,VWS V14.01,2013-02-21 16:24:00,
2013-02-21 11:25:00,75.7,46.2,30.06,South,180,2.0,6.0,35,0.00,,---,0.00,VWS V14.01,2013-02-21 16:25:00,
2013-02-21 11:26:00,76.1,46.5,30.06,SSE,158,2.5,6.5,35,0.00,,---,0.00,VWS V14.01,2013-02-21 16:26:00,
2013-02-21 11:27:00,76.3,46.7,30.06,South,180,3.1,4.0,35,0.00,,---,0.00,VWS V14.01,2013-02-21 16:27:00,
2013-02-21 11:28:00,76.3,46.7,30.09,South,180,2.0,7.4,35,0.00,,---,0.00,VWS V14.01,2013-02-21 16:28:00,
2013-02-21 11:29:00,78.3,46.8,30.09,SSE,158,2.7,2.7,33,0.00,,---,0.00,VWS V14.01,2013-02-21 16:29:00,
2013-02-21 11:30:00,76.6,47.0,30.09,SE,135,0.0,4.0,35,0.00,,---,0.00,VWS V14.01,2013-02-21 16:30:00,
2013-02-21 11:31:00,76.6,47.0,30.09,SE,135,2.5,2.5,35,0.00,,---,0.00,VWS V14.01,2013-02-21 16:31:00,
2013-02-21 11:32:00,77.4,47.6,30.09,NNE,22,2.0,2.5,35,0.00,,---,0.00,VWS V14.01,2013-02-21 16:32:00,
2013-02-21 11:33:00,77.9,48.1,30.09,ESE,112,1.6,2.2,35,0.00,,---,0.00,VWS V14.01,2013-02-21 16:33:00,
2013-02-21 11:34:00,78.3,46.8,30.09,SSE,158,2.0,3.4,33,0.00,,---,0.00,VWS V14.01,2013-02-21 16:34:00,
2013-02-21 11:35:00,78.4,47.8,30.09,SE,135,0.0,2.2,34,0.00,,---,0.00,VWS V14.01,2013-02-21 16:35:00,
2013-02-21 11:36:00,78.4,47.8,30.09,South,180,1.6,3.4,34,0.00,,---,0.00,VWS V14.01,2013-02-21 16:36:00,
2013-02-21 11:37:00,78.6,47.9,30.09,ESE,112,2.0,2.7,34,0.00,,---,0.00,VWS V14.01,2013-02-21 16:37:00,
2013-02-21 11:38:00,78.4,47.0,30.09,SSE,158,1.6,2.0,33,0.00,,---,0.00,VWS V14.01,2013-02-21 16:38:00,
2013-02-21 11:39:00,77.7,46.3,30.09,South,180,2.5,2.5,33,0.00,,---,0.00,VWS V14.01,2013-02-21 16:39:00,
2013-02-21 11:40:00,78.4,47.8,30.09,SE,135,2.2,2.2,34,0.00,,---,0.00,VWS V14.01,2013-02-21 16:40:00,
2013-02-21 11:41:00,78.4,47.0,30.09,SSE,158,4.3,4.3,33,0.00,,---,0.00,VWS V14.01,2013-02-21 16:41:00,
2013-02-21 11:42:00,78.3,46.8,30.09,SSE,158,2.2,4.9,33,0.00,,---,0.00,VWS V14.01,2013-02-21 16:42:00,
2013-02-21 11:43:00,78.4,47.0,30.09,ESE,112,1.1,2.5,33,0.00,,---,0.00,VWS V14.01,2013-02-21 16:43:00,
2013-02-21 11:44:00,78.3,46.8,30.09,SSE,158,6.5,6.5,33,0.00,,---,0.00,VWS V14.01,2013-02-21 16:44:00,
2013-02-21 11:45:00,77.9,46.5,30.09,South,180,7.6,7.6,33,0.00,,---,0.00,VWS V14.01,2013-02-21 16:45:00,
2013-02-21 11:46:00,77.5,46.2,30.09,SSE,158,3.8,7.6,33,0.00,,---,0.00,VWS V14.01,2013-02-21 16:46:00,
2013-02-21 11:47:00,77.5,46.2,30.09,NE,45,2.5,3.8,33,0.00,,---,0.00,VWS V14.01,2013-02-21 16:47:00,
2013-02-21 11:48:00,77.7,46.3,30.09,SSE,158,1.3,3.4,33,0.00,,---,0.00,VWS V14.01,2013-02-21 16:48:00,
2013-02-21 11:49:00,77.2,45.9,30.09,SSE,158,5.8,5.8,33,0.00,,---,0.00,VWS V14.01,2013-02-21 16:49:00,
2013-02-21 11:50:00,78.1,46.7,30.09,SSE,158,1.6,5.8,33,0.00,,---,0.00,VWS V14.01,2013-02-21 16:50:00,
2013-02-21 11:51:00,78.4,47.0,30.09,SSE,158,2.5,3.4,33,0.00,,---,0.00,VWS V14.01,2013-02-21 16:51:00,
2013-02-21 11:52:00,78.3,46.8,30.09,South,180,3.6,5.6,33,0.00,,---,0.00,VWS V14.01,2013-02-21 16:52:00,
2013-02-21 11:53:00,78.3,46.8,30.09,SSE,158,1.1,5.6,33,0.00,,---,0.00,VWS V14.01,2013-02-21 16:53:00,
2013-02-21 11:54:00,76.6,46.2,30.09,SE,135,6.0,6.0,34,0.00,,---,0.00,VWS V14.01,2013-02-21 16:54:00,
2013-02-21 11:55:00,77.5,46.2,30.09,SSE,158,4.9,5.8,33,0.00,,---,0.00,VWS V14.01,2013-02-21 16:55:00,
2013-02-21 11:56:00,77.2,45.9,30.09,South,180,6.3,9.2,33,0.00,,---,0.00,VWS V14.01,2013-02-21 16:56:00,
2013-02-21 11:57:00,77.2,45.9,30.09,SSE,158,3.4,6.3,33,0.00,,---,0.00,VWS V14.01,2013-02-21 16:57:00,
2013-02-21 11:58:00,77.2,45.9,30.09,SE,135,3.1,7.4,33,0.00,,---,0.00,VWS V14.01,2013-02-21 16:58:00,
2013-02-21 11:59:00,77.0,46.5,30.09,SSW,202,3.1,6.3,34,0.00,,---,0.00,VWS V14.01,2013-02-21 16:59:00,
2013-02-21 12:00:00,76.6,46.2,30.09,SSW,202,2.7,7.2,34,0.00,,---,0.00,VWS V14.01,2013-02-21 17:00:00,
2013-02-21 12:01:00,76.8,46.3,30.09,SSE,158,3.4,4.3,34,0.00,,---,0.00,VWS V14.01,2013-02-21 17:01:00,
2013-02-21 12:02:00,76.8,46.3,30.09,SSE,158,4.9,5.8,34,0.00,,---,0.00,VWS V14.01,2013-02-21 17:02:00,
2013-02-21 12:03:00,76.6,46.2,30.09,SSE,158,5.6,6.3,34,0.00,,---,0.00,VWS V14.01,2013-02-21 17:03:00,
2013-02-21 12:04:00,77.9,47.3,30.09,SSE,158,3.8,8.5,34,0.00,,---,0.00,VWS V14.01,2013-02-21 17:04:00,
2013-02-21 12:05:00,76.5,46.0,30.09,South,180,2.9,8.7,34,0.00,,---,0.00,VWS V14.01,2013-02-21 17:05:00,
2013-02-21 12:06:00,76.5,46.8,30.09,SSE,158,2.0,2.9,35,0.00,,---,0.00,VWS V14.01,2013-02-21 17:06:00,
2013-02-21 12:07:00,77.0,47.3,30.09,SSW,202,3.6,3.6,35,0.00,,---,0.00,VWS V14.01,2013-02-21 17:07:00,
2013-02-21 12:08:00,77.0,46.5,30.09,SSE,158,4.0,6.0,34,0.00,,---,0.00,VWS V14.01,2013-02-21 17:08:00,
2013-02-21 12:09:00,78.8,47.3,30.09,SSE,158,5.6,6.0,33,0.00,,---,0.00,VWS V14.01,2013-02-21 17:09:00,
2013-02-21 12:10:00,77.5,47.8,30.09,SSE,158,3.4,3.4,35,0.00,,---,0.00,VWS V14.01,2013-02-21 17:10:00,
2013-02-21 12:11:00,77.5,47.0,30.09,SSE,158,6.0,6.0,34,0.00,,---,0.00,VWS V14.01,2013-02-21 17:11:00,
2013-02-21 12:12:00,77.7,47.1,30.09,SSE,158,2.0,6.0,34,0.00,,---,0.00,VWS V14.01,2013-02-21 17:12:00,
2013-02-21 12:13:00,77.9,47.3,30.09,SSE,158,8.1,8.1,34,0.00,,---,0.00,VWS V14.01,2013-02-21 17:13:00,
2013-02-21 12:14:00,78.1,46.7,30.09,NNE,22,0.9,3.8,33,0.00,,---,0.00,VWS V14.01,2013-02-21 17:14:00,
2013-02-21 12:15:00,77.9,47.3,30.09,WSW,248,2.0,3.1,34,0.00,,---,0.00,VWS V14.01,2013-02-21 17:15:00,
2013-02-21 12:16:00,78.4,47.8,30.09,SE,135,1.3,2.0,34,0.00,,---,0.00,VWS V14.01,2013-02-21 17:16:00,
2013-02-21 12:17:00,78.6,47.9,30.09,SSE,158,3.1,3.1,34,0.00,,---,0.00,VWS V14.01,2013-02-21 17:17:00,
2013-02-21 12:18:00,78.8,47.3,30.09,SSE,158,6.0,6.0,33,0.00,,---,0.00,VWS V14.01,2013-02-21 17:18:00,
2013-02-21 12:19:00,79.9,48.2,30.06,ESE,112,1.3,2.7,33,0.00,,---,0.00,VWS V14.01,2013-02-21 17:19:00,
2013-02-21 12:20:00,78.4,47.0,30.09,SSE,158,3.8,4.5,33,0.00,,---,0.00,VWS V14.01,2013-02-21 17:20:00,
2013-02-21 12:21:00,78.3,46.8,30.09,South,180,10.7,10.7,33,0.00,,---,0.00,VWS V14.01,2013-02-21 17:21:00,
2013-02-21 12:22:00,77.9,46.5,30.09,SSE,158,3.6,10.7,33,0.00,,---,0.00,VWS V14.01,2013-02-21 17:22:00,
2013-02-21 12:23:00,78.1,46.7,30.09,SSE,158,3.8,6.3,33,0.00,,---,0.00,VWS V14.01,2013-02-21 17:23:00,
2013-02-21 12:24:00,80.2,48.5,30.06,SSW,202,2.5,2.5,33,0.00,,---,0.00,VWS V14.01,2013-02-21 17:24:00,
2013-02-21 12:25:00,78.4,47.8,30.09,SE,135,0.0,2.9,34,0.00,,---,0.00,VWS V14.01,2013-02-21 17:25:00,
2013-02-21 12:26:00,79.3,48.6,30.09,South,180,0.0,3.1,34,0.00,,---,0.00,VWS V14.01,2013-02-21 17:26:00,
2013-02-21 12:27:00,79.3,47.8,30.09,SSE,158,2.9,4.5,33,0.00,,---,0.00,VWS V14.01,2013-02-21 17:27:00,
2013-02-21 12:28:00,79.5,47.9,30.06,SSE,158,0.0,2.9,33,0.00,,---,0.00,VWS V14.01,2013-02-21 17:28:00,
2013-02-21 12:29:00,80.4,47.9,30.06,SSE,158,0.0,1.6,32,0.00,,---,0.00,VWS V14.01,2013-02-21 17:29:00,
2013-02-21 12:30:00,79.9,48.2,30.06,SSE,158,3.4,3.4,33,0.00,,---,0.00,VWS V14.01,2013-02-21 17:30:00,
2013-02-21 12:31:00,79.9,48.2,30.06,SSE,158,2.9,4.0,33,0.00,,---,0.00,VWS V14.01,2013-02-21 17:31:00,
2013-02-21 12:32:00,79.7,47.3,30.06,SE,135,2.9,2.9,32,0.00,,---,0.00,VWS V14.01,2013-02-21 17:32:00,
2013-02-21 12:33:00,80.2,48.5,30.06,SSE,158,1.1,2.9,33,0.00,,---,0.00,VWS V14.01,2013-02-21 17:33:00,
2013-02-21 12:34:00,80.6,48.0,30.06,SSE,158,2.2,2.5,32,0.00,,---,0.00,VWS V14.01,2013-02-21 17:34:00,
2013-02-21 12:35:00,81.3,47.8,30.06,South,180,2.7,2.7,31,0.00,,---,0.00,VWS V14.01,2013-02-21 17:35:00,
2013-02-21 12:36:00,80.6,48.0,30.06,SE,135,3.4,3.4,32,0.00,,---,0.00,VWS V14.01,2013-02-21 17:36:00,
2013-02-21 12:37:00,80.4,47.9,30.06,SSE,158,2.2,3.8,32,0.00,,---,0.00,VWS V14.01,2013-02-21 17:37:00,
2013-02-21 12:38:00,80.4,47.9,30.06,SSE,158,1.6,2.5,32,0.00,,---,0.00,VWS V14.01,2013-02-21 17:38:00,
2013-02-21 12:39:00,80.4,47.9,30.06,SE,135,2.5,2.5,32,0.00,,---,0.00,VWS V14.01,2013-02-21 17:39:00,
2013-02-21 12:40:00,81.0,47.5,30.06,SSE,158,6.0,6.0,31,0.00,,---,0.00,VWS V14.01,2013-02-21 17:40:00,
2013-02-21 12:41:00,81.0,48.4,30.06,South,180,1.1,1.1,32,0.00,,---,0.00,VWS V14.01,2013-02-21 17:41:00,
2013-02-21 12:42:00,81.0,48.4,30.06,ESE,112,2.5,2.5,32,0.00,,---,0.00,VWS V14.01,2013-02-21 17:42:00,
2013-02-21 12:43:00,81.3,48.7,30.06,ESE,112,0.0,2.5,32,0.00,,---,0.00,VWS V14.01,2013-02-21 17:43:00,
2013-02-21 12:44:00,79.7,47.3,30.06,WSW,248,3.1,3.4,32,0.00,,---,0.00,VWS V14.01,2013-02-21 17:44:00,
2013-02-21 12:45:00,81.1,47.7,30.06,SSE,158,2.0,2.9,31,0.00,,---,0.00,VWS V14.01,2013-02-21 17:45:00,
2013-02-21 12:46:00,81.0,47.5,30.06,NNW,338,0.0,5.6,31,0.00,,---,0.00,VWS V14.01,2013-02-21 17:46:00,
2013-02-21 12:47:00,81.1,47.7,30.06,SSE,158,0.0,2.5,31,0.00,,---,0.00,VWS V14.01,2013-02-21 17:47:00,
2013-02-21 12:48:00,81.5,48.0,30.06,ESE,112,1.1,2.7,31,0.00,,---,0.00,VWS V14.01,2013-02-21 17:48:00,
2013-02-21 12:49:00,81.0,47.5,30.06,SSE,158,6.0,6.0,31,0.00,,---,0.00,VWS V14.01,2013-02-21 17:49:00,
2013-02-21 12:50:00,81.0,47.5,30.06,ESE,112,0.0,1.6,31,0.00,,---,0.00,VWS V14.01,2013-02-21 17:50:00,
2013-02-21 12:51:00,80.1,46.7,30.06,SSE,158,8.7,8.7,31,0.00,,---,0.00,VWS V14.01,2013-02-21 17:51:00,
2013-02-21 12:52:00,79.5,46.3,30.06,SSE,158,6.5,8.7,31,0.00,,---,0.00,VWS V14.01,2013-02-21 17:52:00,
2013-02-21 12:53:00,79.3,46.1,30.06,SSE,158,3.4,6.5,31,0.00,,---,0.00,VWS V14.01,2013-02-21 17:53:00,
2013-02-21 12:54:00,79.7,47.3,30.06,SSW,202,1.1,3.4,32,0.00,,---,0.00,VWS V14.01,2013-02-21 17:54:00,
2013-02-21 12:55:00,80.4,47.0,30.06,SSE,158,3.4,8.1,31,0.00,,---,0.00,VWS V14.01,2013-02-21 17:55:00,
2013-02-21 12:56:00,80.2,47.7,30.06,NNE,22,0.0,2.9,32,0.00,,---,0.00,VWS V14.01,2013-02-21 17:56:00,
2013-02-21 12:57:00,80.4,47.9,30.06,SW,225,4.3,4.3,32,0.00,,---,0.00,VWS V14.01,2013-02-21 17:57:00,
2013-02-21 12:58:00,80.4,47.9,30.06,SSE,158,1.1,4.3,32,0.00,,---,0.00,VWS V14.01,2013-02-21 17:58:00,
2013-02-21 12:59:00,81.0,47.5,30.06,ESE,112,0.0,1.6,31,0.00,,---,0.00,VWS V14.01,2013-02-21 17:59:00,
2013-02-21 13:00:00,80.2,46.9,30.06,SSW,202,7.4,7.4,31,0.00,,---,0.00,VWS V14.01,2013-02-21 18:00:00,
2013-02-21 13:01:00,81.3,47.8,30.06,South,180,2.5,2.7,31,0.00,,---,0.00,VWS V14.01,2013-02-21 18:01:00,
2013-02-21 13:02:00,81.3,47.8,30.06,South,180,5.4,5.4,31,0.00,,---,0.00,VWS V14.01,2013-02-21 18:02:00,
2013-02-21 13:03:00,81.0,47.5,30.06,SSW,202,5.6,5.6,31,0.00,,---,0.00,VWS V14.01,2013-02-21 18:03:00,
2013-02-21 13:04:00,80.4,47.0,30.06,SSE,158,3.4,8.1,31,0.00,,---,0.00,VWS V14.01,2013-02-21 18:04:00,
2013-02-21 13:05:00,80.8,47.4,30.06,SSE,158,2.0,3.4,31,0.00,,---,0.00,VWS V14.01,2013-02-21 18:05:00,
2013-02-21 13:06:00,79.9,46.6,30.06,SSW,202,5.4,5.4,31,0.00,,---,0.00,VWS V14.01,2013-02-21 18:06:00,
2013-02-21 13:07:00,79.9,46.6,30.06,SW,225,2.2,6.0,31,0.00,,---,0.00,VWS V14.01,2013-02-21 18:07:00,
2013-02-21 13:08:00,80.1,46.7,30.06,South,180,1.6,2.2,31,0.00,,---,0.00,VWS V14.01,2013-02-21 18:08:00,
2013-02-21 13:09:00,80.2,46.9,30.06,SSW,202,7.4,7.4,31,0.00,,---,0.00,VWS V14.01,2013-02-21 18:09:00,
2013-02-21 13:10:00,81.3,47.0,30.06,SSE,158,1.1,2.9,30,0.00,,---,0.00,VWS V14.01,2013-02-21 18:10:00,
2013-02-21 13:11:00,80.1,46.7,30.06,SSE,158,4.0,5.4,31,0.00,,---,0.00,VWS V14.01,2013-02-21 18:11:00,
2013-02-21 13:12:00,80.2,46.9,30.06,SSE,158,3.4,5.8,31,0.00,,---,0.00,VWS V14.01,2013-02-21 18:12:00,
2013-02-21 13:13:00,80.4,47.0,30.06,SSE,158,3.4,3.4,31,0.00,,---,0.00,VWS V14.01,2013-02-21 18:13:00,
2013-02-21 13:14:00,80.8,47.4,30.06,SSE,158,2.0,3.4,31,0.00,,---,0.00,VWS V14.01,2013-02-21 18:14:00,
2013-02-21 13:15:00,82.4,47.9,30.06,SSE,158,7.8,7.8,30,0.00,,---,0.00,VWS V14.01,2013-02-21 18:15:00,
2013-02-21 13:16:00,81.7,48.1,30.06,SSE,158,3.8,3.8,31,0.00,,---,0.00,VWS V14.01,2013-02-21 18:16:00,
2013-02-21 13:17:00,81.3,47.0,30.06,SSE,158,2.7,4.7,30,0.00,,---,0.00,VWS V14.01,2013-02-21 18:17:00,
2013-02-21 13:18:00,81.3,47.0,30.06,South,180,2.9,6.3,30,0.00,,---,0.00,VWS V14.01,2013-02-21 18:18:00,
2013-02-21 13:19:00,81.3,47.0,30.06,SSE,158,1.1,2.9,30,0.00,,---,0.00,VWS V14.01,2013-02-21 18:19:00,
2013-02-21 13:20:00,81.5,47.1,30.06,SSW,202,0.0,2.2,30,0.00,,---,0.00,VWS V14.01,2013-02-21 18:20:00,
2013-02-21 13:21:00,81.9,47.4,30.06,SSE,158,0.9,2.7,30,0.00,,---,0.00,VWS V14.01,2013-02-21 18:21:00,
2013-02-21 13:22:00,82.2,48.6,30.06,SSE,158,3.4,3.4,31,0.00,,---,0.00,VWS V14.01,2013-02-21 18:22:00,
2013-02-21 13:23:00,82.0,47.6,30.06,ESE,112,0.0,4.7,30,0.00,,---,0.00,VWS V14.01,2013-02-21 18:23:00,
2013-02-21 13:24:00,82.4,47.9,30.06,SSE,158,7.8,7.8,30,0.00,,---,0.00,VWS V14.01,2013-02-21 18:24:00,
2013-02-21 13:25:00,81.5,46.2,30.06,SSE,158,6.0,6.0,29,0.00,,---,0.00,VWS V14.01,2013-02-21 18:25:00,
2013-02-21 13:26:00,81.5,47.1,30.06,SSE,158,2.5,2.9,30,0.00,,---,0.00,VWS V14.01,2013-02-21 18:26:00,
2013-02-21 13:27:00,81.1,46.8,30.06,SSE,158,6.3,6.3,30,0.00,,---,0.00,VWS V14.01,2013-02-21 18:27:00,
2013-02-21 13:28:00,81.1,46.8,30.06,SSE,158,2.0,6.3,30,0.00,,---,0.00,VWS V14.01,2013-02-21 18:28:00,
2013-02-21 13:29:00,81.5,47.1,30.06,SSW,202,0.0,2.2,30,0.00,,---,0.00,VWS V14.01,2013-02-21 18:29:00,
2013-02-21 13:30:00,82.4,47.0,30.06,ESE,112,5.4,5.6,29,0.00,,---,0.00,VWS V14.01,2013-02-21 18:30:00,
2013-02-21 13:31:00,81.9,47.4,30.06,SSE,158,4.3,4.9,30,0.00,,---,0.00,VWS V14.01,2013-02-21 18:31:00,
2013-02-21 13:32:00,81.9,47.4,30.06,SSE,158,4.9,6.5,30,0.00,,---,0.00,VWS V14.01,2013-02-21 18:32:00,
2013-02-21 13:33:00,82.0,47.6,30.06,SSE,158,2.7,5.4,30,0.00,,---,0.00,VWS V14.01,2013-02-21 18:33:00,
2013-02-21 13:34:00,81.5,46.2,30.06,SSE,158,6.0,6.0,29,0.00,,---,0.00,VWS V14.01,2013-02-21 18:34:00,
2013-02-21 13:35:00,82.0,46.7,30.03,SSW,202,0.9,2.5,29,0.00,,---,0.00,VWS V14.01,2013-02-21 18:35:00,
2013-02-21 13:36:00,81.9,46.5,30.06,SSE,158,2.0,4.0,29,0.00,,---,0.00,VWS V14.01,2013-02-21 18:36:00,
2013-02-21 13:37:00,81.7,46.4,30.06,SSW,202,4.9,5.8,29,0.00,,---,0.00,VWS V14.01,2013-02-21 18:37:00,
2013-02-21 13:38:00,82.2,46.8,30.06,SSE,158,1.6,4.9,29,0.00,,---,0.00,VWS V14.01,2013-02-21 18:38:00,
2013-02-21 13:39:00,82.4,47.0,30.06,SSE,158,5.8,5.8,29,0.00,,---,0.00,VWS V14.01,2013-02-21 18:39:00,
2013-02-21 13:40:00,82.2,45.9,30.03,South,180,4.7,5.8,28,0.00,,---,0.00,VWS V14.01,2013-02-21 18:40:00,
2013-02-21 13:41:00,82.2,46.8,30.06,SSE,158,2.9,2.9,29,0.00,,---,0.00,VWS V14.01,2013-02-21 18:41:00,
2013-02-21 13:42:00,81.7,46.4,30.06,South,180,2.9,5.4,29,0.00,,---,0.00,VWS V14.01,2013-02-21 18:42:00,
2013-02-21 13:43:00,82.0,46.7,30.06,SW,225,2.5,2.9,29,0.00,,---,0.00,VWS V14.01,2013-02-21 18:43:00,
2013-02-21 13:44:00,82.0,46.7,30.03,SSW,202,0.9,2.5,29,0.00,,---,0.00,VWS V14.01,2013-02-21 18:44:00,
2013-02-21 13:45:00,81.1,45.0,30.03,SSE,158,6.9,6.9,28,0.00,,---,0.00,VWS V14.01,2013-02-21 18:45:00,
2013-02-21 13:46:00,82.6,47.1,30.03,South,180,6.3,6.3,29,0.00,,---,0.00,VWS V14.01,2013-02-21 18:46:00,
2013-02-21 13:47:00,82.2,45.9,30.03,East,90,2.0,6.3,28,0.00,,---,0.00,VWS V14.01,2013-02-21 18:47:00,
2013-02-21 13:48:00,82.4,46.1,30.03,ESE,112,3.1,3.1,28,0.00,,---,0.00,VWS V14.01,2013-02-21 18:48:00,
2013-02-21 13:49:00,82.2,45.9,30.03,SSE,158,2.9,5.8,28,0.00,,---,0.00,VWS V14.01,2013-02-21 18:49:00,
2013-02-21 13:50:00,81.0,45.8,30.03,SSE,158,2.9,5.8,29,0.00,,---,0.00,VWS V14.01,2013-02-21 18:50:00,
2013-02-21 13:51:00,82.0,45.8,30.03,SE,135,4.3,5.8,28,0.00,,---,0.00,VWS V14.01,2013-02-21 18:51:00,
2013-02-21 13:52:00,81.7,45.4,30.03,SSW,202,6.5,6.5,28,0.00,,---,0.00,VWS V14.01,2013-02-21 18:52:00,
2013-02-21 13:53:00,81.3,45.1,30.03,SE,135,5.6,6.5,28,0.00,,---,0.00,VWS V14.01,2013-02-21 18:53:00,
2013-02-21 13:54:00,81.1,45.0,30.03,SSE,158,6.9,6.9,28,0.00,,---,0.00,VWS V14.01,2013-02-21 18:54:00,
2013-02-21 13:55:00,82.0,46.7,30.03,SSE,158,4.9,5.4,29,0.00,,---,0.00,VWS V14.01,2013-02-21 18:55:00,
2013-02-21 13:56:00,81.0,45.8,30.03,ESE,112,1.1,5.4,29,0.00,,---,0.00,VWS V14.01,2013-02-21 18:56:00,
2013-02-21 13:57:00,81.0,45.8,30.03,SSE,158,5.6,7.8,29,0.00,,---,0.00,VWS V14.01,2013-02-21 18:57:00,
2013-02-21 13:58:00,80.8,45.6,30.03,SSE,158,5.8,8.1,29,0.00,,---,0.00,VWS V14.01,2013-02-21 18:58:00,
2013-02-21 13:59:00,81.0,45.8,30.03,SSE,158,2.9,5.8,29,0.00,,---,0.00,VWS V14.01,2013-02-21 18:59:00,
2013-02-21 14:00:00,82.6,47.1,30.03,SSW,202,1.1,1.1,29,0.00,,---,0.00,VWS V14.01,2013-02-21 19:00:00,
2013-02-21 14:01:00,81.1,45.9,30.03,SSE,158,1.6,8.1,29,0.00,,---,0.00,VWS V14.01,2013-02-21 19:01:00,
2013-02-21 14:02:00,81.5,46.2,30.03,NNE,22,0.0,1.6,29,0.00,,---,0.00,VWS V14.01,2013-02-21 19:02:00,
2013-02-21 14:03:00,82.2,47.7,30.03,SSE,158,3.4,6.5,30,0.00,,---,0.00,VWS V14.01,2013-02-21 19:03:00,
2013-02-21 14:04:00,82.0,46.7,30.03,SSE,158,4.9,5.4,29,0.00,,---,0.00,VWS V14.01,2013-02-21 19:04:00,
2013-02-21 14:05:00,84.0,48.4,30.03,NNW,338,0.0,3.1,29,0.00,,---,0.00,VWS V14.01,2013-02-21 19:05:00,
2013-02-21 14:06:00,81.5,46.2,30.03,SSE,158,3.4,6.3,29,0.00,,---,0.00,VWS V14.01,2013-02-21 19:06:00,
2013-02-21 14:07:00,82.0,47.6,30.03,SSE,158,0.0,3.4,30,0.00,,---,0.00,VWS V14.01,2013-02-21 19:07:00,
2013-02-21 14:08:00,82.6,47.1,30.03,SSW,202,1.1,1.6,29,0.00,,---,0.00,VWS V14.01,2013-02-21 19:08:00,
2013-02-21 14:09:00,82.6,47.1,30.03,SSW,202,1.1,1.1,29,0.00,,---,0.00,VWS V14.01,2013-02-21 19:09:00,
2013-02-21 14:10:00,84.9,48.2,30.03,ESE,112,1.1,2.9,28,0.00,,---,0.00,VWS V14.01,2013-02-21 19:10:00,
2013-02-21 14:11:00,83.7,48.1,30.03,ESE,112,0.0,2.5,29,0.00,,---,0.00,VWS V14.01,2013-02-21 19:11:00,
2013-02-21 14:12:00,83.8,48.2,30.03,East,90,2.7,2.7,29,0.00,,---,0.00,VWS V14.01,2013-02-21 19:12:00,
2013-02-21 14:13:00,84.0,48.4,30.03,SSE,158,2.5,2.7,29,0.00,,---,0.00,VWS V14.01,2013-02-21 19:13:00,
2013-02-21 14:14:00,84.0,48.4,30.03,West,270,0.9,3.1,29,0.00,,---,0.00,VWS V14.01,2013-02-21 19:14:00,
2013-02-21 14:15:00,84.9,47.2,30.03,SSE,158,2.0,2.2,27,0.00,,---,0.00,VWS V14.01,2013-02-21 19:15:00,
2013-02-21 14:16:00,84.6,48.8,30.03,South,180,3.6,3.6,29,0.00,,---,0.00,VWS V14.01,2013-02-21 19:16:00,
2013-02-21 14:17:00,84.7,49.0,30.03,SSW,202,0.0,3.6,29,0.00,,---,0.00,VWS V14.01,2013-02-21 19:17:00,
2013-02-21 14:18:00,84.9,48.2,30.03,WSW,248,0.9,3.4,28,0.00,,---,0.00,VWS V14.01,2013-02-21 19:18:00,
2013-02-21 14:19:00,85.6,47.9,30.03,WNW,292,0.0,2.5,27,0.00,,---,0.00,VWS V14.01,2013-02-21 19:19:00,
2013-02-21 14:20:00,85.1,48.4,30.03,SSE,158,1.3,2.5,28,0.00,,---,0.00,VWS V14.01,2013-02-21 19:20:00,
2013-02-21 14:21:00,84.9,48.2,30.03,ESE,112,2.5,2.5,28,0.00,,---,0.00,VWS V14.01,2013-02-21 19:21:00,
2013-02-21 14:22:00,84.7,47.1,30.03,SSW,202,0.0,2.5,27,0.00,,---,0.00,VWS V14.01,2013-02-21 19:22:00,
2013-02-21 14:23:00,84.9,48.2,30.03,SSE,158,1.1,2.0,28,0.00,,---,0.00,VWS V14.01,2013-02-21 19:23:00,
2013-02-21 14:24:00,85.5,47.7,30.03,SE,135,0.9,3.8,27,0.00,,---,0.00,VWS V14.01,2013-02-21 19:24:00,
2013-02-21 14:25:00,84.9,47.2,30.03,SSE,158,0.0,1.6,27,0.00,,---,0.00,VWS V14.01,2013-02-21 19:25:00,
2013-02-21 14:26:00,85.1,48.4,30.03,SE,135,1.1,1.1,28,0.00,,---,0.00,VWS V14.01,2013-02-21 19:26:00,
2013-02-21 14:27:00,84.9,47.2,30.03,ESE,112,0.0,1.3,27,0.00,,---,0.00,VWS V14.01,2013-02-21 19:27:00,
2013-02-21 14:28:00,84.9,47.2,30.03,ENE,68,0.0,2.2,27,0.00,,---,0.00,VWS V14.01,2013-02-21 19:28:00,
2013-02-21 14:29:00,84.7,46.1,30.03,NNW,338,1.6,4.0,26,0.00,,---,0.00,VWS V14.01,2013-02-21 19:29:00,
2013-02-21 14:30:00,85.6,47.9,30.03,SE,135,0.0,1.6,27,0.00,,---,0.00,VWS V14.01,2013-02-21 19:30:00,
2013-02-21 14:31:00,85.5,47.7,30.03,WSW,248,0.9,2.0,27,0.00,,---,0.00,VWS V14.01,2013-02-21 19:31:00,
2013-02-21 14:32:00,85.3,46.5,30.03,SE,135,0.0,2.9,26,0.00,,---,0.00,VWS V14.01,2013-02-21 19:32:00,
2013-02-21 14:33:00,85.5,47.7,30.03,SE,135,1.3,3.8,27,0.00,,---,0.00,VWS V14.01,2013-02-21 19:33:00,
2013-02-21 14:34:00,85.1,46.4,30.03,SE,135,0.9,3.8,26,0.00,,---,0.00,VWS V14.01,2013-02-21 19:34:00,
2013-02-21 14:35:00,83.8,45.3,30.03,SE,135,1.1,2.9,26,0.00,,---,0.00,VWS V14.01,2013-02-21 19:35:00,
2013-02-21 14:36:00,85.1,46.4,30.03,ESE,112,2.7,2.7,26,0.00,,---,0.00,VWS V14.01,2013-02-21 19:36:00,
2013-02-21 14:37:00,85.1,46.4,30.03,North,0,0.0,3.6,26,0.00,,---,0.00,VWS V14.01,2013-02-21 19:37:00,
2013-02-21 14:38:00,84.7,46.1,30.03,SE,135,4.0,4.0,26,0.00,,---,0.00,VWS V14.01,2013-02-21 19:38:00,
2013-02-21 14:39:00,84.7,46.1,30.03,SSW,202,2.0,4.0,26,0.00,,---,0.00,VWS V14.01,2013-02-21 19:39:00,
2013-02-21 14:40:00,84.6,45.9,30.03,NNE,22,0.0,0.0,26,0.00,,---,0.00,VWS V14.01,2013-02-21 19:40:00,
2013-02-21 14:41:00,84.0,44.5,30.03,South,180,2.5,7.2,25,0.00,,---,0.00,VWS V14.01,2013-02-21 19:41:00,
2013-02-21 14:42:00,83.5,45.0,30.03,SE,135,0.9,5.4,26,0.00,,---,0.00,VWS V14.01,2013-02-21 19:42:00,
2013-02-21 14:43:00,83.8,45.3,30.03,SSW,202,0.0,3.6,26,0.00,,---,0.00,VWS V14.01,2013-02-21 19:43:00,
2013-02-21 14:44:00,83.8,45.3,30.03,SE,135,1.1,2.9,26,0.00,,---,0.00,VWS V14.01,2013-02-21 19:44:00,
2013-02-21 14:45:00,83.7,45.2,30.03,SSW,202,1.1,2.7,26,0.00,,---,0.00,VWS V14.01,2013-02-21 19:45:00,
2013-02-21 14:46:00,84.2,45.6,30.03,SSE,158,2.0,4.3,26,0.00,,---,0.00,VWS V14.01,2013-02-21 19:46:00,
2013-02-21 14:47:00,84.2,44.6,30.03,SSE,158,0.9,4.0,25,0.00,,---,0.00,VWS V14.01,2013-02-21 19:47:00,
2013-02-21 14:48:00,84.2,45.6,30.03,ESE,112,2.0,2.0,26,0.00,,---,0.00,VWS V14.01,2013-02-21 19:48:00,
2013-02-21 14:49:00,84.6,45.9,30.03,NNE,22,0.0,2.0,26,0.00,,---,0.00,VWS V14.01,2013-02-21 19:49:00,
2013-02-21 14:50:00,85.8,48.0,30.00,SSE,158,0.0,0.0,27,0.00,,---,0.00,VWS V14.01,2013-02-21 19:50:00,
2013-02-21 14:51:00,84.4,44.8,30.03,SSE,158,1.3,3.1,25,0.00,,---,0.00,VWS V14.01,2013-02-21 19:51:00,
2013-02-21 14:52:00,83.8,45.3,30.03,SSE,158,2.2,4.9,26,0.00,,---,0.00,VWS V14.01,2013-02-21 19:52:00,
2013-02-21 14:53:00,83.7,45.2,30.03,SSW,202,0.9,3.1,26,0.00,,---,0.00,VWS V14.01,2013-02-21 19:53:00,
2013-02-21 14:54:00,83.7,45.2,30.03,SSW,202,1.1,2.7,26,0.00,,---,0.00,VWS V14.01,2013-02-21 19:54:00,
2013-02-21 14:55:00,86.2,46.3,30.00,South,180,1.3,2.0,25,0.00,,---,0.00,VWS V14.01,2013-02-21 19:55:00,
2013-02-21 14:56:00,84.2,45.6,30.03,ESE,112,0.0,2.9,26,0.00,,---,0.00,VWS V14.01,2013-02-21 19:56:00,
2013-02-21 14:57:00,85.1,47.4,30.03,SW,225,2.5,2.5,27,0.00,,---,0.00,VWS V14.01,2013-02-21 19:57:00,
2013-02-21 14:58:00,85.1,47.4,30.00,East,90,2.5,3.4,27,0.00,,---,0.00,VWS V14.01,2013-02-21 19:58:00,
2013-02-21 14:59:00,85.8,48.0,30.00,SSE,158,0.0,2.5,27,0.00,,---,0.00,VWS V14.01,2013-02-21 19:59:00,
2013-02-21 15:00:00,83.5,44.0,30.00,SE,135,0.9,1.6,25,0.00,,---,0.00,VWS V14.01,2013-02-21 20:00:00,
2013-02-21 15:01:00,86.4,47.5,30.00,SSE,158,0.0,0.0,26,0.00,,---,0.00,VWS V14.01,2013-02-21 20:01:00,
2013-02-21 15:02:00,86.5,47.6,30.00,SSW,202,0.0,0.0,26,0.00,,---,0.00,VWS V14.01,2013-02-21 20:02:00,
2013-02-21 15:03:00,86.5,47.6,30.00,ENE,68,0.0,3.8,26,0.00,,---,0.00,VWS V14.01,2013-02-21 20:03:00,
2013-02-21 15:04:00,85.6,45.8,30.00,South,180,1.3,2.0,25,0.00,,---,0.00,VWS V14.01,2013-02-21 20:04:00,
2013-02-21 15:05:00,82.8,44.4,30.00,WNW,292,0.0,0.0,26,0.00,,---,0.00,VWS V14.01,2013-02-21 20:05:00,
2013-02-21 15:06:00,84.4,44.8,30.00,East,90,2.7,3.1,25,0.00,,---,0.00,VWS V14.01,2013-02-21 20:06:00,
2013-02-21 15:07:00,83.8,44.3,30.00,SE,135,0.0,2.7,25,0.00,,---,0.00,VWS V14.01,2013-02-21 20:07:00,
2013-02-21 15:08:00,83.7,44.2,30.00,SSW,202,1.6,2.5,25,0.00,,---,0.00,VWS V14.01,2013-02-21 20:08:00,
2013-02-21 15:09:00,83.5,44.0,30.00,SE,135,0.9,1.6,25,0.00,,---,0.00,VWS V14.01,2013-02-21 20:09:00,
2013-02-21 15:10:00,83.3,46.8,30.00,SSE,158,0.9,0.9,28,0.00,,---,0.00,VWS V14.01,2013-02-21 20:10:00,
2013-02-21 15:11:00,83.3,44.9,30.00,SE,135,0.0,0.0,26,0.00,,---,0.00,VWS V14.01,2013-02-21 20:11:00,
2013-02-21 15:12:00,83.1,44.7,30.00,WSW,248,2.5,2.5,26,0.00,,---,0.00,VWS V14.01,2013-02-21 20:12:00,
2013-02-21 15:13:00,82.9,44.6,30.00,ESE,112,0.0,2.5,26,0.00,,---,0.00,VWS V14.01,2013-02-21 20:13:00,
2013-02-21 15:14:00,82.8,44.4,30.00,WNW,292,0.0,0.0,26,0.00,,---,0.00,VWS V14.01,2013-02-21 20:14:00,
2013-02-21 15:15:00,84.9,46.2,30.00,SE,135,0.9,2.7,26,0.00,,---,0.00,VWS V14.01,2013-02-21 20:15:00,
2013-02-21 15:16:00,82.8,45.4,30.00,East,90,1.6,1.6,27,0.00,,---,0.00,VWS V14.01,2013-02-21 20:16:00,
2013-02-21 15:17:00,83.1,45.7,30.00,SSE,158,1.1,2.2,27,0.00,,---,0.00,VWS V14.01,2013-02-21 20:17:00,
2013-02-21 15:18:00,83.3,46.8,30.00,SSE,158,0.0,1.1,28,0.00,,---,0.00,VWS V14.01,2013-02-21 20:18:00,
2013-02-21 15:19:00,83.3,46.8,30.00,SSE,158,0.9,0.9,28,0.00,,---,0.00,VWS V14.01,2013-02-21 20:19:00,
2013-02-21 15:20:00,86.0,46.1,30.00,SSW,202,1.1,1.3,25,0.00,,---,0.00,VWS V14.01,2013-02-21 20:20:00,
2013-02-21 15:21:00,84.6,46.9,30.00,East,90,0.0,0.0,27,0.00,,---,0.00,VWS V14.01,2013-02-21 20:21:00,
2013-02-21 15:22:00,84.7,47.1,30.00,SSE,158,2.0,2.9,27,0.00,,---,0.00,VWS V14.01,2013-02-21 20:22:00,
2013-02-21 15:23:00,84.7,47.1,30.00,SSE,158,2.0,2.0,27,0.00,,---,0.00,VWS V14.01,2013-02-21 20:23:00,
2013-02-21 15:24:00,84.9,46.2,30.00,SE,135,0.9,2.7,26,0.00,,---,0.00,VWS V14.01,2013-02-21 20:24:00,
2013-02-21 15:25:00,86.4,45.3,30.00,SSE,158,2.0,2.0,24,0.00,,---,0.00,VWS V14.01,2013-02-21 20:25:00,
2013-02-21 15:26:00,85.5,46.7,30.00,SSE,158,1.3,3.8,26,0.00,,---,0.00,VWS V14.01,2013-02-21 20:26:00,
2013-02-21 15:27:00,85.6,46.8,30.00,SSE,158,0.0,1.3,26,0.00,,---,0.00,VWS V14.01,2013-02-21 20:27:00,
2013-02-21 15:28:00,86.0,46.1,30.00,SE,135,0.0,0.0,25,0.00,,---,0.00,VWS V14.01,2013-02-21 20:28:00,
2013-02-21 15:29:00,86.0,46.1,30.00,SSW,202,1.1,1.3,25,0.00,,---,0.00,VWS V14.01,2013-02-21 20:29:00,
2013-02-21 15:30:00,86.7,44.5,30.00,SE,135,0.0,4.0,23,0.00,,---,0.00,VWS V14.01,2013-02-21 20:30:00,
2013-02-21 15:31:00,86.0,45.0,30.00,East,90,1.3,2.2,24,0.00,,---,0.00,VWS V14.01,2013-02-21 20:31:00,
2013-02-21 15:32:00,86.0,45.0,30.00,SSW,202,0.0,2.0,24,0.00,,---,0.00,VWS V14.01,2013-02-21 20:32:00,
2013-02-21 15:33:00,86.0,45.0,30.00,SSE,158,0.0,0.0,24,0.00,,---,0.00,VWS V14.01,2013-02-21 20:33:00,
2013-02-21 15:34:00,86.4,45.3,30.00,SSE,158,1.3,2.0,24,0.00,,---,0.00,VWS V14.01,2013-02-21 20:34:00,
2013-02-21 15:35:00,86.5,43.2,29.97,SSE,158,3.4,3.4,22,0.00,,---,0.00,VWS V14.01,2013-02-21 20:35:00,
2013-02-21 15:36:00,86.2,44.1,30.00,South,180,1.1,2.7,23,0.00,,---,0.00,VWS V14.01,2013-02-21 20:36:00,
2013-02-21 15:37:00,86.4,44.2,30.00,SE,135,2.5,2.7,23,0.00,,---,0.00,VWS V14.01,2013-02-21 20:37:00,
2013-02-21 15:38:00,86.4,44.2,30.00,NNE,22,4.0,4.0,23,0.00,,---,0.00,VWS V14.01,2013-02-21 20:38:00,
2013-02-21 15:39:00,86.7,44.5,30.00,SE,135,0.0,4.0,23,0.00,,---,0.00,VWS V14.01,2013-02-21 20:39:00,
2013-02-21 15:40:00,86.7,43.4,29.97,SE,135,0.0,1.1,22,0.00,,---,0.00,VWS V14.01,2013-02-21 20:40:00,
2013-02-21 15:41:00,86.9,44.7,30.00,South,180,1.1,2.9,23,0.00,,---,0.00,VWS V14.01,2013-02-21 20:41:00,
2013-02-21 15:42:00,86.9,44.7,30.00,SE,135,2.0,2.9,23,0.00,,---,0.00,VWS V14.01,2013-02-21 20:42:00,
2013-02-21 15:43:00,86.7,43.4,29.97,ESE,112,1.1,2.2,22,0.00,,---,0.00,VWS V14.01,2013-02-21 20:43:00,
2013-02-21 15:44:00,86.5,43.2,29.97,SSE,158,3.4,3.4,22,0.00,,---,0.00,VWS V14.01,2013-02-21 20:44:00,
2013-02-21 15:45:00,85.6,42.5,29.97,SSE,158,2.7,2.7,22,0.00,,---,0.00,VWS V14.01,2013-02-21 20:45:00,
2013-02-21 15:46:00,86.5,43.2,29.97,SSE,158,0.0,2.5,22,0.00,,---,0.00,VWS V14.01,2013-02-21 20:46:00,
2013-02-21 15:47:00,86.5,43.2,29.97,South,180,0.0,1.6,22,0.00,,---,0.00,VWS V14.01,2013-02-21 20:47:00,
2013-02-21 15:48:00,86.5,43.2,29.97,SW,225,1.1,2.2,22,0.00,,---,0.00,VWS V14.01,2013-02-21 20:48:00,
2013-02-21 15:49:00,86.7,43.4,29.97,SE,135,0.0,1.1,22,0.00,,---,0.00,VWS V14.01,2013-02-21 20:49:00,
2013-02-21 15:50:00,84.0,41.1,30.00,SSE,158,3.6,4.7,22,0.00,,---,0.00,VWS V14.01,2013-02-21 20:50:00,
2013-02-21 15:51:00,86.7,42.2,29.97,SSE,158,4.9,4.9,21,0.00,,---,0.00,VWS V14.01,2013-02-21 20:51:00,
2013-02-21 15:52:00,86.0,41.6,29.97,SSE,158,1.6,5.4,21,0.00,,---,0.00,VWS V14.01,2013-02-21 20:52:00,
2013-02-21 15:53:00,85.8,42.6,29.97,SSE,158,2.7,2.7,22,0.00,,---,0.00,VWS V14.01,2013-02-21 20:53:00,
2013-02-21 15:54:00,85.6,42.5,29.97,SSE,158,2.7,2.7,22,0.00,,---,0.00,VWS V14.01,2013-02-21 20:54:00,
2013-02-21 15:55:00,84.6,42.7,30.00,SE,135,0.0,0.0,23,0.00,,---,0.00,VWS V14.01,2013-02-21 20:55:00,
2013-02-21 15:56:00,84.9,41.9,29.97,SSE,158,3.4,5.4,22,0.00,,---,0.00,VWS V14.01,2013-02-21 20:56:00,
2013-02-21 15:57:00,84.9,41.9,29.97,SSE,158,2.9,4.0,22,0.00,,---,0.00,VWS V14.01,2013-02-21 20:57:00,
2013-02-21 15:58:00,84.2,41.3,30.00,SSE,158,4.7,4.7,22,0.00,,---,0.00,VWS V14.01,2013-02-21 20:58:00,
2013-02-21 15:59:00,84.0,41.1,30.00,SE,135,2.7,4.7,22,0.00,,---,0.00,VWS V14.01,2013-02-21 20:59:00,
2013-02-21 16:00:00,85.3,43.3,30.00,South,180,1.6,1.6,23,0.00,,---,0.00,VWS V14.01,2013-02-21 21:00:00,
2013-02-21 16:01:00,84.0,41.1,30.00,SSE,158,1.1,4.0,22,0.00,,---,0.00,VWS V14.01,2013-02-21 21:01:00,
2013-02-21 16:02:00,84.2,41.3,30.00,North,0,2.5,2.5,22,0.00,,---,0.00,VWS V14.01,2013-02-21 21:02:00,
2013-02-21 16:03:00,84.4,42.6,30.00,SSE,158,0.0,2.5,23,0.00,,---,0.00,VWS V14.01,2013-02-21 21:03:00,
2013-02-21 16:04:00,84.6,42.7,30.00,SE,135,0.0,0.0,23,0.00,,---,0.00,VWS V14.01,2013-02-21 21:04:00,
2013-02-21 16:05:00,83.5,41.8,30.00,ESE,112,1.3,2.7,23,0.00,,---,0.00,VWS V14.01,2013-02-21 21:05:00,
2013-02-21 16:06:00,84.7,42.9,30.00,SSE,158,0.0,1.3,23,0.00,,---,0.00,VWS V14.01,2013-02-21 21:06:00,
2013-02-21 16:07:00,85.1,43.2,30.00,SSW,202,0.0,0.0,23,0.00,,---,0.00,VWS V14.01,2013-02-21 21:07:00,
2013-02-21 16:08:00,85.3,43.3,30.00,SE,135,0.0,0.0,23,0.00,,---,0.00,VWS V14.01,2013-02-21 21:08:00,
2013-02-21 16:09:00,82.6,42.2,30.00,South,180,0.9,2.2,24,0.00,,---,0.00,VWS V14.01,2013-02-21 21:09:00,
2013-02-21 16:10:00,85.3,43.3,30.00,SE,135,4.0,6.5,23,0.00,,---,0.00,VWS V14.01,2013-02-21 21:10:00,
2013-02-21 16:11:00,84.7,42.9,30.00,SSE,158,4.0,4.0,23,0.00,,---,0.00,VWS V14.01,2013-02-21 21:11:00,
2013-02-21 16:12:00,84.4,42.6,30.00,SE,135,2.7,4.0,23,0.00,,---,0.00,VWS V14.01,2013-02-21 21:12:00,
2013-02-21 16:13:00,83.8,42.1,30.00,SE,135,1.3,2.7,23,0.00,,---,0.00,VWS V14.01,2013-02-21 21:13:00,
2013-02-21 16:14:00,82.0,43.8,30.00,SSE,158,3.6,6.0,26,0.00,,---,0.00,VWS V14.01,2013-02-21 21:14:00,
2013-02-21 16:15:00,83.3,41.7,30.00,SE,135,1.1,2.0,23,0.00,,---,0.00,VWS V14.01,2013-02-21 21:15:00,
2013-02-21 16:16:00,82.9,41.4,30.00,SSE,158,2.2,2.9,23,0.00,,---,0.00,VWS V14.01,2013-02-21 21:16:00,
2013-02-21 16:17:00,82.6,41.1,30.00,SSE,158,0.0,2.2,23,0.00,,---,0.00,VWS V14.01,2013-02-21 21:17:00,
2013-02-21 16:18:00,82.6,42.2,30.00,ENE,68,2.2,2.2,24,0.00,,---,0.00,VWS V14.01,2013-02-21 21:18:00,
2013-02-21 16:19:00,81.0,43.9,29.97,SE,135,0.0,0.0,27,0.00,,---,0.00,VWS V14.01,2013-02-21 21:19:00,
2013-02-21 16:20:00,82.6,43.2,30.00,SSE,158,0.0,0.9,25,0.00,,---,0.00,VWS V14.01,2013-02-21 21:20:00,
2013-02-21 16:21:00,82.6,43.2,30.00,SE,135,0.0,0.0,25,0.00,,---,0.00,VWS V14.01,2013-02-21 21:21:00,
2013-02-21 16:22:00,82.6,43.2,30.00,ESE,112,0.0,0.0,25,0.00,,---,0.00,VWS V14.01,2013-02-21 21:22:00,
2013-02-21 16:23:00,82.4,44.1,30.00,SSE,158,0.0,0.0,26,0.00,,---,0.00,VWS V14.01,2013-02-21 21:23:00,
2013-02-21 16:24:00,80.6,45.4,29.97,ESE,112,2.9,2.9,29,0.00,,---,0.00,VWS V14.01,2013-02-21 21:24:00,
2013-02-21 16:25:00,82.0,43.8,30.00,South,180,3.6,5.8,26,0.00,,---,0.00,VWS V14.01,2013-02-21 21:25:00,
2013-02-21 16:26:00,81.1,43.0,30.00,SSE,158,3.6,3.6,26,0.00,,---,0.00,VWS V14.01,2013-02-21 21:26:00,
2013-02-21 16:27:00,81.1,44.0,30.00,SSE,158,2.5,3.6,27,0.00,,---,0.00,VWS V14.01,2013-02-21 21:27:00,
2013-02-21 16:28:00,81.0,43.9,29.97,SSE,158,0.0,2.5,27,0.00,,---,0.00,VWS V14.01,2013-02-21 21:28:00,
2013-02-21 16:29:00,80.4,46.2,29.97,East,90,1.6,1.6,30,0.00,,---,0.00,VWS V14.01,2013-02-21 21:29:00,
2013-02-21 16:30:00,81.0,44.8,29.97,SE,135,0.0,0.0,28,0.00,,---,0.00,VWS V14.01,2013-02-21 21:30:00,
2013-02-21 16:31:00,81.0,44.8,29.97,SE,135,0.0,0.0,28,0.00,,---,0.00,VWS V14.01,2013-02-21 21:31:00,
2013-02-21 16:32:00,81.0,44.8,29.97,SE,135,0.0,0.0,28,0.00,,---,0.00,VWS V14.01,2013-02-21 21:32:00,
2013-02-21 16:33:00,80.8,45.6,29.97,SE,135,1.6,1.6,29,0.00,,---,0.00,VWS V14.01,2013-02-21 21:33:00,
2013-02-21 16:34:00,81.0,46.6,29.97,SSE,158,1.3,1.3,30,0.00,,---,0.00,VWS V14.01,2013-02-21 21:34:00,
2013-02-21 16:35:00,80.4,46.2,29.97,East,90,0.0,2.2,30,0.00,,---,0.00,VWS V14.01,2013-02-21 21:35:00,
2013-02-21 16:36:00,80.4,46.2,29.97,East,90,0.0,0.0,30,0.00,,---,0.00,VWS V14.01,2013-02-21 21:36:00,
2013-02-21 16:37:00,80.4,46.2,29.97,ESE,112,0.0,2.0,30,0.00,,---,0.00,VWS V14.01,2013-02-21 21:37:00,
2013-02-21 16:38:00,80.4,46.2,29.97,ESE,112,0.0,2.0,30,0.00,,---,0.00,VWS V14.01,2013-02-21 21:38:00,
2013-02-21 16:39:00,80.8,46.5,29.97,SSE,158,1.6,4.3,30,0.00,,---,0.00,VWS V14.01,2013-02-21 21:39:00,
2013-02-21 16:40:00,80.4,46.2,29.97,SE,135,0.0,1.1,30,0.00,,---,0.00,VWS V14.01,2013-02-21 21:40:00,
2013-02-21 16:41:00,80.6,46.3,29.97,SSE,158,1.6,2.9,30,0.00,,---,0.00,VWS V14.01,2013-02-21 21:41:00,
2013-02-21 16:42:00,80.6,46.3,29.97,SSE,158,0.0,1.6,30,0.00,,---,0.00,VWS V14.01,2013-02-21 21:42:00,
2013-02-21 16:43:00,81.0,46.6,29.97,ESE,112,0.9,0.9,30,0.00,,---,0.00,VWS V14.01,2013-02-21 21:43:00,
2013-02-21 16:44:00,80.4,46.2,29.97,SSE,158,4.0,4.0,30,0.00,,---,0.00,VWS V14.01,2013-02-21 21:44:00,
2013-02-21 16:45:00,81.0,46.6,29.97,SSE,158,0.0,1.6,30,0.00,,---,0.00,VWS V14.01,2013-02-21 21:45:00,
2013-02-21 16:46:00,81.1,46.8,29.97,SSE,158,2.7,2.7,30,0.00,,---,0.00,VWS V14.01,2013-02-21 21:46:00,
2013-02-21 16:47:00,81.0,46.6,29.97,SSW,202,2.9,2.9,30,0.00,,---,0.00,VWS V14.01,2013-02-21 21:47:00,
2013-02-21 16:48:00,80.8,46.5,29.97,SSE,158,4.3,4.3,30,0.00,,---,0.00,VWS V14.01,2013-02-21 21:48:00,
2013-02-21 16:49:00,80.1,46.7,29.97,South,180,1.6,3.6,31,0.00,,---,0.00,VWS V14.01,2013-02-21 21:49:00,
2013-02-21 16:50:00,80.8,46.5,29.97,South,180,0.9,2.0,30,0.00,,---,0.00,VWS V14.01,2013-02-21 21:50:00,
2013-02-21 16:51:00,80.6,46.3,29.97,SSW,202,1.6,6.0,30,0.00,,---,0.00,VWS V14.01,2013-02-21 21:51:00,
2013-02-21 16:52:00,80.6,46.3,29.97,SW,225,2.5,4.3,30,0.00,,---,0.00,VWS V14.01,2013-02-21 21:52:00,
2013-02-21 16:53:00,80.4,46.2,29.97,WSW,248,2.9,4.9,30,0.00,,---,0.00,VWS V14.01,2013-02-21 21:53:00,
2013-02-21 16:54:00,79.9,46.6,29.97,SSW,202,0.0,2.0,31,0.00,,---,0.00,VWS V14.01,2013-02-21 21:54:00,
2013-02-21 16:55:00,80.2,46.0,29.97,SW,225,0.9,3.8,30,0.00,,---,0.00,VWS V14.01,2013-02-21 21:55:00,
2013-02-21 16:56:00,80.2,46.9,29.97,SSW,202,2.2,3.6,31,0.00,,---,0.00,VWS V14.01,2013-02-21 21:56:00,
2013-02-21 16:57:00,80.4,47.0,29.97,SSW,202,4.7,7.4,31,0.00,,---,0.00,VWS V14.01,2013-02-21 21:57:00,
2013-02-21 16:58:00,80.1,46.7,29.97,SSE,158,3.6,4.7,31,0.00,,---,0.00,VWS V14.01,2013-02-21 21:58:00,
2013-02-21 16:59:00,80.1,46.7,29.97,South,180,1.6,3.6,31,0.00,,---,0.00,VWS V14.01,2013-02-21 21:59:00,
2013-02-21 17:00:00,79.5,46.3,29.97,SSW,202,1.1,2.0,31,0.00,,---,0.00,VWS V14.01,2013-02-21 22:00:00,
2013-02-21 17:01:00,80.1,46.7,29.97,SSW,202,2.0,2.5,31,0.00,,---,0.00,VWS V14.01,2013-02-21 22:01:00,
2013-02-21 17:02:00,80.1,46.7,29.97,SSW,202,2.7,2.7,31,0.00,,---,0.00,VWS V14.01,2013-02-21 22:02:00,
2013-02-21 17:03:00,79.9,46.6,29.97,SW,225,1.3,2.7,31,0.00,,---,0.00,VWS V14.01,2013-02-21 22:03:00,
2013-02-21 17:04:00,79.9,46.6,29.97,SSW,202,1.6,2.0,31,0.00,,---,0.00,VWS V14.01,2013-02-21 22:04:00,
2013-02-21 17:05:00,79.2,46.0,29.97,SSE,158,4.0,4.0,31,0.00,,---,0.00,VWS V14.01,2013-02-21 22:05:00,
2013-02-21 17:06:00,79.7,46.4,29.97,SSW,202,1.3,1.3,31,0.00,,---,0.00,VWS V14.01,2013-02-21 22:06:00,
2013-02-21 17:07:00,79.7,46.4,29.97,SSE,158,0.0,1.3,31,0.00,,---,0.00,VWS V14.01,2013-02-21 22:07:00,
2013-02-21 17:08:00,79.7,46.4,29.97,SE,135,2.0,3.4,31,0.00,,---,0.00,VWS V14.01,2013-02-21 22:08:00,
2013-02-21 17:09:00,79.5,46.3,29.97,SSW,202,1.1,2.0,31,0.00,,---,0.00,VWS V14.01,2013-02-21 22:09:00,
2013-02-21 17:10:00,79.2,46.0,29.97,SSW,202,0.0,0.0,31,0.00,,---,0.00,VWS V14.01,2013-02-21 22:10:00,
2013-02-21 17:11:00,79.5,46.3,29.97,SSW,202,1.1,1.6,31,0.00,,---,0.00,VWS V14.01,2013-02-21 22:11:00,
2013-02-21 17:12:00,79.5,46.3,29.97,ESE,112,2.5,3.1,31,0.00,,---,0.00,VWS V14.01,2013-02-21 22:12:00,
2013-02-21 17:13:00,79.2,46.0,29.97,South,180,1.1,3.6,31,0.00,,---,0.00,VWS V14.01,2013-02-21 22:13:00,
2013-02-21 17:14:00,79.2,46.0,29.97,SSE,158,4.0,4.0,31,0.00,,---,0.00,VWS V14.01,2013-02-21 22:14:00,
2013-02-21 17:15:00,79.2,46.0,29.97,SSW,202,1.3,2.0,31,0.00,,---,0.00,VWS V14.01,2013-02-21 22:15:00,
2013-02-21 17:16:00,79.2,46.0,29.97,SSE,158,0.0,1.6,31,0.00,,---,0.00,VWS V14.01,2013-02-21 22:16:00,
2013-02-21 17:17:00,79.0,45.8,29.97,ESE,112,0.0,3.1,31,0.00,,---,0.00,VWS V14.01,2013-02-21 22:17:00,
2013-02-21 17:18:00,79.2,46.0,29.97,ESE,112,0.0,0.0,31,0.00,,---,0.00,VWS V14.01,2013-02-21 22:18:00,
2013-02-21 17:19:00,79.2,46.0,29.97,SSW,202,0.0,0.0,31,0.00,,---,0.00,VWS V14.01,2013-02-21 22:19:00,
2013-02-21 17:20:00,78.8,45.6,29.97,SSW,202,3.6,4.7,31,0.00,,---,0.00,VWS V14.01,2013-02-21 22:20:00,
2013-02-21 17:21:00,79.0,45.8,29.97,SSW,202,1.1,2.7,31,0.00,,---,0.00,VWS V14.01,2013-02-21 22:21:00,
2013-02-21 17:22:00,79.0,45.8,29.97,SSE,158,3.8,3.8,31,0.00,,---,0.00,VWS V14.01,2013-02-21 22:22:00,
2013-02-21 17:23:00,79.0,45.8,29.97,SW,225,0.0,3.8,31,0.00,,---,0.00,VWS V14.01,2013-02-21 22:23:00,
2013-02-21 17:24:00,79.2,46.0,29.97,SSW,202,1.3,2.0,31,0.00,,---,0.00,VWS V14.01,2013-02-21 22:24:00,
2013-02-21 17:25:00,78.3,46.0,29.97,WSW,248,1.3,4.9,32,0.00,,---,0.00,VWS V14.01,2013-02-21 22:25:00,
2013-02-21 17:26:00,79.0,45.8,29.97,SSE,158,1.1,3.6,31,0.00,,---,0.00,VWS V14.01,2013-02-21 22:26:00,
2013-02-21 17:27:00,79.0,45.8,29.97,SE,135,1.6,3.4,31,0.00,,---,0.00,VWS V14.01,2013-02-21 22:27:00,
2013-02-21 17:28:00,78.8,45.6,29.97,South,180,2.9,2.9,31,0.00,,---,0.00,VWS V14.01,2013-02-21 22:28:00,
2013-02-21 17:29:00,78.8,45.6,29.97,SSW,202,3.6,4.7,31,0.00,,---,0.00,VWS V14.01,2013-02-21 22:29:00,
2013-02-21 17:30:00,78.1,45.8,29.97,SSW,202,1.6,1.6,32,0.00,,---,0.00,VWS V14.01,2013-02-21 22:30:00,
2013-02-21 17:31:00,78.6,46.3,29.97,SSE,158,2.9,6.0,32,0.00,,---,0.00,VWS V14.01,2013-02-21 22:31:00,
2013-02-21 17:32:00,78.4,46.2,29.97,South,180,2.9,6.5,32,0.00,,---,0.00,VWS V14.01,2013-02-21 22:32:00,
2013-02-21 17:33:00,78.3,46.0,29.97,SSE,158,4.9,5.8,32,0.00,,---,0.00,VWS V14.01,2013-02-21 22:33:00,
2013-02-21 17:34:00,78.3,46.0,29.97,WSW,248,1.3,4.9,32,0.00,,---,0.00,VWS V14.01,2013-02-21 22:34:00,
2013-02-21 17:35:00,77.9,46.5,29.97,SW,225,0.0,0.0,33,0.00,,---,0.00,VWS V14.01,2013-02-21 22:35:00,
2013-02-21 17:36:00,78.3,46.0,29.97,SW,225,1.1,2.0,32,0.00,,---,0.00,VWS V14.01,2013-02-21 22:36:00,
2013-02-21 17:37:00,78.3,46.0,29.97,South,180,0.9,2.5,32,0.00,,---,0.00,VWS V14.01,2013-02-21 22:37:00,
2013-02-21 17:38:00,78.3,46.0,29.97,SSW,202,0.0,0.9,32,0.00,,---,0.00,VWS V14.01,2013-02-21 22:38:00,
2013-02-21 17:39:00,78.1,45.8,29.97,SSW,202,1.6,1.6,32,0.00,,---,0.00,VWS V14.01,2013-02-21 22:39:00,
2013-02-21 17:40:00,77.5,46.2,29.97,SSE,158,1.6,4.0,33,0.00,,---,0.00,VWS V14.01,2013-02-21 22:40:00,
2013-02-21 17:41:00,78.1,45.8,29.97,SSW,202,1.1,1.1,32,0.00,,---,0.00,VWS V14.01,2013-02-21 22:41:00,
2013-02-21 17:42:00,78.1,45.8,29.97,WSW,248,2.0,2.7,32,0.00,,---,0.00,VWS V14.01,2013-02-21 22:42:00,
2013-02-21 17:43:00,77.9,46.5,29.97,SSE,158,0.9,2.0,33,0.00,,---,0.00,VWS V14.01,2013-02-21 22:43:00,
2013-02-21 17:44:00,77.9,46.5,29.97,SW,225,0.0,1.6,33,0.00,,---,0.00,VWS V14.01,2013-02-21 22:44:00,
2013-02-21 17:45:00,77.2,46.7,29.97,SSE,158,1.1,2.7,34,0.00,,---,0.00,VWS V14.01,2013-02-21 22:45:00,
2013-02-21 17:46:00,77.9,46.5,29.97,SSW,202,3.1,3.1,33,0.00,,---,0.00,VWS V14.01,2013-02-21 22:46:00,
2013-02-21 17:47:00,77.7,46.3,29.97,SSW,202,0.0,3.1,33,0.00,,---,0.00,VWS V14.01,2013-02-21 22:47:00,
2013-02-21 17:48:00,77.7,46.3,29.97,South,180,4.0,4.0,33,0.00,,---,0.00,VWS V14.01,2013-02-21 22:48:00,
2013-02-21 17:49:00,77.5,46.2,29.97,SSE,158,1.6,4.0,33,0.00,,---,0.00,VWS V14.01,2013-02-21 22:49:00,
2013-02-21 17:50:00,77.2,46.7,29.94,WSW,248,1.1,3.8,34,0.00,,---,0.00,VWS V14.01,2013-02-21 22:50:00,
2013-02-21 17:51:00,77.4,46.0,29.97,SW,225,2.9,2.9,33,0.00,,---,0.00,VWS V14.01,2013-02-21 22:51:00,
2013-02-21 17:52:00,77.4,46.0,29.97,SSE,158,0.0,2.9,33,0.00,,---,0.00,VWS V14.01,2013-02-21 22:52:00,
2013-02-21 17:53:00,77.2,46.7,29.97,South,180,2.2,3.8,34,0.00,,---,0.00,VWS V14.01,2013-02-21 22:53:00,
2013-02-21 17:54:00,77.2,46.7,29.97,SSW,202,0.9,2.7,34,0.00,,---,0.00,VWS V14.01,2013-02-21 22:54:00,
2013-02-21 17:55:00,77.0,47.3,29.94,South,180,0.9,1.3,35,0.00,,---,0.00,VWS V14.01,2013-02-21 22:55:00,
2013-02-21 17:56:00,77.2,46.7,29.97,SSW,202,1.1,1.1,34,0.00,,---,0.00,VWS V14.01,2013-02-21 22:56:00,
2013-02-21 17:57:00,77.2,46.7,29.97,SW,225,1.6,1.6,34,0.00,,---,0.00,VWS V14.01,2013-02-21 22:57:00,
2013-02-21 17:58:00,77.2,46.7,29.94,SE,135,3.4,3.4,34,0.00,,---,0.00,VWS V14.01,2013-02-21 22:58:00,
2013-02-21 17:59:00,77.2,46.7,29.94,WSW,248,1.1,3.8,34,0.00,,---,0.00,VWS V14.01,2013-02-21 22:59:00,
2013-02-21 18:00:00,76.5,47.5,29.94,SSW,202,0.9,3.6,36,0.00,,---,0.00,VWS V14.01,2013-02-21 23:00:00,
2013-02-21 18:01:00,77.0,46.5,29.94,SE,135,3.4,3.4,34,0.00,,---,0.00,VWS V14.01,2013-02-21 23:01:00,
2013-02-21 18:02:00,77.0,47.3,29.94,South,180,1.3,3.4,35,0.00,,---,0.00,VWS V14.01,2013-02-21 23:02:00,
2013-02-21 18:03:00,77.0,47.3,29.94,WSW,248,1.3,1.6,35,0.00,,---,0.00,VWS V14.01,2013-02-21 23:03:00,
2013-02-21 18:04:00,77.0,47.3,29.94,South,180,0.9,1.3,35,0.00,,---,0.00,VWS V14.01,2013-02-21 23:04:00,
2013-02-21 18:05:00,76.3,47.4,29.97,SSW,202,0.0,0.0,36,0.00,,---,0.00,VWS V14.01,2013-02-21 23:05:00,
2013-02-21 18:06:00,76.8,47.1,29.94,SSW,202,2.7,2.7,35,0.00,,---,0.00,VWS V14.01,2013-02-21 23:06:00,
2013-02-21 18:07:00,76.6,47.0,29.94,SSE,158,0.0,2.7,35,0.00,,---,0.00,VWS V14.01,2013-02-21 23:07:00,
2013-02-21 18:08:00,76.6,47.7,29.94,SSE,158,3.6,3.6,36,0.00,,---,0.00,VWS V14.01,2013-02-21 23:08:00,
2013-02-21 18:09:00,76.5,47.5,29.94,SSW,202,0.9,3.6,36,0.00,,---,0.00,VWS V14.01,2013-02-21 23:09:00,
2013-02-21 18:10:00,75.9,47.1,29.97,SSW,202,1.1,2.0,36,0.00,,---,0.00,VWS V14.01,2013-02-21 23:10:00,
2013-02-21 18:11:00,76.5,47.5,29.94,SSW,202,2.2,2.2,36,0.00,,---,0.00,VWS V14.01,2013-02-21 23:11:00,
2013-02-21 18:12:00,76.3,47.4,29.94,SSW,202,0.0,2.2,36,0.00,,---,0.00,VWS V14.01,2013-02-21 23:12:00,
2013-02-21 18:13:00,76.3,47.4,29.97,SSW,202,0.0,0.0,36,0.00,,---,0.00,VWS V14.01,2013-02-21 23:13:00,
2013-02-21 18:14:00,76.3,47.4,29.97,SSW,202,0.0,0.0,36,0.00,,---,0.00,VWS V14.01,2013-02-21 23:14:00,
2013-02-21 18:15:00,75.4,45.9,29.97,SSW,202,1.6,2.5,35,0.00,,---,0.00,VWS V14.01,2013-02-21 23:15:00,
2013-02-21 18:16:00,76.3,47.4,29.97,South,180,0.0,0.9,36,0.00,,---,0.00,VWS V14.01,2013-02-21 23:16:00,
2013-02-21 18:17:00,76.1,47.2,29.97,SSW,202,1.6,1.6,36,0.00,,---,0.00,VWS V14.01,2013-02-21 23:17:00,
2013-02-21 18:18:00,76.1,47.2,29.97,SW,225,2.0,2.9,36,0.00,,---,0.00,VWS V14.01,2013-02-21 23:18:00,
2013-02-21 18:19:00,75.9,47.1,29.97,SSW,202,1.1,2.0,36,0.00,,---,0.00,VWS V14.01,2013-02-21 23:19:00,
2013-02-21 18:20:00,74.8,46.1,29.97,SSE,158,0.0,2.2,36,0.00,,---,0.00,VWS V14.01,2013-02-21 23:20:00,
2013-02-21 18:21:00,75.6,46.8,29.97,South,180,1.6,2.9,36,0.00,,---,0.00,VWS V14.01,2013-02-21 23:21:00,
2013-02-21 18:22:00,75.6,46.0,29.97,SE,135,1.1,2.5,35,0.00,,---,0.00,VWS V14.01,2013-02-21 23:22:00,
2013-02-21 18:23:00,75.4,45.9,29.97,SSE,158,2.5,2.9,35,0.00,,---,0.00,VWS V14.01,2013-02-21 23:23:00,
2013-02-21 18:24:00,75.4,45.9,29.97,SSW,202,1.6,2.5,35,0.00,,---,0.00,VWS V14.01,2013-02-21 23:24:00,
2013-02-21 18:25:00,74.5,45.8,29.97,SSE,158,0.0,2.5,36,0.00,,---,0.00,VWS V14.01,2013-02-21 23:25:00,
2013-02-21 18:26:00,75.2,45.7,29.97,SSE,158,0.0,0.9,35,0.00,,---,0.00,VWS V14.01,2013-02-21 23:26:00,
2013-02-21 18:27:00,75.2,45.7,29.97,SSE,158,2.9,2.9,35,0.00,,---,0.00,VWS V14.01,2013-02-21 23:27:00,
2013-02-21 18:28:00,75.0,46.3,29.97,SSE,158,2.2,2.9,36,0.00,,---,0.00,VWS V14.01,2013-02-21 23:28:00,
2013-02-21 18:29:00,74.8,46.1,29.97,SSE,158,0.0,2.2,36,0.00,,---,0.00,VWS V14.01,2013-02-21 23:29:00,
2013-02-21 18:30:00,74.1,45.5,29.97,SE,135,0.0,1.6,36,0.00,,---,0.00,VWS V14.01,2013-02-21 23:30:00,
2013-02-21 18:31:00,74.7,46.0,29.97,SSW,202,0.0,1.6,36,0.00,,---,0.00,VWS V14.01,2013-02-21 23:31:00,
2013-02-21 18:32:00,74.7,46.0,29.97,SW,225,0.9,1.1,36,0.00,,---,0.00,VWS V14.01,2013-02-21 23:32:00,
2013-02-21 18:33:00,74.5,45.8,29.97,SSE,158,0.0,0.9,36,0.00,,---,0.00,VWS V14.01,2013-02-21 23:33:00,
2013-02-21 18:34:00,74.5,45.8,29.97,SSE,158,0.0,2.5,36,0.00,,---,0.00,VWS V14.01,2013-02-21 23:34:00,
2013-02-21 18:35:00,73.8,45.9,29.97,WSW,248,1.3,1.3,37,0.00,,---,0.00,VWS V14.01,2013-02-21 23:35:00,
2013-02-21 18:36:00,74.3,45.7,29.97,SSW,202,0.0,2.2,36,0.00,,---,0.00,VWS V14.01,2013-02-21 23:36:00,
2013-02-21 18:37:00,74.3,45.7,29.97,SSE,158,0.0,0.0,36,0.00,,---,0.00,VWS V14.01,2013-02-21 23:37:00,
2013-02-21 18:38:00,74.1,45.5,29.97,SW,225,1.3,1.3,36,0.00,,---,0.00,VWS V14.01,2013-02-21 23:38:00,
2013-02-21 18:39:00,74.1,45.5,29.97,SE,135,0.0,1.6,36,0.00,,---,0.00,VWS V14.01,2013-02-21 23:39:00,
2013-02-21 18:40:00,73.6,45.7,29.97,SE,135,0.0,0.0,37,0.00,,---,0.00,VWS V14.01,2013-02-21 23:40:00,
2013-02-21 18:41:00,74.1,46.2,29.97,SSW,202,0.0,0.0,37,0.00,,---,0.00,VWS V14.01,2013-02-21 23:41:00,
2013-02-21 18:42:00,73.9,46.0,29.97,SE,135,0.0,0.0,37,0.00,,---,0.00,VWS V14.01,2013-02-21 23:42:00,
2013-02-21 18:43:00,73.9,46.0,29.97,SE,135,0.0,0.0,37,0.00,,---,0.00,VWS V14.01,2013-02-21 23:43:00,
2013-02-21 18:44:00,73.8,45.9,29.97,WSW,248,1.3,1.3,37,0.00,,---,0.00,VWS V14.01,2013-02-21 23:44:00,
2013-02-21 18:45:00,73.2,46.8,29.97,South,180,0.0,1.3,39,0.00,,---,0.00,VWS V14.01,2013-02-21 23:45:00,
2013-02-21 18:46:00,73.6,45.7,29.97,SW,225,0.0,0.0,37,0.00,,---,0.00,VWS V14.01,2013-02-21 23:46:00,
2013-02-21 18:47:00,73.6,45.7,29.97,SE,135,0.0,0.0,37,0.00,,---,0.00,VWS V14.01,2013-02-21 23:47:00,
2013-02-21 18:48:00,73.6,45.7,29.97,SSE,158,0.0,1.6,37,0.00,,---,0.00,VWS V14.01,2013-02-21 23:48:00,
2013-02-21 18:49:00,73.6,45.7,29.97,SE,135,0.0,0.0,37,0.00,,---,0.00,VWS V14.01,2013-02-21 23:49:00,
2013-02-21 18:50:00,72.9,47.8,29.97,South,180,0.0,0.0,41,0.00,,---,0.00,VWS V14.01,2013-02-21 23:50:00,
2013-02-21 18:51:00,73.4,46.3,29.97,South,180,0.0,0.0,38,0.00,,---,0.00,VWS V14.01,2013-02-21 23:51:00,
2013-02-21 18:52:00,73.2,46.8,29.97,South,180,1.3,1.6,39,0.00,,---,0.00,VWS V14.01,2013-02-21 23:52:00,
2013-02-21 18:53:00,73.2,46.8,29.97,SW,225,1.3,1.3,39,0.00,,---,0.00,VWS V14.01,2013-02-21 23:53:00,
2013-02-21 18:54:00,73.2,46.8,29.97,South,180,0.0,1.3,39,0.00,,---,0.00,VWS V14.01,2013-02-21 23:54:00,
2013-02-21 18:55:00,72.7,48.3,29.97,SE,135,0.0,1.3,42,0.00,,---,0.00,VWS V14.01,2013-02-21 23:55:00,
2013-02-21 18:56:00,73.0,48.0,29.97,SSW,202,0.9,1.1,41,0.00,,---,0.00,VWS V14.01,2013-02-21 23:56:00,
2013-02-21 18:57:00,73.0,47.3,29.97,SE,135,0.0,2.2,40,0.00,,---,0.00,VWS V14.01,2013-02-21 23:57:00,
2013-02-21 18:58:00,73.0,48.0,29.97,SE,135,0.0,0.0,41,0.00,,---,0.00,VWS V14.01,2013-02-21 23:58:00,
2013-02-21 18:59:00,72.9,47.8,29.97,South,180,0.0,0.0,41,0.00,,---,0.00,VWS V14.01,2013-02-21 23:59:00,
2013-02-21 19:00:00,72.3,48.0,29.97,SSW,202,0.0,0.0,42,0.00,,---,0.00,VWS V14.01,2013-02-22 00:00:00,
2013-02-21 19:01:00,72.9,48.5,29.97,SSE,158,0.0,1.6,42,0.00,,---,0.00,VWS V14.01,2013-02-22 00:01:00,
2013-02-21 19:02:00,72.9,48.5,29.97,ESE,112,0.0,2.0,42,0.00,,---,0.00,VWS V14.01,2013-02-22 00:02:00,
2013-02-21 19:03:00,72.7,48.3,29.97,SE,135,1.3,1.3,42,0.00,,---,0.00,VWS V14.01,2013-02-22 00:03:00,
2013-02-21 19:04:00,72.7,48.3,29.97,SE,135,0.0,1.3,42,0.00,,---,0.00,VWS V14.01,2013-02-22 00:04:00,
2013-02-21 19:05:00,72.1,48.4,29.97,SW,225,0.0,0.0,43,0.00,,---,0.00,VWS V14.01,2013-02-22 00:05:00,
2013-02-21 19:06:00,72.5,48.1,29.97,SSW,202,0.0,0.0,42,0.00,,---,0.00,VWS V14.01,2013-02-22 00:06:00,
2013-02-21 19:07:00,72.5,48.1,29.97,SSW,202,0.0,0.0,42,0.00,,---,0.00,VWS V14.01,2013-02-22 00:07:00,
2013-02-21 19:08:00,72.3,48.0,29.97,SSW,202,0.0,0.0,42,0.00,,---,0.00,VWS V14.01,2013-02-22 00:08:00,
2013-02-21 19:09:00,72.0,48.9,29.97,SE,135,0.0,0.0,44,0.00,,---,0.00,VWS V14.01,2013-02-22 00:09:00,
2013-02-21 19:10:00,72.3,48.6,29.97,SSW,202,0.0,0.0,43,0.00,,---,0.00,VWS V14.01,2013-02-22 00:10:00,
2013-02-21 19:11:00,72.3,48.0,29.97,SSW,202,0.0,0.0,42,0.00,,---,0.00,VWS V14.01,2013-02-22 00:11:00,
2013-02-21 19:12:00,72.1,48.4,29.97,SW,225,0.9,0.9,43,0.00,,---,0.00,VWS V14.01,2013-02-22 00:12:00,
2013-02-21 19:13:00,72.1,48.4,29.97,SW,225,0.0,1.1,43,0.00,,---,0.00,VWS V14.01,2013-02-22 00:13:00,
2013-02-21 19:14:00,71.8,49.3,29.97,ESE,112,1.6,2.7,45,0.00,,---,0.00,VWS V14.01,2013-02-22 00:14:00,
2013-02-21 19:15:00,72.0,48.9,29.97,SSE,158,0.0,2.2,44,0.00,,---,0.00,VWS V14.01,2013-02-22 00:15:00,
2013-02-21 19:16:00,72.0,48.9,29.97,SE,135,0.0,0.0,44,0.00,,---,0.00,VWS V14.01,2013-02-22 00:16:00,
2013-02-21 19:17:00,72.0,48.9,29.97,SE,135,0.0,0.0,44,0.00,,---,0.00,VWS V14.01,2013-02-22 00:17:00,
2013-02-21 19:18:00,72.0,48.9,29.97,SE,135,0.0,0.0,44,0.00,,---,0.00,VWS V14.01,2013-02-22 00:18:00,
2013-02-21 19:19:00,71.6,49.2,29.97,SSE,158,0.0,0.0,45,0.00,,---,0.00,VWS V14.01,2013-02-22 00:19:00,
2013-02-21 19:20:00,72.0,48.9,29.97,SE,135,0.0,0.0,44,0.00,,---,0.00,VWS V14.01,2013-02-22 00:20:00,
2013-02-21 19:21:00,72.0,48.9,29.97,SSE,158,0.0,0.9,44,0.00,,---,0.00,VWS V14.01,2013-02-22 00:21:00,
2013-02-21 19:22:00,71.8,48.7,29.97,SSE,158,0.0,0.0,44,0.00,,---,0.00,VWS V14.01,2013-02-22 00:22:00,
2013-02-21 19:23:00,71.8,48.7,29.97,SSE,158,0.0,0.0,44,0.00,,---,0.00,VWS V14.01,2013-02-22 00:23:00,
2013-02-21 19:24:00,71.4,50.2,29.97,SSE,158,0.0,0.0,47,0.00,,---,0.00,VWS V14.01,2013-02-22 00:24:00,
2013-02-21 19:25:00,71.8,49.3,29.97,SSE,158,2.0,2.0,45,0.00,,---,0.00,VWS V14.01,2013-02-22 00:25:00,
2013-02-21 19:26:00,71.8,49.3,29.97,SSE,158,0.0,2.0,45,0.00,,---,0.00,VWS V14.01,2013-02-22 00:26:00,
2013-02-21 19:27:00,71.8,49.3,29.97,SSE,158,0.0,0.0,45,0.00,,---,0.00,VWS V14.01,2013-02-22 00:27:00,
2013-02-21 19:28:00,71.6,49.2,29.97,SSE,158,0.0,1.3,45,0.00,,---,0.00,VWS V14.01,2013-02-22 00:28:00,
2013-02-21 19:29:00,71.2,50.0,29.97,SSW,202,0.0,0.0,47,0.00,,---,0.00,VWS V14.01,2013-02-22 00:29:00,
2013-02-21 19:30:00,71.6,49.2,29.97,ESE,112,1.1,1.1,45,0.00,,---,0.00,VWS V14.01,2013-02-22 00:30:00,
2013-02-21 19:31:00,71.6,49.8,29.97,SSE,158,0.0,1.3,46,0.00,,---,0.00,VWS V14.01,2013-02-22 00:31:00,
2013-02-21 19:32:00,71.6,49.8,29.97,SSE,158,1.3,2.0,46,0.00,,---,0.00,VWS V14.01,2013-02-22 00:32:00,
2013-02-21 19:33:00,71.4,50.2,29.97,SSE,158,0.0,1.3,47,0.00,,---,0.00,VWS V14.01,2013-02-22 00:33:00,
2013-02-21 19:34:00,71.1,50.4,29.97,SW,225,0.0,0.0,48,0.00,,---,0.00,VWS V14.01,2013-02-22 00:34:00,
2013-02-21 19:35:00,71.4,50.2,29.97,SSW,202,0.0,0.0,47,0.00,,---,0.00,VWS V14.01,2013-02-22 00:35:00,
2013-02-21 19:36:00,71.4,50.2,29.97,SSW,202,0.0,0.0,47,0.00,,---,0.00,VWS V14.01,2013-02-22 00:36:00,
2013-02-21 19:37:00,71.4,50.2,29.97,SSW,202,0.0,0.0,47,0.00,,---,0.00,VWS V14.01,2013-02-22 00:37:00,
2013-02-21 19:38:00,71.4,50.2,29.97,SSW,202,0.0,0.0,47,0.00,,---,0.00,VWS V14.01,2013-02-22 00:38:00,
2013-02-21 19:39:00,71.1,51.0,29.97,SSW,202,0.0,0.0,49,0.00,,---,0.00,VWS V14.01,2013-02-22 00:39:00,
2013-02-21 19:40:00,71.2,50.0,29.97,SSW,202,0.0,0.0,47,0.00,,---,0.00,VWS V14.01,2013-02-22 00:40:00,
2013-02-21 19:41:00,71.2,50.0,29.97,SSW,202,0.0,0.9,47,0.00,,---,0.00,VWS V14.01,2013-02-22 00:41:00,
2013-02-21 19:42:00,71.2,50.0,29.97,SW,225,0.0,0.0,47,0.00,,---,0.00,VWS V14.01,2013-02-22 00:42:00,
2013-02-21 19:43:00,71.2,50.0,29.97,SW,225,0.0,1.3,47,0.00,,---,0.00,VWS V14.01,2013-02-22 00:43:00,
2013-02-21 19:44:00,70.9,50.8,29.97,SSE,158,0.0,0.0,49,0.00,,---,0.00,VWS V14.01,2013-02-22 00:44:00,
2013-02-21 19:45:00,71.1,50.4,29.97,SE,135,0.0,2.2,48,0.00,,---,0.00,VWS V14.01,2013-02-22 00:45:00,
2013-02-21 19:46:00,71.1,50.4,29.97,South,180,0.0,0.0,48,0.00,,---,0.00,VWS V14.01,2013-02-22 00:46:00,
2013-02-21 19:47:00,71.1,50.4,29.97,SSE,158,0.0,0.0,48,0.00,,---,0.00,VWS V14.01,2013-02-22 00:47:00,
2013-02-21 19:48:00,71.1,51.0,29.97,SSW,202,0.0,1.1,49,0.00,,---,0.00,VWS V14.01,2013-02-22 00:48:00,
2013-02-21 19:49:00,70.5,50.5,30.00,SSE,158,0.0,0.9,49,0.00,,---,0.00,VWS V14.01,2013-02-22 00:49:00,
2013-02-21 19:50:00,70.9,50.8,29.97,South,180,0.0,1.1,49,0.00,,---,0.00,VWS V14.01,2013-02-22 00:50:00,
2013-02-21 19:51:00,70.9,50.8,29.97,SSE,158,0.0,0.0,49,0.00,,---,0.00,VWS V14.01,2013-02-22 00:51:00,
2013-02-21 19:52:00,70.9,50.8,29.97,SSE,158,0.0,0.0,49,0.00,,---,0.00,VWS V14.01,2013-02-22 00:52:00,
2013-02-21 19:53:00,70.9,50.8,29.97,SSE,158,0.0,0.0,49,0.00,,---,0.00,VWS V14.01,2013-02-22 00:53:00,
2013-02-21 19:54:00,70.3,50.3,30.00,SSE,158,0.0,0.0,49,0.00,,---,0.00,VWS V14.01,2013-02-22 00:54:00,
2013-02-21 19:55:00,70.9,50.8,29.97,SSE,158,0.0,0.0,49,0.00,,---,0.00,VWS V14.01,2013-02-22 00:55:00,
2013-02-21 19:56:00,70.9,50.8,29.97,SSE,158,0.0,0.0,49,0.00,,---,0.00,VWS V14.01,2013-02-22 00:56:00,
2013-02-21 19:57:00,70.7,50.6,29.97,SSE,158,0.0,0.0,49,0.00,,---,0.00,VWS V14.01,2013-02-22 00:57:00,
2013-02-21 19:58:00,70.7,50.6,29.97,SSE,158,0.9,0.9,49,0.00,,---,0.00,VWS V14.01,2013-02-22 00:58:00,
2013-02-21 19:59:00,70.0,50.5,30.00,SSE,158,0.0,0.0,50,0.00,,---,0.00,VWS V14.01,2013-02-22 00:59:00,
2013-02-21 20:00:00,70.5,50.5,30.00,SSE,158,0.0,0.0,49,0.00,,---,0.00,VWS V14.01,2013-02-22 01:00:00,
2013-02-21 20:01:00,70.5,50.5,30.00,SSE,158,0.0,0.0,49,0.00,,---,0.00,VWS V14.01,2013-02-22 01:01:00,
2013-02-21 20:02:00,70.5,50.5,30.00,SSE,158,0.0,0.0,49,0.00,,---,0.00,VWS V14.01,2013-02-22 01:02:00,
2013-02-21 20:03:00,70.3,50.3,30.00,SSE,158,0.0,0.0,49,0.00,,---,0.00,VWS V14.01,2013-02-22 01:03:00,
2013-02-21 20:04:00,69.6,50.7,30.00,SSE,158,0.0,0.0,51,0.00,,---,0.00,VWS V14.01,2013-02-22 01:04:00,
2013-02-21 20:05:00,70.3,50.3,30.00,SSE,158,0.0,0.0,49,0.00,,---,0.00,VWS V14.01,2013-02-22 01:05:00,
2013-02-21 20:06:00,70.3,50.3,30.00,SSE,158,0.0,0.0,49,0.00,,---,0.00,VWS V14.01,2013-02-22 01:06:00,
2013-02-21 20:07:00,70.3,50.3,30.00,SSE,158,0.0,0.0,49,0.00,,---,0.00,VWS V14.01,2013-02-22 01:07:00,
2013-02-21 20:08:00,70.0,50.5,30.00,SSE,158,0.0,0.0,50,0.00,,---,0.00,VWS V14.01,2013-02-22 01:08:00,
2013-02-21 20:09:00,69.3,50.9,30.00,SSE,158,0.0,0.0,52,0.00,,---,0.00,VWS V14.01,2013-02-22 01:09:00,
2013-02-21 20:10:00,70.0,50.5,30.00,SSE,158,0.0,0.0,50,0.00,,---,0.00,VWS V14.01,2013-02-22 01:10:00,
2013-02-21 20:11:00,70.0,50.5,30.00,SSE,158,0.0,0.0,50,0.00,,---,0.00,VWS V14.01,2013-02-22 01:11:00,
2013-02-21 20:12:00,69.8,50.9,30.00,SSE,158,0.0,0.0,51,0.00,,---,0.00,VWS V14.01,2013-02-22 01:12:00,
2013-02-21 20:13:00,69.8,50.9,30.00,SSE,158,0.0,0.0,51,0.00,,---,0.00,VWS V14.01,2013-02-22 01:13:00,
2013-02-21 20:14:00,68.9,50.6,30.00,SSE,158,0.0,0.0,52,0.00,,---,0.00,VWS V14.01,2013-02-22 01:14:00,
2013-02-21 20:15:00,69.6,50.7,30.00,SSE,158,0.0,0.0,51,0.00,,---,0.00,VWS V14.01,2013-02-22 01:15:00,
2013-02-21 20:16:00,69.4,50.5,30.00,SSE,158,0.0,0.0,51,0.00,,---,0.00,VWS V14.01,2013-02-22 01:16:00,
2013-02-21 20:17:00,69.4,50.5,30.00,SSE,158,0.0,0.0,51,0.00,,---,0.00,VWS V14.01,2013-02-22 01:17:00,
2013-02-21 20:18:00,69.4,51.1,30.00,SSE,158,0.0,0.0,52,0.00,,---,0.00,VWS V14.01,2013-02-22 01:18:00,
2013-02-21 20:19:00,68.7,50.9,30.00,SSE,158,0.0,0.0,53,0.00,,---,0.00,VWS V14.01,2013-02-22 01:19:00,
2013-02-21 20:20:00,69.3,50.9,30.00,SSE,158,0.0,0.0,52,0.00,,---,0.00,VWS V14.01,2013-02-22 01:20:00,
2013-02-21 20:21:00,69.1,50.7,30.00,SSE,158,0.0,0.0,52,0.00,,---,0.00,VWS V14.01,2013-02-22 01:21:00,
2013-02-21 20:22:00,69.1,50.7,30.00,SSE,158,0.0,0.0,52,0.00,,---,0.00,VWS V14.01,2013-02-22 01:22:00,
2013-02-21 20:23:00,68.9,50.6,30.00,SSE,158,0.0,0.0,52,0.00,,---,0.00,VWS V14.01,2013-02-22 01:23:00,
2013-02-21 20:24:00,68.4,51.1,30.00,SSE,158,0.0,0.0,54,0.00,,---,0.00,VWS V14.01,2013-02-22 01:24:00,
2013-02-21 20:25:00,68.7,50.4,30.00,SSE,158,0.0,0.0,52,0.00,,---,0.00,VWS V14.01,2013-02-22 01:25:00,
2013-02-21 20:26:00,68.7,50.9,30.00,SSE,158,0.0,0.0,53,0.00,,---,0.00,VWS V14.01,2013-02-22 01:26:00,
2013-02-21 20:27:00,68.7,50.9,30.00,SSE,158,0.0,0.0,53,0.00,,---,0.00,VWS V14.01,2013-02-22 01:27:00,
2013-02-21 20:28:00,68.7,50.9,30.00,SSE,158,0.0,0.0,53,0.00,,---,0.00,VWS V14.01,2013-02-22 01:28:00,
2013-02-21 20:29:00,68.0,51.2,30.00,SSE,158,0.0,0.0,55,0.00,,---,0.00,VWS V14.01,2013-02-22 01:29:00,
2013-02-21 20:30:00,68.5,50.8,30.00,SSE,158,0.0,0.0,53,0.00,,---,0.00,VWS V14.01,2013-02-22 01:30:00,
2013-02-21 20:31:00,68.5,50.8,30.00,SSE,158,0.0,0.0,53,0.00,,---,0.00,VWS V14.01,2013-02-22 01:31:00,
2013-02-21 20:32:00,68.5,50.8,30.00,SSE,158,0.0,0.0,53,0.00,,---,0.00,VWS V14.01,2013-02-22 01:32:00,
2013-02-21 20:33:00,68.4,51.1,30.00,SSE,158,0.0,0.0,54,0.00,,---,0.00,VWS V14.01,2013-02-22 01:33:00,
2013-02-21 20:34:00,67.8,51.1,30.00,SSE,158,0.0,0.0,55,0.00,,---,0.00,VWS V14.01,2013-02-22 01:34:00,
2013-02-21 20:35:00,68.4,51.1,30.00,SSE,158,0.0,0.0,54,0.00,,---,0.00,VWS V14.01,2013-02-22 01:35:00,
2013-02-21 20:36:00,68.2,50.9,30.00,SSE,158,0.0,0.0,54,0.00,,---,0.00,VWS V14.01,2013-02-22 01:36:00,
2013-02-21 20:37:00,68.2,50.9,30.00,SSE,158,0.0,0.0,54,0.00,,---,0.00,VWS V14.01,2013-02-22 01:37:00,
2013-02-21 20:38:00,68.0,51.2,30.00,SSE,158,0.0,0.0,55,0.00,,---,0.00,VWS V14.01,2013-02-22 01:38:00,
2013-02-21 20:39:00,67.6,51.4,30.00,SSE,158,0.0,0.0,56,0.00,,---,0.00,VWS V14.01,2013-02-22 01:39:00,
2013-02-21 20:40:00,68.0,51.2,30.00,SSE,158,0.0,0.0,55,0.00,,---,0.00,VWS V14.01,2013-02-22 01:40:00,
2013-02-21 20:41:00,68.0,51.2,30.00,SSE,158,0.0,0.0,55,0.00,,---,0.00,VWS V14.01,2013-02-22 01:41:00,
2013-02-21 20:42:00,68.0,51.2,30.00,SSE,158,0.0,0.0,55,0.00,,---,0.00,VWS V14.01,2013-02-22 01:42:00,
2013-02-21 20:43:00,68.0,51.2,30.00,SSE,158,0.0,0.0,55,0.00,,---,0.00,VWS V14.01,2013-02-22 01:43:00,
2013-02-21 20:44:00,67.1,50.9,30.00,SSE,158,0.0,0.0,56,0.00,,---,0.00,VWS V14.01,2013-02-22 01:44:00,
2013-02-21 20:45:00,67.6,51.4,30.00,SSE,158,0.0,0.0,56,0.00,,---,0.00,VWS V14.01,2013-02-22 01:45:00,
2013-02-21 20:46:00,67.6,51.4,30.00,SSE,158,0.0,0.0,56,0.00,,---,0.00,VWS V14.01,2013-02-22 01:46:00,
2013-02-21 20:47:00,67.6,51.4,30.00,SSE,158,0.0,0.0,56,0.00,,---,0.00,VWS V14.01,2013-02-22 01:47:00,
2013-02-21 20:48:00,67.6,51.4,30.00,SSE,158,0.0,0.0,56,0.00,,---,0.00,VWS V14.01,2013-02-22 01:48:00,
2013-02-21 20:49:00,67.1,51.4,30.00,SSE,158,0.0,0.0,57,0.00,,---,0.00,VWS V14.01,2013-02-22 01:49:00,
2013-02-21 20:50:00,67.3,51.5,30.00,SSE,158,0.0,0.0,57,0.00,,---,0.00,VWS V14.01,2013-02-22 01:50:00,
2013-02-21 20:51:00,67.3,51.5,30.00,SSE,158,0.0,0.0,57,0.00,,---,0.00,VWS V14.01,2013-02-22 01:51:00,
2013-02-21 20:52:00,67.3,51.5,30.00,SSE,158,0.0,0.0,57,0.00,,---,0.00,VWS V14.01,2013-02-22 01:52:00,
2013-02-21 20:53:00,67.1,50.9,30.00,SSE,158,0.0,0.0,56,0.00,,---,0.00,VWS V14.01,2013-02-22 01:53:00,
2013-02-21 20:54:00,66.6,51.3,30.00,SSE,158,0.0,0.0,58,0.00,,---,0.00,VWS V14.01,2013-02-22 01:54:00,
2013-02-21 20:55:00,67.1,51.4,30.00,SSE,158,0.0,0.0,57,0.00,,---,0.00,VWS V14.01,2013-02-22 01:55:00,
2013-02-21 20:56:00,67.1,51.4,30.00,SSE,158,0.0,0.0,57,0.00,,---,0.00,VWS V14.01,2013-02-22 01:56:00,
2013-02-21 20:57:00,67.1,51.4,30.00,SSE,158,0.0,0.0,57,0.00,,---,0.00,VWS V14.01,2013-02-22 01:57:00,
2013-02-21 20:58:00,67.1,51.4,30.00,SSE,158,0.0,0.0,57,0.00,,---,0.00,VWS V14.01,2013-02-22 01:58:00,
2013-02-21 20:59:00,66.4,52.1,30.00,SSE,158,0.0,0.0,60,0.00,,---,0.00,VWS V14.01,2013-02-22 01:59:00,
2013-02-21 21:00:00,67.1,51.4,30.00,SSE,158,0.0,0.0,57,0.00,,---,0.00,VWS V14.01,2013-02-22 02:00:00,
2013-02-21 21:01:00,66.7,51.5,30.00,SSE,158,0.0,0.0,58,0.00,,---,0.00,VWS V14.01,2013-02-22 02:01:00,
2013-02-21 21:02:00,66.7,51.5,30.00,SSE,158,0.0,0.0,58,0.00,,---,0.00,VWS V14.01,2013-02-22 02:02:00,
2013-02-21 21:03:00,66.7,51.5,30.00,SSE,158,0.0,0.0,58,0.00,,---,0.00,VWS V14.01,2013-02-22 02:03:00,
2013-02-21 21:04:00,66.6,51.3,30.00,SSE,158,0.0,0.0,58,0.00,,---,0.00,VWS V14.01,2013-02-22 02:04:00,
2013-02-21 21:05:00,66.2,51.9,30.00,SSE,158,0.0,0.0,60,0.00,,---,0.00,VWS V14.01,2013-02-22 02:05:00,
2013-02-21 21:06:00,66.6,51.8,30.00,SSE,158,0.0,0.0,59,0.00,,---,0.00,VWS V14.01,2013-02-22 02:06:00,
2013-02-21 21:07:00,66.6,52.3,30.00,SSE,158,0.0,0.0,60,0.00,,---,0.00,VWS V14.01,2013-02-22 02:07:00,
2013-02-21 21:08:00,66.6,52.3,30.00,SSE,158,0.0,0.0,60,0.00,,---,0.00,VWS V14.01,2013-02-22 02:08:00,
2013-02-21 21:09:00,66.4,52.1,30.00,SSE,158,0.0,0.0,60,0.00,,---,0.00,VWS V14.01,2013-02-22 02:09:00,
2013-02-21 21:10:00,66.0,52.2,30.00,SSE,158,0.0,0.0,61,0.00,,---,0.00,VWS V14.01,2013-02-22 02:10:00,
2013-02-21 21:11:00,66.4,52.1,30.00,SSE,158,0.0,0.0,60,0.00,,---,0.00,VWS V14.01,2013-02-22 02:11:00,
2013-02-21 21:12:00,66.4,52.1,30.00,SSE,158,0.0,0.0,60,0.00,,---,0.00,VWS V14.01,2013-02-22 02:12:00,
2013-02-21 21:13:00,66.2,51.9,30.00,SSE,158,0.0,0.0,60,0.00,,---,0.00,VWS V14.01,2013-02-22 02:13:00,
2013-02-21 21:14:00,66.2,51.9,30.00,SSE,158,0.0,0.0,60,0.00,,---,0.00,VWS V14.01,2013-02-22 02:14:00,
2013-02-21 21:15:00,65.8,52.5,30.00,SSE,158,0.0,0.0,62,0.00,,---,0.00,VWS V14.01,2013-02-22 02:15:00,
2013-02-21 21:16:00,66.2,51.9,30.00,SSE,158,0.0,0.0,60,0.00,,---,0.00,VWS V14.01,2013-02-22 02:16:00,
2013-02-21 21:17:00,66.2,52.4,30.00,SSE,158,0.0,0.0,61,0.00,,---,0.00,VWS V14.01,2013-02-22 02:17:00,
2013-02-21 21:18:00,66.0,52.2,30.00,SSE,158,0.0,0.0,61,0.00,,---,0.00,VWS V14.01,2013-02-22 02:18:00,
2013-02-21 21:19:00,66.0,52.2,30.00,SSE,158,0.0,0.0,61,0.00,,---,0.00,VWS V14.01,2013-02-22 02:19:00,
2013-02-21 21:20:00,65.8,53.3,30.00,SSE,158,0.0,0.0,64,0.00,,---,0.00,VWS V14.01,2013-02-22 02:20:00,
2013-02-21 21:21:00,66.0,52.6,30.00,SSE,158,0.0,0.0,62,99.99,,---,99.99,VWS V14.01,2013-02-22 02:21:00,
2013-02-21 21:22:00,66.0,52.6,30.00,SSE,158,0.0,0.0,62,99.99,,---,99.99,VWS V14.01,2013-02-22 02:22:00,
2013-02-21 21:23:00,66.0,53.1,30.00,SSE,158,0.0,0.0,63,99.99,,---,99.99,VWS V14.01,2013-02-22 02:23:00,
2013-02-21 21:24:00,65.7,53.2,30.00,SSE,158,0.0,0.0,64,0.00,,---,0.00,VWS V14.01,2013-02-22 02:24:00,
2013-02-21 21:25:00,65.8,52.5,30.00,SSE,158,0.0,0.0,62,0.00,,---,0.00,VWS V14.01,2013-02-22 02:25:00,
2013-02-21 21:26:00,65.8,52.5,30.00,SSE,158,0.0,0.0,62,0.00,,---,0.00,VWS V14.01,2013-02-22 02:26:00,
2013-02-21 21:27:00,65.8,52.9,30.00,SSE,158,0.0,0.0,63,0.00,,---,0.00,VWS V14.01,2013-02-22 02:27:00,
2013-02-21 21:28:00,65.8,52.9,30.00,SSE,158,0.0,0.0,63,0.00,,---,0.00,VWS V14.01,2013-02-22 02:28:00,
2013-02-21 21:29:00,65.5,53.0,30.00,SSE,158,0.0,0.0,64,0.00,,---,0.00,VWS V14.01,2013-02-22 02:29:00,
2013-02-21 21:30:00,65.8,53.3,30.00,SSE,158,0.0,0.0,64,0.00,,---,0.00,VWS V14.01,2013-02-22 02:30:00,
2013-02-21 21:31:00,65.7,53.2,30.00,SSE,158,0.0,0.0,64,0.00,,---,0.00,VWS V14.01,2013-02-22 02:31:00,
2013-02-21 21:32:00,65.7,53.2,30.00,SSE,158,0.0,0.0,64,0.00,,---,0.00,VWS V14.01,2013-02-22 02:32:00,
2013-02-21 21:33:00,65.7,53.2,30.00,SSE,158,0.0,0.0,64,0.00,,---,0.00,VWS V14.01,2013-02-22 02:33:00,
2013-02-21 21:34:00,65.3,52.8,30.03,SSE,158,0.0,0.0,64,0.00,,---,0.00,VWS V14.01,2013-02-22 02:34:00,
2013-02-21 21:35:00,65.7,53.2,30.00,SSE,158,0.0,0.0,64,0.00,,---,0.00,VWS V14.01,2013-02-22 02:35:00,
2013-02-21 21:36:00,65.7,53.2,30.00,SSE,158,0.0,0.0,64,0.00,,---,0.00,VWS V14.01,2013-02-22 02:36:00,
2013-02-21 21:37:00,65.7,53.2,30.00,SSE,158,0.0,0.0,64,0.00,,---,0.00,VWS V14.01,2013-02-22 02:37:00,
2013-02-21 21:38:00,65.5,53.0,30.00,SSE,158,0.0,0.0,64,0.00,,---,0.00,VWS V14.01,2013-02-22 02:38:00,
2013-02-21 21:39:00,65.3,53.2,30.03,SSE,158,0.0,0.0,65,0.00,,---,0.00,VWS V14.01,2013-02-22 02:39:00,
2013-02-21 21:40:00,65.5,53.0,30.00,SSE,158,0.0,0.0,64,0.00,,---,0.00,VWS V14.01,2013-02-22 02:40:00,
2013-02-21 21:41:00,65.5,53.0,30.00,SSE,158,0.0,0.0,64,0.00,,---,0.00,VWS V14.01,2013-02-22 02:41:00,
2013-02-21 21:42:00,65.3,52.8,30.00,SSE,158,0.0,0.0,64,0.00,,---,0.00,VWS V14.01,2013-02-22 02:42:00,
2013-02-21 21:43:00,65.3,52.8,30.03,SSE,158,0.0,0.0,64,0.00,,---,0.00,VWS V14.01,2013-02-22 02:43:00,
2013-02-21 21:44:00,65.3,53.2,30.03,SSE,158,0.0,0.0,65,0.00,,---,0.00,VWS V14.01,2013-02-22 02:44:00,
2013-02-21 21:45:00,65.3,52.8,30.03,SSE,158,0.0,0.0,64,0.00,,---,0.00,VWS V14.01,2013-02-22 02:45:00,
2013-02-21 21:46:00,65.3,52.8,30.03,SSE,158,0.0,0.0,64,0.00,,---,0.00,VWS V14.01,2013-02-22 02:46:00,
2013-02-21 21:47:00,65.3,53.2,30.03,SSE,158,0.0,0.0,65,0.00,,---,0.00,VWS V14.01,2013-02-22 02:47:00,
2013-02-21 21:48:00,65.3,53.2,30.03,SSE,158,0.0,0.0,65,0.00,,---,0.00,VWS V14.01,2013-02-22 02:48:00,
2013-02-21 21:49:00,65.1,53.5,30.03,SSE,158,0.0,0.0,66,0.00,,---,0.00,VWS V14.01,2013-02-22 02:49:00,
2013-02-21 21:50:00,65.3,52.8,30.03,SSE,158,0.0,0.0,64,0.00,,---,0.00,VWS V14.01,2013-02-22 02:50:00,
2013-02-21 21:51:00,65.3,52.8,30.03,SSE,158,0.0,0.0,64,0.00,,---,0.00,VWS V14.01,2013-02-22 02:51:00,
2013-02-21 21:52:00,65.3,52.8,30.03,SSE,158,0.0,0.0,64,0.00,,---,0.00,VWS V14.01,2013-02-22 02:52:00,
2013-02-21 21:53:00,65.3,53.2,30.03,SSE,158,0.0,0.0,65,0.00,,---,0.00,VWS V14.01,2013-02-22 02:53:00,
2013-02-21 21:54:00,65.1,53.5,30.03,SSE,158,0.0,0.0,66,0.00,,---,0.00,VWS V14.01,2013-02-22 02:54:00,
2013-02-21 21:55:00,65.3,53.7,30.03,SSE,158,0.0,0.0,66,0.00,,---,0.00,VWS V14.01,2013-02-22 02:55:00,
2013-02-21 21:56:00,65.3,53.7,30.03,SSE,158,0.0,0.0,66,0.00,,---,0.00,VWS V14.01,2013-02-22 02:56:00,
2013-02-21 21:57:00,65.1,53.5,30.03,SSE,158,0.0,0.0,66,0.00,,---,0.00,VWS V14.01,2013-02-22 02:57:00,
2013-02-21 21:58:00,65.1,53.5,30.03,SSE,158,0.0,0.0,66,0.00,,---,0.00,VWS V14.01,2013-02-22 02:58:00,
2013-02-21 21:59:00,64.9,53.7,30.03,SSE,158,0.0,0.0,67,0.00,,---,0.00,VWS V14.01,2013-02-22 02:59:00,
2013-02-21 22:00:00,65.1,53.5,30.03,SSE,158,0.0,0.0,66,0.00,,---,0.00,VWS V14.01,2013-02-22 03:00:00,
2013-02-21 22:01:00,65.1,53.1,30.03,SSE,158,0.0,0.0,65,0.00,,---,0.00,VWS V14.01,2013-02-22 03:01:00,
2013-02-21 22:02:00,65.1,53.5,30.03,SSE,158,0.0,0.0,66,0.00,,---,0.00,VWS V14.01,2013-02-22 03:02:00,
2013-02-21 22:03:00,65.1,53.5,30.03,SSE,158,0.0,0.0,66,0.00,,---,0.00,VWS V14.01,2013-02-22 03:03:00,
2013-02-21 22:04:00,64.8,54.0,30.00,SSE,158,0.0,0.0,68,0.00,,---,0.00,VWS V14.01,2013-02-22 03:04:00,
2013-02-21 22:05:00,65.1,53.5,30.03,SSE,158,0.0,0.0,66,0.00,,---,0.00,VWS V14.01,2013-02-22 03:05:00,
2013-02-21 22:06:00,65.1,53.5,30.03,SSE,158,0.0,0.0,66,0.00,,---,0.00,VWS V14.01,2013-02-22 03:06:00,
2013-02-21 22:07:00,65.1,53.9,30.03,SSE,158,0.0,0.0,67,0.00,,---,0.00,VWS V14.01,2013-02-22 03:07:00,
2013-02-21 22:08:00,65.1,53.9,30.03,SSE,158,0.0,0.0,67,0.00,,---,0.00,VWS V14.01,2013-02-22 03:08:00,
2013-02-21 22:09:00,64.8,54.4,30.00,SSE,158,0.0,0.0,69,0.00,,---,0.00,VWS V14.01,2013-02-22 03:09:00,
2013-02-21 22:10:00,64.9,53.7,30.03,SSE,158,0.0,0.0,67,0.00,,---,0.00,VWS V14.01,2013-02-22 03:10:00,
2013-02-21 22:11:00,64.9,53.7,30.03,SSE,158,0.0,0.0,67,0.00,,---,0.00,VWS V14.01,2013-02-22 03:11:00,
2013-02-21 22:12:00,64.8,54.0,30.03,SSE,158,0.0,0.0,68,0.00,,---,0.00,VWS V14.01,2013-02-22 03:12:00,
2013-02-21 22:13:00,64.8,54.0,30.00,SSE,158,0.0,0.0,68,0.00,,---,0.00,VWS V14.01,2013-02-22 03:13:00,
2013-02-21 22:14:00,64.8,54.4,30.00,SSE,158,0.0,0.0,69,0.00,,---,0.00,VWS V14.01,2013-02-22 03:14:00,
2013-02-21 22:15:00,64.8,54.0,30.00,SSE,158,0.0,0.0,68,0.00,,---,0.00,VWS V14.01,2013-02-22 03:15:00,
2013-02-21 22:16:00,64.8,54.0,30.00,SSE,158,0.0,0.0,68,0.00,,---,0.00,VWS V14.01,2013-02-22 03:16:00,
2013-02-21 22:17:00,64.8,54.0,30.00,SSE,158,0.0,0.0,68,0.00,,---,0.00,VWS V14.01,2013-02-22 03:17:00,
2013-02-21 22:18:00,64.8,54.4,30.00,SSE,158,0.0,0.0,69,0.00,,---,0.00,VWS V14.01,2013-02-22 03:18:00,
2013-02-21 22:19:00,64.6,54.2,30.03,SSE,158,0.0,0.0,69,0.00,,---,0.00,VWS V14.01,2013-02-22 03:19:00,
2013-02-21 22:20:00,64.8,54.4,30.00,SSE,158,0.0,0.0,69,0.00,,---,0.00,VWS V14.01,2013-02-22 03:20:00,
2013-02-21 22:21:00,64.8,54.4,30.00,SSE,158,0.0,0.0,69,0.00,,---,0.00,VWS V14.01,2013-02-22 03:21:00,
2013-02-21 22:22:00,64.8,54.4,30.00,SSE,158,0.0,0.0,69,0.00,,---,0.00,VWS V14.01,2013-02-22 03:22:00,
2013-02-21 22:23:00,64.8,54.4,30.00,SSE,158,0.0,0.0,69,0.00,,---,0.00,VWS V14.01,2013-02-22 03:23:00,
2013-02-21 22:24:00,64.4,54.0,30.03,SSE,158,0.0,0.0,69,0.00,,---,0.00,VWS V14.01,2013-02-22 03:24:00,
2013-02-21 22:25:00,64.8,54.4,30.00,SSE,158,0.0,0.0,69,0.00,,---,0.00,VWS V14.01,2013-02-22 03:25:00,
2013-02-21 22:26:00,64.8,54.4,30.00,SSE,158,0.0,0.0,69,0.00,,---,0.00,VWS V14.01,2013-02-22 03:26:00,
2013-02-21 22:27:00,64.6,54.2,30.00,SSE,158,0.0,0.0,69,0.00,,---,0.00,VWS V14.01,2013-02-22 03:27:00,
2013-02-21 22:28:00,64.6,54.2,30.03,SSE,158,0.0,0.0,69,0.00,,---,0.00,VWS V14.01,2013-02-22 03:28:00,
2013-02-21 22:29:00,64.2,54.2,30.03,SSE,158,0.0,0.0,70,0.00,,---,0.00,VWS V14.01,2013-02-22 03:29:00,
2013-02-21 22:30:00,64.6,54.2,30.03,SSE,158,0.0,0.0,69,0.00,,---,0.00,VWS V14.01,2013-02-22 03:30:00,
2013-02-21 22:31:00,64.6,54.2,30.03,SSE,158,0.0,0.0,69,0.00,,---,0.00,VWS V14.01,2013-02-22 03:31:00,
2013-02-21 22:32:00,64.4,54.0,30.03,SSE,158,0.0,0.0,69,0.00,,---,0.00,VWS V14.01,2013-02-22 03:32:00,
2013-02-21 22:33:00,64.4,54.0,30.03,SSE,158,0.0,0.0,69,0.00,,---,0.00,VWS V14.01,2013-02-22 03:33:00,
2013-02-21 22:34:00,64.2,54.2,30.03,SSE,158,0.0,0.0,70,0.00,,---,0.00,VWS V14.01,2013-02-22 03:34:00,
2013-02-21 22:35:00,64.4,54.0,30.03,SSE,158,0.0,0.0,69,0.00,,---,0.00,VWS V14.01,2013-02-22 03:35:00,
2013-02-21 22:36:00,64.4,54.0,30.03,SSE,158,0.0,0.0,69,0.00,,---,0.00,VWS V14.01,2013-02-22 03:36:00,
2013-02-21 22:37:00,64.2,53.8,30.03,SSE,158,0.0,0.0,69,0.00,,---,0.00,VWS V14.01,2013-02-22 03:37:00,
2013-02-21 22:38:00,64.2,53.8,30.03,SSE,158,0.0,0.0,69,0.00,,---,0.00,VWS V14.01,2013-02-22 03:38:00,
2013-02-21 22:39:00,64.0,54.5,30.03,SSE,158,0.0,0.0,71,0.00,,---,0.00,VWS V14.01,2013-02-22 03:39:00,
2013-02-21 22:40:00,64.2,54.2,30.03,SSE,158,0.0,0.0,70,0.00,,---,0.00,VWS V14.01,2013-02-22 03:40:00,
2013-02-21 22:41:00,64.2,54.2,30.03,SSE,158,0.0,0.0,70,0.00,,---,0.00,VWS V14.01,2013-02-22 03:41:00,
2013-02-21 22:42:00,64.2,54.2,30.03,SSE,158,0.0,0.0,70,0.00,,---,0.00,VWS V14.01,2013-02-22 03:42:00,
2013-02-21 22:43:00,64.2,54.2,30.03,SSE,158,0.0,0.0,70,0.00,,---,0.00,VWS V14.01,2013-02-22 03:43:00,
2013-02-21 22:44:00,64.0,54.5,30.03,SSE,158,0.0,0.0,71,0.00,,---,0.00,VWS V14.01,2013-02-22 03:44:00,
2013-02-21 22:45:00,64.2,54.2,30.03,SSE,158,0.0,0.0,70,0.00,,---,0.00,VWS V14.01,2013-02-22 03:45:00,
2013-02-21 22:46:00,64.2,54.2,30.03,SSE,158,0.0,0.0,70,0.00,,---,0.00,VWS V14.01,2013-02-22 03:46:00,
2013-02-21 22:47:00,64.2,54.6,30.03,SSE,158,0.0,0.0,71,0.00,,---,0.00,VWS V14.01,2013-02-22 03:47:00,
2013-02-21 22:48:00,64.2,54.6,30.03,SSE,158,0.0,0.0,71,0.00,,---,0.00,VWS V14.01,2013-02-22 03:48:00,
2013-02-21 22:49:00,63.9,54.7,30.03,SSE,158,0.0,0.0,72,0.00,,---,0.00,VWS V14.01,2013-02-22 03:49:00,
2013-02-21 22:50:00,64.0,54.5,30.03,SSE,158,0.0,0.0,71,0.00,,---,0.00,VWS V14.01,2013-02-22 03:50:00,
2013-02-21 22:51:00,64.0,54.5,30.03,SSE,158,0.0,0.0,71,0.00,,---,0.00,VWS V14.01,2013-02-22 03:51:00,
2013-02-21 22:52:00,64.0,54.5,30.03,SSE,158,0.0,0.0,71,0.00,,---,0.00,VWS V14.01,2013-02-22 03:52:00,
2013-02-21 22:53:00,64.0,54.5,30.03,SSE,158,0.0,0.0,71,0.00,,---,0.00,VWS V14.01,2013-02-22 03:53:00,
2013-02-21 22:54:00,63.9,54.7,30.03,SSE,158,0.0,0.0,72,0.00,,---,0.00,VWS V14.01,2013-02-22 03:54:00,
2013-02-21 22:55:00,64.0,54.5,30.03,SSE,158,0.0,0.0,71,0.00,,---,0.00,VWS V14.01,2013-02-22 03:55:00,
2013-02-21 22:56:00,64.0,54.8,30.03,SSE,158,0.0,0.0,72,0.00,,---,0.00,VWS V14.01,2013-02-22 03:56:00,
2013-02-21 22:57:00,64.0,54.8,30.03,SSE,158,0.0,0.0,72,0.00,,---,0.00,VWS V14.01,2013-02-22 03:57:00,
2013-02-21 22:58:00,63.9,54.7,30.03,SSE,158,0.0,0.0,72,0.00,,---,0.00,VWS V14.01,2013-02-22 03:58:00,
2013-02-21 22:59:00,63.9,54.7,30.03,SSE,158,0.0,0.0,72,0.00,,---,0.00,VWS V14.01,2013-02-22 03:59:00,
2013-02-21 23:00:00,63.9,54.7,30.03,SSE,158,0.0,0.0,72,0.00,,---,0.00,VWS V14.01,2013-02-22 04:00:00,
2013-02-21 23:01:00,63.9,54.7,30.03,SSE,158,0.0,0.0,72,0.00,,---,0.00,VWS V14.01,2013-02-22 04:01:00,
2013-02-21 23:02:00,63.9,54.7,30.03,SSE,158,0.0,0.0,72,0.00,,---,0.00,VWS V14.01,2013-02-22 04:02:00,
2013-02-21 23:03:00,63.9,54.7,30.03,SSE,158,0.0,0.0,72,0.00,,---,0.00,VWS V14.01,2013-02-22 04:03:00,
2013-02-21 23:04:00,63.9,54.7,30.03,SSE,158,0.0,0.0,72,0.00,,---,0.00,VWS V14.01,2013-02-22 04:04:00,
2013-02-21 23:05:00,63.7,54.9,30.03,SSE,158,0.0,0.0,73,0.00,,---,0.00,VWS V14.01,2013-02-22 04:05:00,
2013-02-21 23:06:00,63.9,54.7,30.03,SSE,158,0.0,0.0,72,0.00,,---,0.00,VWS V14.01,2013-02-22 04:06:00,
2013-02-21 23:07:00,63.9,54.7,30.03,SSE,158,0.0,0.0,72,0.00,,---,0.00,VWS V14.01,2013-02-22 04:07:00,
2013-02-21 23:08:00,63.9,54.7,30.03,SSE,158,0.0,0.0,72,0.00,,---,0.00,VWS V14.01,2013-02-22 04:08:00,
2013-02-21 23:09:00,63.9,54.7,30.03,SSE,158,0.0,0.0,72,0.00,,---,0.00,VWS V14.01,2013-02-22 04:09:00,
2013-02-21 23:10:00,63.7,54.9,30.03,SSE,158,0.0,0.0,73,0.00,,---,0.00,VWS V14.01,2013-02-22 04:10:00,
2013-02-21 23:11:00,63.7,54.5,30.03,SSE,158,0.0,0.0,72,0.00,,---,0.00,VWS V14.01,2013-02-22 04:11:00,
2013-02-21 23:12:00,63.7,54.5,30.03,SSE,158,0.0,0.0,72,0.00,,---,0.00,VWS V14.01,2013-02-22 04:12:00,
2013-02-21 23:13:00,63.7,54.5,30.03,SSE,158,0.0,0.0,72,0.00,,---,0.00,VWS V14.01,2013-02-22 04:13:00,
2013-02-21 23:14:00,63.7,54.9,30.03,SSE,158,0.0,0.0,73,0.00,,---,0.00,VWS V14.01,2013-02-22 04:14:00,
2013-02-21 23:15:00,63.7,55.2,30.03,SSE,158,0.0,0.0,74,0.00,,---,0.00,VWS V14.01,2013-02-22 04:15:00,
2013-02-21 23:16:00,63.7,54.9,30.03,SSE,158,0.0,0.0,73,0.00,,---,0.00,VWS V14.01,2013-02-22 04:16:00,
2013-02-21 23:17:00,63.7,54.9,30.03,SSE,158,0.0,0.0,73,0.00,,---,0.00,VWS V14.01,2013-02-22 04:17:00,
2013-02-21 23:18:00,63.7,54.9,30.03,SSE,158,0.0,0.0,73,0.00,,---,0.00,VWS V14.01,2013-02-22 04:18:00,
2013-02-21 23:19:00,63.7,54.9,30.03,SSE,158,0.0,0.0,73,0.00,,---,0.00,VWS V14.01,2013-02-22 04:19:00,
2013-02-21 23:20:00,63.7,54.9,30.03,SSE,158,0.0,0.0,73,0.00,,---,0.00,VWS V14.01,2013-02-22 04:20:00,
2013-02-21 23:21:00,63.7,54.9,30.03,SSE,158,0.0,0.0,73,0.00,,---,0.00,VWS V14.01,2013-02-22 04:21:00,
2013-02-21 23:22:00,63.7,54.9,30.03,SSE,158,0.0,0.0,73,0.00,,---,0.00,VWS V14.01,2013-02-22 04:22:00,
2013-02-21 23:23:00,63.7,54.9,30.03,SSE,158,0.0,0.0,73,0.00,,---,0.00,VWS V14.01,2013-02-22 04:23:00,
2013-02-21 23:24:00,63.7,55.2,30.03,SSE,158,0.0,0.0,74,0.00,,---,0.00,VWS V14.01,2013-02-22 04:24:00,
2013-02-21 23:25:00,64.8,56.7,30.03,SSE,158,0.0,0.0,75,0.00,,---,0.00,VWS V14.01,2013-02-22 04:25:00,
2013-02-21 23:26:00,63.7,55.2,30.03,SSE,158,0.0,0.0,74,0.00,,---,0.00,VWS V14.01,2013-02-22 04:26:00,
2013-02-21 23:27:00,63.7,55.2,30.03,SSE,158,0.0,0.0,74,0.00,,---,0.00,VWS V14.01,2013-02-22 04:27:00,
2013-02-21 23:28:00,63.7,54.9,30.03,SSE,158,0.0,0.0,73,0.00,,---,0.00,VWS V14.01,2013-02-22 04:28:00,
2013-02-21 23:29:00,63.7,54.9,30.03,SSE,158,0.0,0.0,73,0.00,,---,0.00,VWS V14.01,2013-02-22 04:29:00,
2013-02-21 23:30:00,64.8,56.7,30.03,SSE,158,0.0,0.0,75,0.00,,---,0.00,VWS V14.01,2013-02-22 04:30:00,
2013-02-21 23:31:00,64.4,55.9,30.03,SSE,158,0.0,0.0,74,0.00,,---,0.00,VWS V14.01,2013-02-22 04:31:00,
2013-02-21 23:32:00,64.6,56.5,30.03,SSE,158,0.0,0.0,75,0.00,,---,0.00,VWS V14.01,2013-02-22 04:32:00,
2013-02-21 23:33:00,64.8,56.7,30.03,SSE,158,0.0,0.0,75,0.00,,---,0.00,VWS V14.01,2013-02-22 04:33:00,
2013-02-21 23:34:00,64.6,56.5,30.03,SSE,158,0.0,0.0,75,0.00,,---,0.00,VWS V14.01,2013-02-22 04:34:00,
2013-02-21 23:35:00,64.8,57.0,30.03,SSE,158,0.0,0.0,76,0.00,,---,0.00,VWS V14.01,2013-02-22 04:35:00,
2013-02-21 23:36:00,64.8,57.0,30.03,SSE,158,0.0,0.0,76,0.00,,---,0.00,VWS V14.01,2013-02-22 04:36:00,
2013-02-21 23:37:00,64.8,57.0,30.03,SSE,158,0.0,0.0,76,0.00,,---,0.00,VWS V14.01,2013-02-22 04:37:00,
2013-02-21 23:38:00,64.8,57.0,30.03,SSE,158,0.0,0.0,76,0.00,,---,0.00,VWS V14.01,2013-02-22 04:38:00,
2013-02-21 23:39:00,64.6,56.5,30.03,SSE,158,0.0,0.0,75,0.00,,---,0.00,VWS V14.01,2013-02-22 04:39:00,
2013-02-21 23:40:00,64.6,56.5,30.03,SSE,158,0.0,0.0,75,0.00,,---,0.00,VWS V14.01,2013-02-22 04:40:00,
2013-02-21 23:41:00,64.6,56.5,30.03,SSE,158,0.0,0.0,75,0.00,,---,0.00,VWS V14.01,2013-02-22 04:41:00,
2013-02-21 23:42:00,64.6,56.5,30.03,SSE,158,0.0,0.0,75,0.00,,---,0.00,VWS V14.01,2013-02-22 04:42:00,
2013-02-21 23:43:00,64.8,56.7,30.03,SSE,158,0.0,0.0,75,0.00,,---,0.00,VWS V14.01,2013-02-22 04:43:00,
2013-02-21 23:44:00,64.4,56.3,30.03,SSE,158,0.0,0.0,75,0.00,,---,0.00,VWS V14.01,2013-02-22 04:44:00,
2013-02-21 23:45:00,64.6,56.5,30.03,SSE,158,0.0,0.0,75,0.00,,---,0.00,VWS V14.01,2013-02-22 04:45:00,
2013-02-21 23:46:00,64.8,56.7,30.03,SSE,158,0.0,0.0,75,0.00,,---,0.00,VWS V14.01,2013-02-22 04:46:00,
2013-02-21 23:47:00,64.6,56.5,30.03,SSE,158,0.0,0.0,75,0.00,,---,0.00,VWS V14.01,2013-02-22 04:47:00,
2013-02-21 23:48:00,64.6,56.5,30.03,SSE,158,0.0,0.0,75,0.00,,---,0.00,VWS V14.01,2013-02-22 04:48:00,
2013-02-21 23:49:00,64.6,56.5,30.03,SSE,158,0.0,0.0,75,0.00,,---,0.00,VWS V14.01,2013-02-22 04:49:00,
2013-02-21 23:50:00,64.2,56.5,30.03,SSE,158,0.0,0.0,76,0.00,,---,0.00,VWS V14.01,2013-02-22 04:50:00,
2013-02-21 23:51:00,64.6,56.5,30.03,SSE,158,0.0,0.0,75,0.00,,---,0.00,VWS V14.01,2013-02-22 04:51:00,
2013-02-21 23:52:00,64.6,56.5,30.03,SSE,158,0.0,0.0,75,0.00,,---,0.00,VWS V14.01,2013-02-22 04:52:00,
2013-02-21 23:53:00,64.4,56.3,30.03,SSE,158,0.0,0.0,75,0.00,,---,0.00,VWS V14.01,2013-02-22 04:53:00,
2013-02-21 23:54:00,64.4,56.3,30.03,SSE,158,0.0,0.0,75,0.00,,---,0.00,VWS V14.01,2013-02-22 04:54:00,
2013-02-21 23:55:00,64.0,56.3,30.03,SSE,158,0.0,0.0,76,0.00,,---,0.00,VWS V14.01,2013-02-22 04:55:00,
2013-02-21 23:56:00,64.4,56.3,30.03,SSE,158,0.0,0.0,75,0.00,,---,0.00,VWS V14.01,2013-02-22 04:56:00,
2013-02-21 23:57:00,64.4,56.3,30.03,SSE,158,0.0,0.0,75,0.00,,---,0.00,VWS V14.01,2013-02-22 04:57:00,
2013-02-21 23:58:00,64.2,56.5,30.03,SSE,158,0.0,0.0,76,0.00,,---,0.00,VWS V14.01,2013-02-22 04:58:00,
2013-02-21 23:59:00,64.2,56.5,30.03,SSE,158,0.0,0.0,76,0.00,,---,0.00,VWS V14.01,2013-02-22 04:59:00,